     2              OBSERVATION DATA    GPS                 RINEX VERSION / TYPE
ASRINEXO V2.2.0 UX USGS 04-FEB-94 13:56                     PGM / RUN BY / DATE
                                                            COMMENT
Original Marker Name: LJON                                  COMMENT
Campaign Name: USGS-San Gabriel                             COMMENT
4-Character Station Name: LTEJ                              COMMENT
6-Character Antenna Code: ASHL12                            COMMENT
Vertical Measurement Point: BBE                             COMMENT
Vertical Offset to Rinex Ref. Point: 0.0595                 COMMENT
Radial Measurement Point: EGP                               COMMENT
Radial Offset to Rinex Ref. Point: 0.1424                   COMMENT
Antenna Height from Field Measurement: 1.1770 m             COMMENT
Additional Antenna Identification Info.:                    COMMENT
Original Ashtech L1/L2                                      COMMENT
Original XYZ: -2526668.8100 -4595475.3600 3620551.8600      COMMENT
New XYZ position is based on association with SCEC monument COMMENT
E1E9U8E4+0011. Position of that monument is believed to be  COMMENT
valid to within 1 m horizontally; vertical accuracy         COMMENT
should be no worse than 3-times this value.                 COMMENT
                                                            COMMENT
Revised Rinex header created by UCSD GPS archive for        COMMENT
GSAC on 11-Nov-1999 (1999:315) 01:17:31 GMT                 COMMENT
For assistance contact dagnew@ucsd.edu or hjohnson@ucsd.edu COMMENT
                                                            COMMENT
LJON                                                        MARKER NAME
                                                            MARKER NUMBER
CHS US GEOLOGICAL SURVEY                                    OBSERVER / AGENCY
107 ASHTECH L-XII 6A                                        REC # / TYPE / VERS
31 ASHTECH GEODETIC L                                       ANT # / TYPE
 -2526653.0000 -4595448.0000  3620526.0000                  APPROX POSITION XYZ
        1.1089        0.0000        0.0000                  ANTENNA: DELTA H/E/N
     1     2     0                                          WAVELENGTH FACT L1/2
     3    C1    L1    L2                                    # / TYPES OF OBSERV
    30                                                      INTERVAL
  1991    11     4    23    36    0.000000                  TIME OF FIRST OBS
  1991    11     5    21     3    0.000000                  TIME OF LAST OBS
                                                            END OF HEADER
 91 11  4 23 36  0.0000000  0  5 21 12 23 11 15
  21110148.249      808966.625 9    630363.524 7
  24846141.177      225764.069 5    175920.167 2
  24156233.592     1643528.424 5   1280671.377 5
  21952123.462      254970.601 7    198678.377 4
  22441309.805    -1700105.216 7  -1324757.830 4
 91 11  4 23 36 30.0000000  0  5 21 12 23 11 15
  21119724.222      859287.597 9    669574.683 7
  24864609.589      322813.006 5    251542.644 2
  24173073.828     1732047.902 5   1349647.505 2
  21966214.007      329019.644 7    256378.855 5
  22428220.868    -1768902.437 7  -1378365.812 3
 91 11  4 23 37  0.0000000  0  5 21 12 23 11 15
  21129432.694      910314.331 9    709335.788 6
  24883253.384      420782.417 5    327882.460 1
  24190021.393     1821128.855 5   1419061.149 2
  21980506.311      404111.729 7    314892.102 5
  22415275.528    -1836933.876 7  -1431377.095 2
 91 11  4 23 37 30.0000000  0  5 21 12 23 11 15
  21139271.886      962022.627 9    749627.979 6
  24902062.956      519644.752 5    404917.938 3
  24207081.388     1910746.738 5   1488893.225 1
  21994986.589      480219.432 7    374196.742 5
  22402470.489    -1904221.289 7  -1483808.647 4
 91 11  4 23 38  0.0000000  0  5 21 12 23 11 15
  21149238.787     1014379.977 9    790425.924 7
  24921038.323      619364.264 5    482621.463 3
  24224234.909     2000868.798 5   1559118.119 1
  22009661.132      557307.159 7    434265.035 5
  22389800.366    -1970794.927 7  -1535684.448 5
 91 11  4 23 38 30.0000000  0  5 21 12 23 11 15
  21159316.611     1067357.729 9    831707.307 6
  24940175.576      719909.265 5    560968.117
  24241474.773     2091466.338 5   1629713.567 2
  22024509.251      635343.501 7    495072.493 5
  22377262.445    -2036680.973 7  -1587024.029 4
 91 11  4 23 39  0.0000000  0  5 21 12 23 11 15
  21169513.148     1120924.294 9    873447.507 6
  24959458.529      821245.461 5    639931.364 3
  24258792.587     2182507.539 5   1700654.647 2
  22039528.855      714293.786 7    556592.133 4
  22364848.640    -2101908.258 7  -1637850.249 5
 91 11  4 23 39 30.0000000  0  5 21 12 23 11 15
  21179814.919     1175065.947 9    915635.810 7
  24978890.175      923356.145 5    719498.132 2
  24276203.638     2273978.562 5   1771930.701 2
  22054725.333      794141.442 7    618810.995 5
  22352559.542    -2166488.067 7  -1688171.946 4
 91 11  4 23 40  0.0000000  0  5 21 12 23 11 15
  21190221.016     1229755.928 9    958251.389 6
  24998459.425     1026211.271 5    799644.997 2
  24293691.731     2365852.623 5   1843520.775 4
  22070086.995      874856.155 7    681705.515 4
  22340393.965    -2230444.627 7  -1738007.991 3
 91 11  4 23 40 30.0000000  0  5 21 12 23 11 15
  21200729.938     1284977.197 9   1001280.960 6
  25018174.978     1129790.559 5    880356.114 3
  24311243.073     2458112.518 5   1915411.456 1
  22085605.753      956418.035 7    745260.159 4
  22328334.818    -2293792.457 7  -1787369.673 4
 91 11  4 23 41  0.0000000  0  5 21 12 23 11 15
  21211335.701     1340713.555 8   1044711.907 6
  25038016.146     1234075.042 5    961616.769 2
  24328862.479     2550742.178 5   1987590.401 2
  22101282.200     1038808.041 7    809460.082 4
  22316391.680    -2356544.937 7  -1836267.459 4
 91 11  4 23 41 30.0000000  0  5 21 12 23 11 15
  21222034.988     1396945.669 8   1088529.139 6
  25057989.813     1339041.821 5   1043409.071 2
  24346567.619     2643721.296 5   2060041.620 1
  22117115.140     1122003.013 7    874287.261 2
  22304561.270    -2418719.288 7  -1884714.760 5
 91 11  4 23 42  0.0000000  0  4 21 23 11 15
  21232827.520     1453655.363 8   1132718.521 6
  24364312.640     2737032.049 5   2132751.280 2
  22133096.180     1205981.691 7    939725.112 4
  22292835.491    -2480331.322 8  -1932723.892 3
 91 11  4 23 42 30.0000000  0  4 21 23 11 15
  21243706.090     1510825.234 8   1177266.493 6
  24382132.602     2830656.652 5   2205705.354 2
  22149221.412     1290723.591 7   1005757.679 5
  22281216.133    -2541395.562 8  -1980306.191 5
 91 11  4 23 43  0.0000000  0  4 21 23 11 15
  21254669.495     1568440.038 8   1222161.145 6
  24400001.730     2924579.320 4   2278891.801 3
  22165490.250     1376209.978 7   1072370.356 3
  22269699.312    -2601925.466 8  -2027472.104 4
 91 11  4 23 43 30.0000000  0  4 21 23 11 15
  21265717.149     1626486.123 9   1267391.857 6
  24417937.709     3018787.159 5   2352300.394 2
  22181898.794     1462424.608 7   1139550.522 3
  22258280.509    -2661931.706 8  -2074229.990 4
 91 11  4 23 44  0.0000000  0  4 21 23 11 15
  21276846.645     1684955.389 8   1312952.344 6
  24435906.373     3113270.938 4   2425924.038
  22198434.743     1549355.394 7   1207288.711 5
  22246959.750    -2721420.424 8  -2120584.618 4
 91 11  4 23 44 30.0000000  0  4 21 23 11 15
  21288048.394     1743841.748 8   1358837.808 7
  24453936.793     3208024.653 5   2499758.104 3
  22215115.493     1636992.961 7   1275577.643 4
  22235738.222    -2780394.962 8  -2166538.572 4
 91 11  4 23 45  0.0000000  0  4 21 23 11 15
  21299334.078     1803144.184 8   1405047.491 6
  24472038.558     3303047.603 5   2573801.733
  22231924.258     1725333.106 7   1344414.036 4
  22224611.718    -2838853.476 8  -2212090.459 3
 91 11  4 23 45 30.0010000  0  4 21 23 11 15
  21310696.511     1862858.752 8   1451578.310 5
  24490163.710     3398336.259 5   2648052.688 1
  22248869.732     1814369.637 7   1413793.050 4
  22213586.857    -2896801.556 8  -2257244.577 4
 91 11  4 23 46  0.0010000  0  4 21 23 11 15
  21322136.891     1922979.190 8   1498425.415 6
  24508353.616     3493882.269 5   2722504.023 2
  22265941.411     1904090.809 7   1483705.570 5
  22202657.018    -2954235.551 8  -2301998.126 5
 91 11  4 23 46 30.0010000  0  4 21 23 11 15
  21333654.620     1983500.053 8   1545584.510 6
  24526568.110     3589680.830 4   2797152.147 1
  22283141.401     1994488.853 7   1554145.497 5
  22191824.019    -3011162.275 8  -2346356.375 5
 91 11  4 23 47  0.0010000  0  4 21 23 11 15
  21345244.897     2044410.666 8   1593047.314 6
  24544849.455     3685721.113 5   2871988.653 2
  22300473.900     2085549.278 7   1625101.579 3
  22181083.052    -3067589.957 8  -2390325.772 4
 91 11  4 23 47 30.0010000  0  4 21 23 11 15
  21356907.724     2105702.187 8   1640806.924 5
  24563174.566     3781994.459 5   2947006.808 2
  22317928.715     2177260.299 7   1696564.620 3
  22170439.824    -3123524.579 8  -2433910.966 4
 91 11  4 23 48  0.0010000  0  4 21 23 11 15
  21368644.592     2167369.266 8   1688859.195 5
  24581534.760     3878495.019 5   3022202.050 2
  22335499.252     2269613.048 7   1768527.728 2
  22159888.026    -3178969.220 8  -2477114.341 4
 91 11  4 23 48 30.0010000  0  4 21 23 11 15
  21380448.923     2229404.600 8   1737198.407 6
  24599927.028     3975215.319 5   3097568.423 1
  22353195.701     2362596.731 7   1840982.450 4
  22149429.771    -3233928.392 8  -2519939.460 5
 91 11  4 23 49  0.0010000  0  4 21 23 11 15
  21392324.302     2291802.087 8   1785819.814 7
  24618379.848     4072148.945 5   3173100.994 2
  22371006.074     2456201.666 7   1913921.249 4
  22139064.743    -3288406.096 8  -2562389.388 4
 91 11  4 23 49 30.0010000  0  4 21 23 11 15
  21404264.134     2354553.036 8   1834716.658 6
  24636865.954     4169286.899 5   3248792.842 1
  22388934.262     2550415.424 7   1987334.468 4
  22128785.456    -3342408.763 8  -2604469.169 5
 91 11  4 23 50  0.0010000  0  4 21 23 11 15
  21416271.122     2417650.731 8   1883883.694 6
  24655381.438     4266622.706 5   3324638.874 1
  22406975.170     2645227.978 7   2061214.269 4
  22118600.009    -3395940.445 8  -2646181.959 5
 91 11  4 23 50 30.0010000  0  4 21 23 11 15
  21428339.265     2481087.998 8   1933315.324 6
  24673955.973     4364148.993 5   3400633.505 2
  22425134.503     2740628.885 7   2135552.545 4
  22108500.904    -3449005.940 8  -2687531.493 6
 91 11  4 23 51  0.0010000  0  4 21 23 11 15
  21440478.762     2544861.551 8   1983008.988 6
  24692545.804     4461862.490 5   3476773.684 2
  22443396.357     2836611.255 7   2210343.897 4
  22098492.934    -3501605.742 8  -2728518.147 5
 91 11  4 23 51 30.0010000  0  4 21 23 11 15
  21452678.218     2608965.693 8   2032960.278 6
  24711168.013     4559756.313 5   3553054.440 1
  22461766.140     2933165.484 7   2285580.845 3
  22088571.002    -3553743.442 8  -2769144.744 4
 91 11  4 23 52  0.0010000  0  4 21 23 11 15
  21464938.235     2673395.147 8   2083165.038 6
  24729833.996     4657825.421 5   3629471.842 1
  22480254.340     3030282.648 7   2361256.447 3
  22078736.312    -3605421.424 8  -2809413.114 4
 91 11  4 23 52 30.0010000  0  4 21 23 11 15
  21477261.204     2738145.920 8   2133620.185 6
  24748523.650     4756065.592 5   3706022.530 3
  22498837.278     3127954.983 7   2437364.662 4
  22068990.357    -3656641.906 8  -2849325.009 5
 91 11  4 23 53  0.0010000  0  4 21 23 11 15
  21489640.833     2803210.971 8   2184320.216 5
  24767250.788     4854470.015 5   3782701.202 4
  22517525.746     3226172.389 7   2513897.620 4
  22059330.440    -3707409.084 8  -2888883.666 6
 91 11  4 23 53 30.0010000  0  4 21 23 11 15
  21502084.915     2868589.239 8   2235264.334 5
  24786009.405     4953037.526 5   3859506.948 3
  22536320.633     3324930.279 7   2590851.695 3
  22049755.375    -3757721.146 8  -2928087.725 5
 91 11  4 23 54  0.0010000  0  4 21 23 11 15
  21514580.266     2934277.305 8   2286449.823 6
  24804794.696     5051763.973 5   3936436.712 2
  22555215.049     3424221.241 7   2668221.175 3
  22040265.440    -3807579.694 8  -2966938.370 4
 91 11  4 23 54 30.0010000  0  4 21 23 11 15
  21527140.967     3000274.252 8   2337876.014 6
  24823607.575     5150648.120 5   4013489.227 2
  22574206.304     3524040.692 7   2746002.450 3
  22030864.851    -3856983.674 8  -3005434.825 5
 91 11  4 23 55  0.0010000  0  4 21 23 11 15
  21539754.142     3066573.964 8   2389538.132 6
  24842464.516     5249683.743 5   4090659.721 1
  22593307.277     3624378.830 7   2824187.875 4
  22021552.097    -3905936.340 8  -3043579.600 5
 91 11  4 23 55 30.0010000  0  4 21 23 11 15
  21552429.666     3133176.101 8   2441435.883 6
  24861343.950     5348870.777 5   4167948.250 2
  22612501.487     3725231.822 7   2902774.531 5
  22012319.990    -3954435.547 8  -3081371.018 4
 91 11  4 23 56  0.0010000  0  4 21 23 11 15
  21565161.545     3200078.840 8   2493567.873 6
  24880240.171     5448207.258 5   4245353.185 2
  22631784.746     3826594.047 7   2981757.941 3
  22003179.618    -4002480.504 8  -3118808.487 5
 91 11  4 23 56 30.0010000  0  4 21 23 11 15
  21577953.096     3267278.662 8   2545931.354 6
  24899166.668     5547688.831 5   4322871.209
  22651171.117     3928458.234 7   3061132.521 3
  21994122.588    -4050072.297 8  -3155892.833 4
 91 11  4 23 57  0.0010000  0  4 21 23 11 15
  21590794.406     3334780.917 8   2598530.521 6
  24918139.330     5647321.106 5   4400506.820 1
  22670651.633     4030826.085 7   3140899.534 3
  21985155.497    -4097203.501 8  -3192618.272 5
 91 11  4 23 57 30.0010000  0  4 21 23 11 15
  21603696.277     3402584.607 8   2651364.560 6
  24937129.687     5747102.701 5   4478258.575 2
  22690226.581     4133693.159 7   3221055.568 3
  21976271.740    -4143871.877 8  -3228983.072 5
 91 11  4 23 58  0.0010000  0  4 21 23 11 15
  21616656.597     3470687.493 8   2704431.744 7
  24956139.527     5847031.200 5   4556124.839 3
  22709895.070     4237052.960 7   3301595.549 3
  21967479.430    -4190077.633 8  -3264987.388 4
 91 11  4 23 58 30.0010000  0  4 21 23 11 15
  21629672.086     3539084.563 8   2757728.171 5
  24975167.349     5947101.223 5   4634101.389 2
  22729658.585     4340896.598 7   3382512.571 2
  21958775.558    -4235823.687 8  -3300633.488 5
 91 11  4 23 59  0.0010000  0  4 21 23 11 15
  21642743.041     3607775.027 8   2811253.214 5
  24994246.143     6047311.830 4   4712187.496 1
  22749506.645     4445219.748 7   3463803.210 3
  21950156.224    -4281108.561 8  -3335920.222 5
 91 11  4 23 59 30.0010000  0  4 21 23 11 15
  21655870.953     3676755.290 8   2865004.070 5
  25013328.829     6147659.228 4   4790380.145 2
  22769443.144     4550014.916 6   3545461.660 2
  21941626.226    -4325933.353 8  -3370848.467 5
 91 11  5  0  0  0.0010000  0  4 21 23 11 15
  21669051.329     3746025.721 8   2918981.025 6
  25032456.195     6248144.049 4   4868680.099 2
  22789482.468     4655279.271 7   3627485.697 3
  21933187.074    -4370295.379 8  -3405416.102 5
 91 11  5  0  0 30.0010000  0  3 21 11 15
  21682290.164     3815581.996 8   2973180.748 5
  22809601.845     4761003.955 7   3709868.450 2
  21924831.255    -4414196.681 8  -3439624.746 6
 91 11  5  0  1  0.0010000  0  3 21 11 15
  21695579.360     3885426.793 8   3027605.268 6
  22829804.555     4867188.014 7   3792609.172 3
  21916564.476    -4457631.997 8  -3473470.283 5
 91 11  5  0  1 30.0010000  0  3 21 11 15
  21708924.920     3955558.475 8   3082253.336 6
  22850090.913     4973826.046 6   3875703.594 2
  21908388.534    -4500600.484 8  -3506952.066 5
 91 11  5  0  2  0.0010000  0  3 21 11 15
  21722324.445     4025973.515 8   3137122.241 5
  22870477.697     5080910.568 7   3959145.951 3
  21900299.835    -4543103.599 8  -3540071.239 5
 91 11  5  0  2 30.0010000  0  3 21 11 15
  21735777.036     4096671.539 8   3192211.604 6
  22890934.937     5188437.872 6   4042933.298 4
  21892301.074    -4585139.045 8  -3572825.975 5
 91 11  5  0  3  0.0010000  0  3 21 11 15
  21749285.380     4167653.057 8   3247521.881 6
  22911482.708     5296404.290 6   4127062.855 3
  21884391.047    -4626703.753 8  -3605213.935 5
 91 11  5  0  3 30.0010000  0  3 21 11 15
  21762844.095     4238915.156 8   3303050.823 6
  22932108.734     5404802.987 6   4211529.243 2
  21876570.366    -4667798.889 8  -3637235.976 6
 91 11  5  0  4  0.0010000  0  3 21 11 15
  21776459.767     4310457.408 8   3358798.032 6
  22952819.298     5513629.591 6   4296329.032 3
  21868839.614    -4708422.405 8  -3668890.530 6
 91 11  5  0  4 30.0010000  0  3 21 11 15
  21790124.613     4382280.550 8   3414764.127 6
  22973606.006     5622881.147 6   4381459.952 3
  21861201.505    -4748570.928 8  -3700174.957 5
 91 11  5  0  5  0.0010000  0  3 21 11 15
  21803846.714     4454382.717 8   3470947.654 5
  22994480.253     5732551.587 6   4466917.307 3
  21853653.030    -4788244.601 8  -3731089.366 6
 91 11  5  0  5 30.0010000  0  3 21 11 15
  21817618.880     4526766.822 8   3527350.866 6
  23015428.550     5842640.631 6   4552700.815 2
  21846192.992    -4827438.181 8  -3761629.692 6
 91 11  5  0  6  0.0010000  0  3 21 11 15
  21831450.699     4599430.421 8   3583971.853 6
  23036451.500     5953141.373 6   4638805.132 2
  21838823.800    -4866151.579 8  -3791795.834 5
 91 11  5  0  6 30.0010000  0  3 21 11 15
  21845329.895     4672372.455 8   3640809.791 5
  23057558.384     6064049.100 6   4725226.598 1
  21831549.633    -4904383.591 8  -3821586.888 5
 91 11  5  0  7  0.0010000  0  3 21 11 15
  21859262.149     4745590.222 8   3697862.601 5
  23078746.814     6175357.221 6   4811960.084 2
  21824365.108    -4942134.037 8  -3851002.685 6
 91 11  5  0  7 30.0010000  0  3 21 11 15
  21873248.062     4819079.237 8   3755126.749 6
  23099999.102     6287057.117 6   4898998.776 3
  21817273.819    -4979405.168 8  -3880044.987 5
 91 11  5  0  8  0.0010000  0  3 21 11 15
  21887283.447     4892839.524 8   3812602.280 6
  23121328.137     6399144.929 6   4986339.792 3
  21810270.366    -5016194.730 8  -3908712.046 6
 91 11  5  0  8 30.0010000  0  3 21 11 15
  21901370.999     4966869.591 8   3870288.006 5
  23142726.423     6511615.361 6   5073978.937 3
  21803365.542    -5052502.201 8  -3937003.445 5
 91 11  5  0  9  0.0010000  0  3 21 11 15
  21915508.005     5041169.032 8   3928183.682 5
  23164211.646     6624464.111 6   5161912.852 2
  21796548.265    -5088325.512 8  -3964917.581 6
 91 11  5  0  9 30.0010000  0  3 21 11 15
  21929695.390     5115737.419 8   3986288.884 6
  23185748.740     6737686.353 6   5250137.851 2
  21789822.123    -5123663.447 8  -3992453.496 6
 91 11  5  0 10  0.0010000  0  3 21 11 15
  21943943.327     5190577.075 8   4044605.475 5
  23207370.074     6851281.080 6   5338653.110 1
  21783191.310    -5158511.131 8  -4019607.400 5
 91 11  5  0 10 30.0010000  0  3 21 11 15
  21958235.326     5265685.474 8   4103131.469 5
  23229048.061     6965241.980 6   5427453.630 1
  21776655.532    -5192868.442 8  -4046379.198 5
 91 11  5  0 11  0.0010000  0  3 21 11 15
  21972577.101     5341062.060 8   4161866.468 4
  23250810.001     7079563.811 6   5516535.447 1
  21770208.200    -5226734.445 9  -4072768.141 5
 91 11  5  0 11 30.0010000  0  3 21 11 15
  21986971.934     5416706.275 8   4220809.986 6
  23272629.796     7194242.376 6   5605895.231 2
  21763857.691    -5260107.080 9  -4098772.664 6
 91 11  5  0 12  0.0010000  0  3 21 11 15
  22001417.434     5492616.990 8   4279961.165 4
  23294520.335     7309272.398 6   5695528.812 4
  21757599.824    -5292985.464 9  -4124392.042 6
 91 11  5  0 12 30.0010000  0  3 21 11 15
  22015913.600     5568794.371 8   4339320.144 4
  23316476.836     7424650.444 6   5785433.625 2
  21751440.290    -5325366.535 9  -4149623.917 6
 91 11  5  0 13  0.0010000  0  3 21 11 15
  22030458.034     5645232.599 8   4398882.405 5
  23338495.094     7540366.762 6   5875602.046 2
  21745370.694    -5357254.172 9  -4174471.289 6
 91 11  5  0 13 30.0010000  0  3 21 11 15
  22045054.923     5721928.534 8   4458645.449 5
  23360584.408     7656414.301 6   5966028.504 2
  21739395.827    -5388649.715 9  -4198935.210 6
 91 11  5  0 14  0.0010000  0  3 21 11 15
  22059699.791     5798883.733 8   4518610.516 5
  23382727.077     7772790.391 6   6056711.040 2
  21733514.502    -5419549.423 9  -4223012.777 6
 91 11  5  0 14 30.0010000  0  3 21 11 15
  22074393.215     5876098.350 8   4578777.733 4
  23404931.501     7889491.461 6   6147646.772 2
  21727730.906    -5449950.704 9  -4246701.951 6
 91 11  5  0 15  0.0010000  0  3 21 11 15
  22089134.312     5953568.993 8   4639144.462 4
  23427200.387     8006509.883 6   6238829.757 2
  21722038.148    -5479854.959 9  -4270003.841 6
 91 11  5  0 15 30.0010000  0  3 21 11 15
  22103924.271     6031295.684 8   4699710.679 5
  23449528.028     8123841.953 6   6330257.159 2
  21716444.620    -5509259.968 9  -4292916.700 6
 91 11  5  0 16  0.0010000  0  3 21 11 15
  22118764.599     6109279.646 8   4760477.375 4
  23471906.336     8241484.722 5   6421926.659 4
  21710943.727    -5538162.352 9  -4315437.907 6
 91 11  5  0 16 30.0010000  0  3 21 11 15
  22133651.388     6187518.822 8   4821442.942 3
  23494356.294     8359432.403 6   6513833.780 2
  21705536.367    -5566561.907 9  -4337567.304 6
 91 11  5  0 17  0.0020000  0  3 21 11 15
  22148591.553     6266018.098 8   4882611.199 4
  23516865.612     8477686.797 6   6605979.847 3
  21700231.539    -5594455.557 9  -4359302.495 6
 91 11  5  0 17 30.0020000  0  3 21 11 15
  22163575.775     6344768.156 8   4943974.845 5
  23539427.391     8596232.204 6   6698352.697 2
  21695020.249    -5621843.094 9  -4380643.329 5
 91 11  5  0 18  0.0020000  0  3 21 11 15
  22178612.768     6423771.122 8   5005535.556 5
  23562041.635     8715067.998 5   6790951.854 2
  21689904.587    -5648723.743 9  -4401589.181 6
 91 11  5  0 18 30.0020000  0  3 21 11 15
  22193693.228     6503025.795 8   5067292.452 4
  23584702.653     8834189.525 5   6883773.645 3
  21684884.570    -5675097.071 9  -4422139.715 7
 91 11  5  0 19  0.0020000  0  3 21 11 15
  22208819.854     6582526.799 7   5129241.279 5
  23607423.919     8953587.269 5   6976810.645 1
  21679961.977    -5700966.053 9  -4442297.264 6
 91 11  5  0 19 30.0020000  0  3 21 11 15
  22223997.146     6662279.097 7   5191385.906 5
  23630196.453     9073262.020 5   7070063.513 1
  21675138.012    -5726323.836 9  -4462056.465 7
 91 11  5  0 20  0.0020000  0  3 21 11 15
  22239220.611     6742277.989 7   5253722.685 5
  23653022.053     9193204.837 5   7163525.249 2
  21670409.090    -5751173.128 9  -4481419.442 6
 91 11  5  0 20 30.0020000  0  3 21 11 15
  22254491.436     6822521.932 7   5316250.447 3
  23675892.317     9313410.294 5   7257191.654 3
  21665774.601    -5775513.076 9  -4500385.521 7
 91 11  5  0 21  0.0020000  0  3 21 11 15
  22269807.832     6903011.961 7   5378969.942 4
  23698819.547     9433875.869 6   7351060.736 2
  21661241.435    -5799340.763 9  -4518952.439 7
 91 11  5  0 21 30.0020000  0  3 21 11 15
  22285171.597     6983746.826 7   5441880.220 5
  23721792.646     9554596.049 6   7445128.197 2
  21656803.906    -5822655.706 9  -4537119.824 7
 91 11  5  0 22  0.0020000  0  3 21 11 15
  22300579.730     7064724.909 7   5504980.016 4
  23744810.111     9675565.615 6   7539390.009 4
  21652465.607    -5845457.239 9  -4554887.125 6
 91 11  5  0 22 30.0020000  0  3 21 11 15
  22316034.934     7145945.014 7   5568268.434 4
  23767877.938     9796779.425 6   7633842.105 2
  21648225.946    -5867744.285 9  -4572253.536 6
 91 11  5  0 23  0.0020000  0  3 21 11 15
  22331537.201     7227407.518 7   5631745.680 5
  23790990.437     9918233.556 6   7728481.575 1
  21644084.311    -5889515.276 9  -4589217.824 6
 91 11  5  0 23 30.0020000  0  3 21 11 15
  22347085.938     7309113.009 7   5695412.296 5
  23814151.509    10039924.848 6   7823305.730 2
  21640037.414    -5910766.936 9  -4605777.438 7
 91 11  5  0 24  0.0020000  0  4 14 21 11 15
  25364472.138    -1668526.260 4  -1300150.124 2
  22362680.535     7391061.868 7   5759268.583 4
  23837347.351    10161849.634 6   7918311.892 2
  21636093.342    -5931497.570 9  -4621931.062 7
 91 11  5  0 24 30.0020000  0  4 14 21 11 15
  25352879.470    -1729493.028 4  -1347656.784 2
  22378319.211     7473248.646 7   5823310.220 5
  23860592.951    10283998.525 5   8013492.667 3
  21632247.611    -5951710.302 9  -4637681.121 7
 91 11  5  0 25  0.0020000  0  4 14 21 11 15
  25341269.701    -1790542.017 3  -1395227.437 2
  22394006.154     7555675.097 7   5887538.615 5
  23883878.138    10406369.315 5   8108846.783 2
  21628501.703    -5971401.719 9  -4653024.961 7
 91 11  5  0 25 30.0020000  0  4 14 21 11 15
  25329625.162    -1851674.406 4  -1442862.875 1
  22409732.962     7638339.762 7   5951952.663 3
  23907211.278    10528956.377 5   8204368.981 1
  21624851.423    -5990571.436 9  -4667962.293 6
 91 11  5  0 26  0.0020000  0  4 14 21 11 15
  25317976.426    -1912893.867 5  -1490566.493 2
  22425508.046     7721238.917 7   6016549.415 5
  23930578.306    10651752.140 5   8300053.826 2
  21621303.087    -6009220.895 9  -4682494.233 6
 91 11  5  0 26 30.0020000  0  4 14 21 11 15
  25306317.499    -1974195.432 5  -1538333.700 2
  22441330.786     7804376.541 7   6081331.965 3
  23953986.997    10774756.732 5   8395901.350 4
  21617856.372    -6027344.414 9  -4696616.349 7
 91 11  5  0 27  0.0020000  0  4 14 21 11 15
  25294635.791    -2035581.602 5  -1586166.973 2
  22457195.207     7887749.665 7   6146298.058 4
  23977428.668    10897963.562 5   8491906.934 1
  21614504.386    -6044943.067 9  -4710329.486 7
 91 11  5  0 27 30.0020000  0  4 14 21 11 15
  25282937.584    -2097053.372 5  -1634067.146 1
  22473106.394     7971356.510 7   6211446.256 5
  24000915.012    11021366.900 5   8588065.219 3
  21611255.836    -6062017.066 9  -4723633.802 7
 91 11  5  0 28  0.0020000  0  4 14 21 11 15
  25271220.496    -2158605.388 5  -1682029.845 2
  22489058.650     8055202.257 7   6276780.616 6
  24024437.330    11144968.051 5   8684377.585 3
  21608108.620    -6078558.519 9  -4736523.158 7
 91 11  5  0 28 30.0020000  0  4 14 21 11 15
  25259500.711    -2220240.743 5  -1730057.543 2
  22505060.971     8139282.548 7   6342297.713 2
  24047984.226    11268758.980 5   8780837.849 3
  21605060.930    -6094570.386 9  -4748999.831 7
 91 11  5  0 29  0.0020000  0  4 14 21 11 15
  25247751.846    -2281959.131 5  -1778149.888 2
  22521105.260     8223597.581 7   6407997.762 4
  24071582.094    11392735.812 5   8877442.968 2
  21602113.371    -6110050.513 9  -4761062.169 6
 91 11  5  0 29 30.0020000  0  4 14 21 11 15
  25235987.686    -2343756.620 5  -1826303.853 2
  22537196.027     8308150.500 7   6473883.135 4
  24095213.834    11516897.618 5   8974192.223 5
  21599272.231    -6124993.902 9  -4772706.273 7
 91 11  5  0 30  0.0020000  0  4 14 21 11 15
  25224209.147    -2405631.980 5  -1874518.523 2
  22553331.153     8392942.079 7   6539954.488 3
  24118874.052    11641241.252 5   9071083.158 1
  21596530.636    -6139398.200 9  -4783930.298 7
 91 11  5  0 30 30.0020000  0  4 14 21 11 15
  25212421.900    -2467583.777 5  -1922792.813 1
  22569510.349     8477973.212 7   6606212.541 4
  24142566.047    11765763.772 5   9168113.506 3
  21593890.959    -6153260.928 9  -4794732.313 7
 91 11  5  0 31  0.0020000  0  4 14 21 11 15
  25200618.476    -2529612.930 5  -1971127.468 1
  22585741.119     8563242.018 7   6672655.743 5
  24166299.721    11890459.635 5   9265278.897 1
  21591357.711    -6166581.916 9  -4805112.213 6
 91 11  5  0 31 30.0020000  0  4 14 21 11 15
  25188798.554    -2591720.681 5  -2019523.269 2
  22602008.456     8648746.391 7   6739282.513 5
  24190061.569    12015322.887 5   9362575.165 2
  21588925.796    -6179361.572 9  -4815070.288 7
 91 11  5  0 32  0.0020000  0  4 14 21 11 15
  25176961.853    -2653905.948 5  -2067979.393 2
  22618324.358     8734487.220 7   6806093.561 3
  24213843.206    12140350.488 5   9459999.083 1
  21586596.410    -6191597.337 9  -4824604.552 7
 91 11  5  0 32 30.0020000  0  4 14 21 11 15
  25165114.351    -2716171.715 6  -2116498.337 2
  22634685.533     8820460.882 7   6873086.033 3
  24237675.204    12265534.826 5   9557545.065 2
  21584369.850    -6203291.100 9  -4833716.465 7
 91 11  5  0 33  0.0020000  0  4 14 21 11 15
  25153248.866    -2778513.357 6  -2165076.362 2
  22651092.272     8906671.635 7   6940263.222 4
  24261529.093    12390875.990 5   9655213.301 2
  21582250.922    -6214437.231 9  -4842401.662 7
 91 11  5  0 33 30.0020000  0  4 14 21 11 15
  25141376.488    -2840928.258 6  -2213711.466 1
  22667541.292     8993120.575 7   7007626.011 2
  24285410.257    12516371.644 5   9753001.942 2
  21580233.319    -6225033.020 9  -4850658.028 7
 91 11  5  0 34  0.0020000  0  4 14 21 11 15
  25129486.416    -2903418.989 6  -2262405.648 2
  22684036.171     9079804.707 7   7075172.121 5
  24309314.508    12642015.054 5   9850905.698 1
  21578321.543    -6235079.875 9  -4858486.641 8
 91 11  5  0 34 30.0020000  0  4 14 21 11 15
  25117573.867    -2965984.516 6  -2311157.895 2
  22700581.412     9166724.503 7   7142901.817 3
  24333249.340    12767802.576 5   9948921.729 2
  21576514.390    -6244575.069 9  -4865885.387 8
 91 11  5  0 35  0.0020000  0  4 14 21 11 15
  25105656.512    -3028621.482 5  -2359965.831 1
  22717164.433     9253882.101 7   7210816.824 4
  24357215.652    12893732.587 5  10047048.778 2
  21574812.767    -6253515.219 9  -4872851.634 7
 91 11  5  0 35 30.0020000  0  4 14 21 11 15
  25093728.075    -3091330.286 6  -2408830.027 2
  22733790.328     9341276.140 7   7278916.082 4
  24381204.440    13019800.266 5  10145283.112 2
  21573219.370    -6261899.446 9  -4879384.695 7
 91 11  5  0 36  0.0020000  0  4 14 21 11 15
  25081780.147    -3154110.504 6  -2457749.739 2
  22750462.380     9428906.584 7   7347199.532 5
  24405213.026    13146001.635 5  10243621.592 2
  21571730.299    -6269726.704 9  -4885483.756 7
 91 11  5  0 36 30.0020000  0  4 14 21 11 15
  25069817.228    -3216962.204 5  -2506725.228 2
  22767188.108     9516772.724 7   7415666.640 2
  24429253.379    13272332.102 5  10342061.147 2
  21570346.462    -6276996.021 9  -4891148.053 7
 91 11  5  0 37  0.0020000  0  4 14 21 11 15
  25057841.720    -3279885.505 5  -2555756.430 1
  22783950.403     9604873.572 7   7484316.649 2
  24453321.321    13398787.041 4  10440597.274 1
  21569071.444    -6283707.257 9  -4896377.485 7
 91 11  5  0 37 30.0020000  0  4 14 21 11 15
  25045854.214    -3342880.916 6  -2604843.927 3
  22800763.959     9693207.308 7   7553148.147 5
  24477415.640    13525360.799 5  10539225.946 2
  21567897.455    -6289860.428 9  -4901172.071 7
 91 11  5  0 38  0.0020000  0  4 14 21 11 15
  25033851.125    -3405948.649 5  -2653987.685 1
  22817614.395     9781773.157 7   7622160.479 3
  24501518.648    13652048.954 4  10637943.852 3
  21566832.590    -6295454.350 9  -4905530.864 7
 91 11  5  0 38 30.0020000  0  4 14 21 11 15
  25021838.439    -3469087.769 5  -2703187.160 1
  22834513.395     9870571.316 7   7691353.839 5
  24525647.152    13778847.922 5  10736748.481 1
  21565874.460    -6300487.408 9  -4909452.623 8
 91 11  5  0 39  0.0020000  0  4 14 21 11 15
  25009808.669    -3532295.883 5  -2752440.051 2
  22851457.661     9959603.282 7   7760729.451 3
  24549795.426    13905755.448 4  10835637.289 1
  21565026.344    -6304956.870 9  -4912935.223 7
 91 11  5  0 39 30.0020000  0  4 14 21 11 15
  24997762.705    -3595573.239 5  -2801747.097 2
  22868442.709    10048867.982 7   7830286.348 4
  24573972.790    14032766.494 5  10934607.191 2
  21564282.555    -6308862.234 9  -4915978.257 8
 91 11  5  0 40  0.0020000  0  4 14 21 11 15
  24985713.749    -3658920.348 5  -2851108.560 2
  22885477.515    10138363.412 7   7900023.071 3
  24598156.148    14159875.742 4  11033653.176 1
  21563645.203    -6312203.760 9  -4918581.948 7
 91 11  5  0 40 30.0020000  0  4 14 21 11 15
  24973648.607    -3722337.317 5  -2900524.429 2
  22902546.795    10228089.128 7   7969939.250 3
  24622361.397    14287078.747 5  11132772.206 1
  21563115.170    -6314981.331 9  -4920746.190 7
 91 11  5  0 41  0.0020000  0  4 14 21 11 15
  24961562.473    -3785823.724 5  -2949994.454 2
  22919671.845    10318044.488 7   8040034.353 5
  24646576.829    14414371.080 4  11231960.851 2
  21562694.856    -6317193.653 9  -4922469.984 8
 91 11  5  0 41 30.0020000  0  4 14 21 11 15
  24949469.446    -3849382.113 5  -2999520.521 2
  22936831.665    10408226.133 7   8110305.772 2
  24670830.939    14541745.996 5  11331214.254 2
  21562380.377    -6318842.692 9  -4923754.860 8
 91 11  5  0 42  0.0020000  0  4 14 21 11 15
  24937363.820    -3913009.824 5  -3049100.604 1
  22954028.357    10498635.500 7   8180754.678 5
  24695080.852    14669201.079 5  11430529.757 2
  21562175.319    -6319925.688 9  -4924598.659 8
 91 11  5  0 42 30.0020000  0  4 14 21 11 15
  24925240.517    -3976705.109 5  -3098733.359 2
  22971276.013    10589273.019 7   8251381.315 4
  24719347.256    14796733.402 5  11529905.790 2
  21562075.486    -6320440.456 9  -4924999.678 8
 91 11  5  0 43  0.0020000  0  4 14 21 11 15
  24913108.514    -4040470.718 5  -3148420.811 2
  22988565.348    10680135.681 7   8322183.428 2
  24743632.541    14924335.934 5  11629336.141 1
  21562087.475    -6320389.303 9  -4924959.715 7
 91 11  5  0 43 30.0020000  0  4 14 21 11 15
  24900957.029    -4104307.727 6  -3198164.055 3
  23005903.544    10771220.429 7   8393158.586 4
  24767920.522    15052002.557 5  11728816.470 3
  21562202.297    -6319773.240 9  -4924479.586 8
 91 11  5  0 44  0.0020000  0  4 14 21 11 15
  24888792.046    -4168216.271 5  -3247962.969 1
  23023277.417    10862526.172 7   8464305.904 2
  24792230.097    15179728.284 5  11828342.831 2
  21562430.441    -6318592.341 9  -4923559.309 7
 91 11  5  0 44 30.0020000  0  4 14 21 11 15
  24876619.874    -4232195.289 6  -3297816.836 2
  23040691.757    10954053.826 7   8535626.211 3
  24816546.565    15307510.147 5  11927912.894 3
  21562762.606    -6316844.349 9  -4922197.149 7
 91 11  5  0 45  0.0020000  0  4 14 21 11 15
  24864432.711    -4296245.153 6  -3347725.922 2
  23058150.177    11045801.233 7   8607117.711 4
  24840869.927    15435342.538 4  12027522.366 1
  21563202.404    -6314529.868 9  -4920393.551 8
 91 11  5  0 45 30.0020000  0  4 14 21 11 15
  24852228.160    -4360363.583 6  -3397688.415 2
  23075653.853    11137770.003 7   8678781.684 4
  24865200.783    15563223.442 5  12127169.646 1
  21563751.327    -6311646.294 9  -4918146.514 9
 91 11  5  0 46  0.0020000  0  4 14 21 11 15
  24840014.316    -4424549.643 6  -3447703.645 2
  23093196.514    11229959.687 7   8750617.850 2
  24889551.418    15691148.822 5  12226851.588 2
  21564405.771    -6308192.914 9  -4915455.468 8
 91 11  5  0 46 30.0020000  0  4 14 21 11 15
  24827786.678    -4488802.859 6  -3497771.226 2
  23110779.937    11322369.877 7   8822625.787 5
  24913891.576    15819114.442 4  12326564.839 2
  21565173.240    -6304169.192 9  -4912320.000 8
 91 11  5  0 47  0.0020000  0  4 14 21 11 15
  24815548.849    -4553120.606 6  -3547889.133 1
  23128407.737    11415001.818 7   8894806.534 4
  24938254.505    15947118.396 4  12426307.987 3
  21566047.435    -6299572.418 9  -4908738.004 8
 91 11  5  0 47 30.0020000  0  4 14 21 11 15
  24803297.531    -4617502.605 6  -3598057.130 2
  23146080.803    11507854.989 7   8967159.724 3
  24962622.539    16075156.642 5  12526077.847 2
  21567033.154    -6294402.113 9  -4904709.100 7
 91 11  5  0 48  0.0020000  0  4 14 21 11 15
  24791028.231    -4681948.430 6  -3648274.874 2
  23163787.146    11600928.411 7   9039684.431 4
  24986994.167    16203224.563 4  12625870.873 2
  21568122.903    -6288657.476 9  -4900232.666 8
 91 11  5  0 48 30.0020000  0  4 14 21 11 15
  24778755.327    -4746462.808 6  -3698545.996 2
  23181540.256    11694215.982 7   9112376.066 5
  25011363.990    16331312.877 4  12725679.767 2
  21569326.270    -6282343.568 9  -4895312.639 8
 91 11  5  0 49  0.0020000  0  4 14 21 11 15
  24766466.535    -4811042.574 6  -3748867.676 3
  23199329.636    11787719.731 7   9185236.189 4
  25035743.113    16459419.993 4  12825503.292 3
  21570637.558    -6275457.332 9  -4889946.646 8
 91 11  5  0 49 30.0030000  0  4 14 21 11 15
  24754166.647    -4875690.020 6  -3799242.491 1
  23217173.587    11881441.521 7   9258266.154 3
  25060133.329    16587545.393 4  12925341.049 1
  21572057.075    -6267998.910 9  -4884134.803 8
 91 11  5  0 50  0.0030000  0  4 14 21 11 15
  24741850.275    -4940399.427 6  -3849665.634 1
  23235046.309    11975374.822 7   9331460.906 3
  25084501.058    16715676.614 4  13025183.812 2
  21573584.519    -6259967.861 9  -4877876.757 7
 91 11  5  0 50 30.0030000  0  3 14 21 15
  24729521.312    -5005173.837 6  -3900138.989 2
  23252968.206    12069521.226 7   9404821.805 3
  21575221.088    -6251364.549 9  -4871172.793 7
 91 11  5  0 51  0.0030000  0  3 14 21 15
  24717185.151    -5070014.456 6  -3950664.291 2
  23270921.278    12163877.420 7   9478346.080 3
  21576964.382    -6242190.664 9  -4864024.221 8
 91 11  5  0 51 30.0030000  0  3 14 21 15
  24704829.201    -5134916.068 6  -4001237.183 3
  23288919.319    12258448.227 7   9552037.612 3
  21578820.989    -6232441.183 9  -4856427.142 8
 91 11  5  0 52  0.0030000  0  3 14 21 15
  24692469.055    -5199881.344 6  -4051859.653 1
  23306950.935    12353229.330 7   9625893.054 2
  21580787.035    -6222119.336 9  -4848384.067 8
 91 11  5  0 52 30.0030000  0  3 14 21 15
  24680094.225    -5264908.163 6  -4102530.123 2
  23325026.917    12448221.663 7   9699913.045 5
  21582858.001    -6211222.769 9  -4839893.155 8
 91 11  5  0 53  0.0030000  0  3 14 21 15
  24667711.602    -5329998.618 6  -4153250.147 2
  23343134.982    12543421.767 6   9774094.909 3
  21585041.686    -6199754.344 9  -4830956.648 8
 91 11  5  0 53 30.0030000  0  4 14 21 11 15
  24655308.284    -5395147.735 6  -4204015.869 1
  23361297.614    12638832.970 6   9848441.301 3
  25255167.215       21347.11214     16615.571 2
  21587334.802    -6187709.238 9  -4821570.769 8
 91 11  5  0 54  0.0030000  0  4 14 21 11 15
  24642903.771    -5460353.674 6  -4254825.910 2
  23379496.210    12734455.822 6   9922952.639 3
  25279547.533      149409.683 4    116404.400 2
  21589736.440    -6175086.544 9  -4811734.825 8
 91 11  5  0 54 30.0030000  0  4 14 21 11 15
  24630480.071    -5525618.775 6  -4305682.011 2
  23397732.586    12830287.193 6   9997626.391 2
  25303909.870      277445.695 5    216172.624 1
  21592247.501    -6161888.414 9  -4801450.494 8
 91 11  5  0 55  0.0030000  0  4 14 21 11 15
  24618052.776    -5590939.986 6  -4356581.819 2
  23416001.341    12926328.005 6  10072463.399 3
  25328270.705      405452.784 4    315918.276 1
  21594868.584    -6148113.103 9  -4790716.420 8
 91 11  5  0 55 30.0030000  0  4 14 21 11 15
  24605610.788    -5656316.940 6  -4407525.041 3
  23434318.355    13022577.454 6  10147462.988 3
  25352616.245      533426.746 4    415638.029 1
  21597600.294    -6133760.572 9  -4779532.564 9
 91 11  5  0 56  0.0030000  0  4 14 21 11 15
  24593165.206    -5721749.760 6  -4458511.466 2
  23452677.049    13119033.825 6  10222623.795 4
  25376961.795      661362.923 4    515328.346 2
  21600439.025    -6118831.321 9  -4767899.311 8
 91 11  5  0 56 30.0030000  0  4 14 21 11 15
  24580700.131    -5787236.934 6  -4509540.573 2
  23471068.418    13215697.093 6  10297945.807 3
  25401307.937      789258.036 5    614986.764 1
  21603392.283    -6103324.477 9  -4755815.988 8
 91 11  5  0 57  0.0030000  0  3 14 21 15
  24568229.665    -5852778.068 6  -4560611.773 2
  23489507.452    13312566.241 6  10373428.285 2
  21606453.164    -6087240.137 9  -4743282.679 8
 91 11  5  0 57 30.0030000  0  3 14 21 15
  24555748.405    -5918373.169 6  -4611725.023 2
  23507971.370    13409639.661 6  10449069.912 2
  21609621.374    -6070578.940 9  -4730299.869 8
 91 11  5  0 58  0.0030000  0  3 14 21 15
  24543252.156    -5984022.792 6  -4662880.366 2
  23526485.353    13506916.068 6  10524869.724 3
  21612901.997    -6053342.574 9  -4716868.861 8
 91 11  5  0 58 30.0030000  0  3 14 21 15
  24530749.319    -6049727.235 6  -4714078.787 2
  23545039.210    13604393.287 6  10600826.060 2
  21616291.754    -6035531.824 9  -4702990.289 9
 91 11  5  0 59  0.0030000  0  3 14 21 15
  24518234.782    -6115484.095 6  -4765317.655 2
  23563624.844    13702071.607 6  10676939.013 3
  21619789.432    -6017145.710 9  -4688663.388 8
 91 11  5  0 59 30.0030000  0  3 14 21 15
  24505707.655    -6181292.454 6  -4816597.120 2
  23582247.952    13799950.235 6  10753208.045 3
  21623398.329    -5998183.833 9  -4673887.836 8
 91 11  5  1  0  0.0030000  0  3 14 21 15
  24493179.027    -6247150.267 6  -4867915.094 2
  23600912.129    13898030.224 6  10829634.091 2
  21627116.657    -5978644.307 9  -4658662.168 8
 91 11  5  1  0 30.0030000  0  3 14 21 15
  24480636.604    -6313057.706 6  -4919271.706 1
  23619615.577    13996309.684 6  10906215.467 4
  21630943.507    -5958528.650 9  -4642987.572 8
 91 11  5  1  1  0.0030000  0  3 14 21 15
  24468092.096    -6379008.157 6  -4970661.525 3
  23638355.009    14094793.449 6  10982956.062 2
  21634884.577    -5937831.760 9  -4626860.069 8
 91 11  5  1  1 30.0030000  0  3 14 21 15
  24455526.291    -6445003.989 6  -5022087.066 2
  23657135.509    14193478.100 6  11059853.239 3
  21638932.679    -5916556.736 9  -4610282.064 8
 91 11  5  1  2  0.0030000  0  3 14 21 15
  24442962.291    -6511040.793 6  -5073544.076 1
  23675962.470    14292365.872 6  11136908.655 3
  21643090.804    -5894700.451 9  -4593251.131 9
 91 11  5  1  2 30.0030000  0  3 14 21 15
  24430387.193    -6577119.324 6  -5125033.610 4
  23694812.222    14391454.523 6  11214120.610 2
  21647360.445    -5872264.071 9  -4575768.192 9
 91 11  5  1  3  0.0030000  0  3 14 21 15
  24417802.811    -6643235.482 6  -5176552.887 1
  23713706.043    14490746.479 6  11291491.029 1
  21651741.610    -5849244.687 9  -4557830.945 8
 91 11  5  1  3 30.0030000  0  3 14 21 15
  24405216.624    -6709387.277 6  -5228099.504 2
  23732635.839    14590241.599 6  11369019.643 1
  21656231.900    -5825642.234 9  -4539439.376 9
 91 11  5  1  4  0.0030000  0  3 14 21 15
  24392619.940    -6775573.955 7  -5279673.735 3
  23751607.306    14689939.242 6  11446706.182 2
  21660832.816    -5801457.073 9  -4520593.743 8
 91 11  5  1  4 30.0030000  0  3 14 21 15
  24380019.966    -6841789.906 6  -5331270.773 3
  23770617.747    14789843.665 6  11524553.800 2
  21665547.655    -5776684.429 9  -4501290.334 9
 91 11  5  1  5  0.0030000  0  3 14 21 15
  24367413.091    -6908037.826 6  -5382892.732 2
  23789673.455    14889950.183 6  11602558.885 2
  21670371.611    -5751328.387 9  -4481532.318 9
 91 11  5  1  5 30.0030000  0  3 14 21 15
  24354808.014    -6974313.437 7  -5434536.286 2
  23808763.932    14990261.247 6  11680723.394 2
  21675309.193    -5725385.992 9  -4461317.417 8
 91 11  5  1  6  0.0030000  0  3 14 21 15
  24342187.955    -7040615.092 6  -5486200.114 3
  23827886.797    15090776.762 6  11759047.200 2
  21680358.300    -5698856.554 9  -4440645.078 8
 91 11  5  1  6 30.0030000  0  3 14 21 15
  24329564.590    -7106939.501 6  -5537881.672 2
  23847056.428    15191498.386 6  11837531.614 2
  21685517.431    -5671738.428 9  -4419514.015 8
 91 11  5  1  7  0.0030000  0  3 14 21 15
  24316930.144    -7173286.526 6  -5589580.880 1
  23866265.628    15292423.996 6  11916174.932 2
  21690789.875    -5644032.903 9  -4397925.243 8
 91 11  5  1  7 30.0030000  0  3 14 21 15
  24304303.183    -7239659.405 6  -5641300.210 3
  23885501.212    15393548.541 6  11994973.333 3
  21696173.555    -5615744.828 9  -4375882.532 8
 91 11  5  1  8  0.0030000  0  3 14 21 15
  24291674.121    -7306052.788 6  -5693035.505 3
  23904791.058    15494875.478 6  12073929.394 2
  21701669.047    -5586870.708 9  -4353383.171 9
 91 11  5  1  8 30.0030000  0  3 14 21 15
  24279034.570    -7372471.078 7  -5744790.264
  23924104.889    15596398.692 6  12153038.451 4
  21707272.469    -5557416.410 9  -4330431.711 8
 91 11  5  1  9  0.0030000  0  3 14 21 15
  24266395.622    -7438906.048 7  -5796557.982 1
  23943461.290    15698124.693 6  12232305.470 3
  21712988.009    -5527374.846 9  -4307022.650 8
 91 11  5  1  9 30.0030000  0  3 14 21 15
  24253746.482    -7505355.346 6  -5848336.860 2
  23962860.558    15800053.890 6  12311730.845 2
  21718816.574    -5496745.671 9  -4283155.718 8
 91 11  5  1 10  0.0030000  0  3 14 21 15
  24241096.741    -7571818.445 6  -5900126.045 2
  23982288.609    15902184.612 6  12391313.258 2
  21724758.460    -5465529.655 9  -4258831.492 8
 91 11  5  1 10 30.0030000  0  3 14 21 15
  24228443.396    -7638296.388 6  -5951926.800 4
  24001765.827    16004513.879 6  12471050.342 4
  21730810.073    -5433729.876 9  -4234052.394 8
 91 11  5  1 11  0.0030000  0  3 14 21 15
  24215794.554    -7704787.315 6  -6003738.117 3
  24021267.920    16107041.740 6  12550942.202 2
  21736969.913    -5401346.144 9  -4208818.270 8
 91 11  5  1 11 30.0030000  0  3 14 21 15
  24203140.912    -7771288.713 6  -6055557.127 2
  24040823.384    16209769.298 6  12630989.671 3
  21743247.559    -5368376.843 9  -4183127.861 9
 91 11  5  1 12  0.0030000  0  3 14 21 15
  24190484.880    -7837796.075 7  -6107381.289 2
  24060412.126    16312698.595 6  12711194.313 2
  21749630.744    -5334819.815 9  -4156979.470 9
 91 11  5  1 12 30.0030000  0  3 14 21 15
  24177826.736    -7904307.087 7  -6159208.242 1
  24080033.840    16415829.443 6  12791556.094 1
  21756130.540    -5300675.303 9  -4130373.318 8
 91 11  5  1 13  0.0030000  0  3 14 21 15
  24165170.102    -7970821.489 7  -6211037.476 3
  24099693.325    16519160.477 6  12872073.796 2
  21762738.571    -5265944.526 9  -4103310.330 8
 91 11  5  1 13 30.0030000  0  3 14 21 15
  24152508.364    -8037336.647 7  -6262867.690 2
  24119394.787    16622692.036 6  12952747.691 1
  21769458.414    -5230626.913 9  -4075790.063 9
 91 11  5  1 14  0.0030000  0  3 14 21 15
  24139849.330    -8103851.845 7  -6314697.490 2
  24139137.021    16726422.886 6  13033577.022 2
  21776292.190    -5194723.816 9  -4047813.590 9
 91 11  5  1 14 30.0030000  0  3 14 21 15
  24127199.283    -8170365.648 7  -6366526.210 1
  24158915.831    16830352.763 6  13114561.315 3
  21783233.878    -5158235.404 9  -4019381.021 9
 91 11  5  1 15  0.0030000  0  3 14 21 15
  24114542.352    -8236872.063 7  -6418349.601 3
  24178735.413    16934485.027 6  13195703.337 2
  21790291.592    -5121157.881 9  -3990489.414 9
 91 11  5  1 15 30.0030000  0  3 14 21 15
  24101886.015    -8303372.519 7  -6470167.947 2
  24198590.366    17038816.660 6  13277000.807 1
  21797455.735    -5083494.380 9  -3961141.201 8
 91 11  5  1 16  0.0030000  0  3 14 21 15
  24089237.172    -8369864.380 7  -6521980.013 3
  24218472.298    17143347.547 6  13358453.387 2
  21804734.396    -5045244.917 9  -3931336.396 9
 91 11  5  1 16 30.0030000  0  3 14 21 15
  24076584.429    -8436348.307 7  -6573785.453 1
  24238403.998    17248075.517 6  13440059.608 1
  21812125.776    -5006411.928 9  -3901076.893 8
 91 11  5  1 17  0.0030000  0  3 14 21 15
  24063932.585    -8502823.732 7  -6625584.730 3
  24258368.085    17352998.610 6  13521817.926 2
  21819625.391    -4966997.604 9  -3870364.406 9
 91 11  5  1 17 30.0030000  0  3 14 21 15
  24051281.945    -8569290.183 7  -6677377.016 3
  24278371.732    17458115.169 6  13603726.902 2
  21827236.521    -4927003.340 9  -3839200.018 9
 91 11  5  1 18  0.0030000  0  3 14 21 15
  24038639.097    -8635743.544 7  -6729158.655 2
  24298416.754    17563426.859 6  13685787.938 2
  21834959.176    -4886427.925 9  -3807582.779 8
 91 11  5  1 18 30.0030000  0  3 14 21 15
  24025995.053    -8702181.317 7  -6780928.545 2
  24318494.756    17668934.007 6  13768001.379 2
  21842788.548    -4845270.599 9  -3775512.111 9
 91 11  5  1 19  0.0030000  0  3 14 21 15
  24013352.798    -8768600.949 7  -6832684.338 2
  24338606.935    17774637.126 6  13850367.421 3
  21850733.955    -4803530.833 9  -3742987.593 9
 91 11  5  1 19 30.0030000  0  3 14 21 15
  24000719.250    -8835002.695 7  -6884425.756 3
  24358758.080    17880534.391 6  13932884.753 1
  21858785.773    -4761210.838 9  -3710010.943 8
 91 11  5  1 20  0.0030000  0  3 14 21 15
  23988085.092    -8901385.583 7  -6936152.905 3
  24378945.504    17986623.414 6  14015551.619 2
  21866949.727    -4718312.882 9  -3676583.940 9
 91 11  5  1 20 30.0030000  0  3 14 21 15
  23975455.436    -8967744.623 7  -6987861.481 2
  24399166.205    18092906.756 6  14098369.748 2
  21875220.397    -4674834.646 9  -3642704.766 8
 91 11  5  1 21  0.0030000  0  3 14 21 15
  23962838.073    -9034079.076 7  -7039550.453 2
  24419427.985    18199383.624 6  14181338.720 1
  21883607.391    -4630777.615 9  -3608374.588 8
 91 11  5  1 21 30.0030000  0  3 14 21 15
  23950219.210    -9100386.161 7  -7091218.060 3
  24439732.622    18306053.937 6  14264458.535 2
  21892098.719    -4586142.010 9  -3573593.571 9
 91 11  5  1 22  0.0030000  0  3 14 21 15
  23937611.733    -9166662.628 7  -7142861.851 3
  24460067.247    18412919.346 6  14347730.238 1
  21900702.462    -4540926.310 9  -3538360.535 7
 91 11  5  1 22 30.0030000  0  3 14 21 15
  23925003.061    -9232906.193 7  -7194480.455 3
  24480444.137    18519979.279 6  14431153.544 3
  21909417.126    -4495131.114 9  -3502675.941 8
 91 11  5  1 23  0.0030000  0  3 14 21 15
  23912401.587    -9299115.387 7  -7246071.820 2
  24500853.711    18627232.583 5  14514727.620 2
  21918242.417    -4448757.646 9  -3466540.748 8
 91 11  5  1 23 30.0030000  0  3 14 21 15
  23899804.309    -9365289.098 7  -7297635.509 2
  24521295.664    18734678.236 5  14598451.437 2
  21927175.934    -4401807.652 9  -3429956.317 8
 91 11  5  1 24  0.0030000  0  3 14 21 15
  23887222.624    -9431425.953 7  -7349170.487 3
  24541782.874    18842315.338 5  14682324.520 2
  21936222.170    -4354282.764 9  -3392923.916 8
 91 11  5  1 24 30.0030000  0  3 14 21 15
  23874643.329    -9497523.044 7  -7400674.511 2
  24562296.172    18950144.272 5  14766347.100 1
  21945375.429    -4306181.970 9  -3355442.758 8
 91 11  5  1 25  0.0030000  0  3 14 21 15
  23862076.624    -9563578.551 7  -7452146.095 3
  24582863.740    19058164.727 6  14850518.825 2
  21954636.923    -4257506.987 9  -3317514.183 8
 91 11  5  1 25 30.0030000  0  3 14 21 15
  23849511.726    -9629596.940 7  -7503588.829 1
  24603433.097    19166369.467 5  14934834.209 2
  21964008.135    -4208265.169 9  -3279143.914 8
 91 11  5  1 26  0.0030000  0  3 14 21 15
  23836954.619    -9695563.978 7  -7554991.454 3
  24624063.312    19274769.768 6  15019301.987 2
  21973487.573    -4158445.085 9  -3240323.051 8
 91 11  5  1 26 30.0040000  0  3 14 21 15
  23824414.905    -9761484.789 7  -7606358.125 2
  24644730.707    19383364.322 6  15103921.132 3
  21983077.334    -4108050.550 9  -3201054.566 8
 91 11  5  1 27  0.0040000  0  3 14 21 15
  23811878.476    -9827353.516 7  -7657684.167 4
  24665442.170    19492144.751 6  15188685.100 1
  21992775.921    -4057086.423 9  -3161342.241 8
 91 11  5  1 27 30.0040000  0  3 14 21 15
  23799352.248    -9893171.230 7  -7708970.479 2
  24686175.812    19601113.458 6  15273595.815 2
  22002583.327    -4005552.512 9  -3121185.934 8
 91 11  5  1 28  0.0040000  0  3 14 21 15
  23786839.813    -9958933.507 7  -7760213.600 3
  24706950.235    19710272.237 6  15358654.564 3
  22012498.663    -3953447.815 9  -3080584.848 9
 91 11  5  1 28 30.0040000  0  3 14 21 15
  23774335.467   -10024639.390 7  -7811412.746 3
  24727756.426    19819619.149 6  15443859.968 3
  22022519.826    -3900774.779 9  -3039540.898 8
 91 11  5  1 29  0.0040000  0  3 14 21 15
  23761844.017   -10090286.896 7  -7862566.462 2
  24748593.208    19929153.936 6  15529211.825 2
  22032652.216    -3847534.400 9  -2998054.870 8
 91 11  5  1 29 30.0040000  0  3 14 21 15
  23749363.656   -10155871.988 7  -7913671.477 3
  24769471.050    20038877.540 6  15614710.763 3
  22042890.722    -3793725.548 9  -2956125.863 8
 91 11  5  1 30  0.0040000  0  3 14 21 15
  23736892.893   -10221393.149 7  -7964726.735 3
  24790395.963    20148789.194 6  15700356.201 2
  22053237.165    -3739349.990 9  -2913755.270 8
 91 11  5  1 30 30.0040000  0  3 14 21 15
  23724435.915   -10286850.699 7  -8015732.387 3
  24811344.566    20258885.966 6  15786145.970 1
  22063694.819    -3684411.336 9  -2870945.902 8
 91 11  5  1 31  0.0040000  0  3 14 21 15
  23711994.224   -10352241.372 7  -8066685.974 2
  24832333.635    20369169.016 6  15872080.813 2
  22074255.612    -3628909.280 9  -2827697.525 8
 91 11  5  1 31 30.0040000  0  3 14 21 15
  23699564.530   -10417564.196 7  -8117587.128 3
  24853354.482    20479635.786 5  15958158.937 2
  22084924.030    -3572846.246 9  -2784012.019 7
 91 11  5  1 32  0.0040000  0  3 14 21 15
  23687148.325   -10482814.243 7  -8168431.139 2
  24874406.503    20590288.638 5  16044381.918 2
  22095699.766    -3516220.635 9  -2739888.140 8
 91 11  5  1 32 30.0040000  0  3 14 21 15
  23674742.014   -10547991.487 7  -8219218.384 4
  24895492.709    20701125.431 5  16130748.350 2
  22106581.634    -3459035.153 9  -2695327.996 9
 91 11  5  1 33  0.0040000  0  3 14 21 15
  23662355.788   -10613090.504 7  -8269944.690 3
  24916618.484    20812148.244 5  16217259.691 3
  22117570.228    -3401288.862 9  -2650330.866 8
 91 11  5  1 33 30.0040000  0  3 14 21 15
  23649981.560   -10678111.508 7  -8320610.210 4
  24937783.530    20923354.783 5  16303914.123 1
  22128666.447    -3342984.392 9  -2604898.793 8
 91 11  5  1 34  0.0040000  0  3 14 21 15
  23637625.017   -10743048.171 7  -8371209.993 4
  24958980.353    21034748.897 5  16390714.882 2
  22139866.686    -3284118.692 9  -2559029.392 8
 91 11  5  1 34 30.0040000  0  3 14 21 15
  23625281.658   -10807898.369 7  -8421742.443 4
  24980213.761    21146329.696 5  16477660.938 3
  22151174.863    -3224693.059 9  -2512723.683 8
 91 11  5  1 35  0.0040000  0  3 14 21 15
  23612961.987   -10872659.125 7  -8472205.190 2
  25001493.926    21258096.493 5  16564752.128 2
  22162589.461    -3164709.302 9  -2465983.084 8
 91 11  5  1 35 30.0040000  0  3 14 21 15
  23600654.008   -10937328.948 7  -8522597.062 4
  25022782.790    21370048.882 5  16651987.722 3
  22174105.985    -3104168.607 9  -2418808.498 8
 91 11  5  1 36  0.0040000  0  3 14 21 15
  23588366.115   -11001906.214 7  -8572916.862 3
  25044129.807    21482185.083 5  16739366.638 1
  22185735.831    -3043073.195 9  -2371201.677 7
 91 11  5  1 36 30.0040000  0  3 14 21 15
  23576095.610   -11066386.322 7  -8623160.913 4
  25065507.712    21594506.932 5  16826890.208 2
  22197468.214    -2981422.211 9  -2323161.932 8
 91 11  5  1 37  0.0040000  0  3 14 21 15
  23563844.589   -11130767.592 7  -8673327.988 2
  25086911.389    21707013.600 5  16914557.712 1
  22209307.620    -2919217.113 9  -2274690.407 7
 91 11  5  1 37 30.0040000  0  3 14 21 15
  23551613.356   -11195045.447 7  -8723414.442 3
  25108354.348    21819706.664 5  17002370.674 2
  22221246.849    -2856457.385 9  -2225786.716 7
 91 11  5  1 38  0.0040000  0  3 14 21 15
  23539402.514   -11259219.247 7  -8773419.857 4
  25129832.381    21932583.927 5  17090326.987 1
  22233297.010    -2793146.036 9  -2176453.178 8
 91 11  5  1 38 30.0040000  0  3 14 21 15
  23527207.551   -11323285.602 7  -8823341.507 3
  25151348.482    22045645.525 5  17178427.063 1
  22245448.495    -2729283.257 9  -2126689.958 7
 91 11  5  1 39  0.0040000  0  3 14 21 15
  23515040.178   -11387242.457 7  -8873177.874 4
  25172905.365    22158890.649 5  17266670.052 2
  22257708.512    -2664870.532 9  -2076498.202 8
 91 11  5  1 39 30.0040000  0  3 14 21 15
  23502888.692   -11451083.560 7  -8922924.005 3
  25194481.721    22272323.244 5  17355059.151 1
  22270068.955    -2599905.388 9  -2025875.988 8
 91 11  5  1 40  0.0040000  0  3 14 21 15
  23490762.684   -11514808.244 7  -8972579.436 5
  25216115.943    22385941.014 5  17443592.557 1
  22282535.522    -2534391.112 9  -1974825.889 8
 91 11  5  1 40 30.0040000  0  3 14 21 15
  23478659.763   -11578413.029 8  -9022141.417 2
  25237763.662    22499744.044 5  17532270.414 1
  22295107.322    -2468328.546 9  -1923348.535 7
 91 11  5  1 41  0.0040000  0  3 14 21 15
  23466579.326   -11641897.580 8  -9071609.726 4
  25259457.537    22613729.941 5  17621090.567 2
  22307781.947    -2401720.563 9  -1871446.181 7
 91 11  5  1 41 30.0040000  0  3 14 21 15
  23454522.569   -11705255.597 8  -9120979.431 1
  25281176.305    22727902.061 5  17710055.981 2
  22320560.898    -2334564.803 9  -1819116.988 8
 91 11  5  1 42  0.0040000  0  3 14 21 15
  23442492.197   -11768485.174 8  -9170249.042 5
  25302928.045    22842259.146 5  17799165.429 2
  22333442.379    -2266863.948 9  -1766363.053 8
 91 11  5  1 42 30.0040000  0  3 14 21 15
  23430482.216   -11831585.141 8  -9219417.654 4
  25324740.948    22956799.326 5  17888417.754 1
  22346426.990    -2198620.081 9  -1713185.977 7
 91 11  5  1 43  0.0040000  0  3 14 21 15
  23418498.610   -11894553.199 8  -9268483.479 5
  25346563.737    23071521.484 5  17977811.568 2
  22359518.928    -2129835.525 9  -1659587.593 7
 91 11  5  1 43 30.0040000  0  3 14 21 15
  23406544.984   -11957387.620 8  -9317445.166 4
  25368449.791    23186424.331 5  18067346.350 2
  22372709.792    -2060512.710 9  -1605569.793 7
 91 11  5  1 44  0.0040000  0  3 14 21 15
  23394613.250   -12020084.699 8  -9366299.839 4
  25390328.342    23301508.908 5  18157022.718 2
  22386003.194    -1990651.425 9  -1551132.391 7
 91 11  5  1 44 30.0040000  0  3 14 21 15
  23382703.694   -12082646.650 8  -9415049.208 3
  25412271.354    23416770.020 5  18246836.614 2
  22399400.921    -1920257.731 9  -1496280.124 8
 91 11  5  1 45  0.0040000  0  3 14 21 15
  23370825.017   -12145070.775 8  -9463691.192 4
  25434237.147    23532207.322 5  18336787.859 3
  22412896.972    -1849333.759 9  -1441014.664 7
 91 11  5  1 45 30.0040000  0  3 14 21 15
  23358972.716   -12207356.565 8  -9512225.349 4
  25456232.919    23647818.511 5  18426874.623 1
  22426496.162    -1777882.604 9  -1385338.415 8
 91 11  5  1 46  0.0040000  0  3 14 21 15
  23347148.308   -12269499.868 8  -9560648.523 5
  25478270.956    23763604.292 5  18517097.331 2
  22440188.580    -1705904.727 9  -1329251.717 8
 91 11  5  1 46 30.0040000  0  3 14 21 15
  23335350.574   -12331498.054 8  -9608958.581 4
  25500338.982    23879563.594 5  18607455.400 2
  22453984.434    -1633401.647 9  -1272755.784 7
 91 11  5  1 47  0.0040000  0  3 14 21 15
  23323580.123   -12393349.089 8  -9657153.993 5
  25522433.086    23995696.157 5  18697948.333 1
  22467882.512    -1560375.579 9  -1215852.317 7
 91 11  5  1 47 30.0040000  0  3 14 21 15
  23311838.447   -12455048.982 8  -9705231.613 4
  25544567.667    24112002.264 4  18788576.621 1
  22481881.016    -1486827.233 9  -1158541.883 7
 91 11  5  1 48  0.0040000  0  3 14 21 15
  23300125.861   -12516596.981 8  -9753190.877 3
  25566720.831    24228480.060 4  18879338.578 2
  22495974.265    -1412759.386 9  -1100826.648 6
 91 11  5  1 48 30.0040000  0  3 14 21 15
  23288442.050   -12577990.945 8  -9801030.106 4
  25588937.847    24345127.855 4  18970233.098 1
  22510164.939    -1338174.190 9  -1042708.284 7
 91 11  5  1 49  0.0040000  0  3 14 21 15
  23276789.711   -12639227.565 8  -9848746.739 4
  25611152.768    24461945.937 4  19061260.202 1
  22524459.643    -1263072.697 9   -984187.607 8
 91 11  5  1 49 30.0040000  0  3 14 21 15
  23265166.758   -12700306.576 8  -9896340.546 5
  25633426.147    24578931.301 4  19152417.560 2
  22538848.778    -1187459.272 9   -925268.019 7
 91 11  5  1 50  0.0040000  0  3 14 21 15
  23253574.386   -12761226.249 8  -9943810.198 4
  25655717.212    24696082.555 4  19243704.501 2
  22553332.651    -1111336.790 9   -865951.766 8
 91 11  5  1 50 30.0040000  0  3 14 21 15
  23242010.188   -12821981.962 8  -9991152.106 5
  25678034.069    24813401.121 4  19335121.739 1
  22567917.255    -1034704.745 9   -806238.451 7
 91 11  5  1 51  0.0040000  0  3 14 21 15
  23230480.777   -12882573.135 8 -10038365.776 5
  25700386.594    24930884.643 4  19426667.326 2
  22582595.392     -957566.632 9   -746130.789 7
 91 11  5  1 51 30.0040000  0  3 14 21 15
  23218980.438   -12942997.342 8 -10085449.375 4
  25722772.998    25048531.621 5  19518340.552 2
  22597369.165     -879925.448 9   -685631.128 7
 91 11  5  1 52  0.0040000  0  3 14 21 15
  23207516.674   -13003251.170 8 -10132400.191 4
  25745203.770    25166342.752 5  19610141.377 2
  22612238.269     -801781.519 8   -624739.735 6
 91 11  5  1 52 30.0040000  0  3 14 21 15
  23196083.187   -13063332.767 8 -10179216.819 4
  25767654.025    25284316.230 5  19702068.919 1
  22627203.611     -723138.163 8   -563459.161 7
 91 11  5  1 53  0.0040000  0  3 14 21 15
  23184683.876   -13123239.766 8 -10225897.387 5
  25790134.259    25402451.317 5  19794122.250 2
  22642264.588     -643997.808 8   -501791.322 7
 91 11  5  1 53 30.0040000  0  3 14 21 15
  23173319.046   -13182969.741 8 -10272440.033 5
  25812633.383    25520746.813 5  19886300.336
  22657419.692     -564361.667 8   -439737.161 7
 91 11  5  1 54  0.0040000  0  3 14 21 15
  23161986.892   -13242518.991 8 -10318841.824 5
  25835175.679    25639203.236 5  19978604.001 2
  22672666.541     -484230.779 8   -377297.477 7
 91 11  5  1 54 30.0040000  0  3 14 21 15
  23150688.313   -13301883.988 8 -10365100.048 5
  25857753.652    25757820.994 5  20071033.579 1
  22688010.517     -403606.021 8   -314472.959 7
 91 11  5  1 55  0.0040000  0  3 14 21 15
  23139428.708   -13361065.685 8 -10411215.459 5
  25880358.900    25876595.997 5  20163585.581 1
  22703441.134     -322493.330 8   -251268.226 7
 91 11  5  1 55 30.0040000  0  3 14 21 15
  23128202.076   -13420057.807 8 -10457183.132 4
  25902995.933    25995530.472 5  20256261.979 1
  22718971.880     -240891.390 8   -187682.272 7
 91 11  5  1 56  0.0040000  0  3 14 21 15
  23117012.027   -13478858.886 8 -10503001.972 5
  25925647.048    26114622.739 5  20349061.177 1
  22734594.964     -158803.372 8   -123717.551 7
 91 11  5  1 56 30.0040000  0  3 14 21 15
  23105857.944   -13537466.761 8 -10548670.256 5
  25948340.141    26233871.415 5  20441982.378 2
  22750307.393      -76231.465 8    -59375.767 6
 91 11  5  1 57  0.0040000  0  3 14 21 15
  23094741.047   -13595881.343 8 -10594187.940 6
  25971066.501    26353273.528 5  20535023.054 3
  22766111.846        6819.777 8      5339.516 7
 91 11  5  1 57 30.0040000  0  3 14 21 15
  23083664.609   -13654098.741 8 -10639551.950 5
  25993815.356    26472829.348 5  20628183.553 2
  22782002.346       90349.099 8     70427.324 7
 91 11  5  1 58  0.0040000  0  2 14 15
  23072620.261   -13712118.234 8 -10684761.774 6
  22797990.576      174352.564 8    135884.606 7
 91 11  5  1 58 30.0040000  0  2 14 15
  23061622.375   -13769937.432 8 -10729815.519 6
  22814069.948      258827.124 8    201708.972 7
 91 11  5  1 59  0.0040000  0  2 14 15
  23050656.562   -13827552.946 8 -10774710.555 5
  22830234.154      343772.115 8    267899.898 7
 91 11  5  1 59 30.0040000  0  2 14 15
  23039732.429   -13884964.732 8 -10819446.850 5
  22846481.406      429182.208 8    334453.252 6
 91 11  5  2  0  0.0040000  0  2 14 15
  23028844.863   -13942168.076 8 -10864020.714 6
  22862825.795      515057.048 8    401368.739 6
 91 11  5  2  0 30.0040000  0  2 14 15
  23018001.071   -13999158.142 9 -10908428.377 5
  22879255.324      601396.717 8    468646.429 6
 91 11  5  2  1  0.0040000  0  2 14 15
  23007196.245   -14055934.263 8 -10952669.337 6
  22895773.290      688197.047 8    536283.077 7
 91 11  5  2  1 30.0040000  0  2 14 15
  22996431.904   -14112495.178 9 -10996742.598 5
  22912376.395      775454.766 8    604276.135 6
 91 11  5  2  2  0.0040000  0  2 14 15
  22985710.124   -14168840.207 9 -11040647.639 6
  22929065.243      863165.600 8    672622.262 5
 91 11  5  2  2 30.0040000  0  2 14 15
  22975029.421   -14224967.200 8 -11084382.795 5
  22945846.724      951326.874 8    741319.378 5
 91 11  5  2  3  0.0040000  0  2 14 15
  22964392.179   -14280869.420 8 -11127942.785 6
  22962707.046     1039939.493 8    810368.192 7
 91 11  5  2  3 30.0040000  0  2 14 15
  22953797.515   -14336542.797 8 -11171324.476 6
  22979656.713     1129002.536 8    879768.001 7
 91 11  5  2  4  0.0040000  0  2 14 15
  22943248.422   -14391985.576 8 -11214526.472 6
  22996684.923     1218513.384 8    949516.733 6
 91 11  5  2  4 30.0040000  0  2 14 15
  22932741.297   -14447194.116 8 -11257545.953 6
  23013813.569     1308470.121 8   1019612.905 6
 91 11  5  2  5  0.0040000  0  2 14 15
  22922280.336   -14502168.836 9 -11300383.229 5
  23031005.471     1398867.672 8   1090052.594 6
 91 11  5  2  5 30.0040000  0  2 14 15
  22911863.743   -14556906.288 9 -11343035.634 6
  23048300.495     1489704.359 8   1160834.446 6
 91 11  5  2  6  0.0040000  0  2 14 15
  22901493.628   -14611402.089 9 -11385499.724 6
  23065662.973     1580980.333 8   1231958.601 5
 91 11  5  2  6 30.0040000  0  2 14 15
  22891169.076   -14665654.877 9 -11427774.455 5
  23083112.990     1672690.571 8   1303421.142 7
 91 11  5  2  7  0.0040000  0  2 14 15
  22880892.189   -14719660.766 9 -11469856.798 5
  23100646.655     1764833.521 8   1375220.868 6
 91 11  5  2  7 30.0040000  0  2 14 15
  22870662.069   -14773418.548 9 -11511745.815 6
  23118264.857     1857405.728 8   1447355.072 6
 91 11  5  2  8  0.0040000  0  2 14 15
  22860479.317   -14826925.602 9 -11553439.444 6
  23135963.706     1950404.082 8   1519821.347 6
 91 11  5  2  8 30.0050000  0  2 14 15
  22850344.539   -14880182.232 9 -11594937.958 6
  23153737.497     2043828.276 8   1592619.443 7
 91 11  5  2  9  0.0050000  0  2 14 15
  22840259.517   -14933183.678 9 -11636237.629 6
  23171600.334     2137668.682 8   1665741.846 6
 91 11  5  2  9 30.0050000  0  2 14 15
  22830222.466   -14985928.152 9 -11677337.040 6
  23189537.518     2231926.752 8   1739189.718 6
 91 11  5  2 10  0.0050000  0  2 14 15
  22820233.979   -15038413.545 9 -11718234.587 6
  23207550.845     2326599.581 8   1812960.774 6
 91 11  5  2 10 30.0050000  0  2 14 15
  22810296.760   -15090636.809 9 -11758927.881 6
  23225640.927     2421684.439 8   1887052.883 5
 91 11  5  2 11  0.0050000  0  2 14 15
  22800408.403   -15142596.043 9 -11799415.449 6
  23243814.343     2517177.531 8   1961463.105 6
 91 11  5  2 11 30.0050000  0  2 14 15
  22790570.720   -15194284.852 9 -11839692.289 6
  23262067.507     2613080.105 8   2036192.392 6
 91 11  5  2 12  0.0050000  0  2 14 15
  22780788.791   -15245698.119 9 -11879754.445 6
  23280395.619     2709392.363 8   2111240.917 6
 91 11  5  2 12 30.0050000  0  2 14 15
  22771056.621   -15296835.841 9 -11919601.889 6
  23298792.685     2806109.012 7   2186604.552 7
 91 11  5  2 13  0.0050000  0  2 14 15
  22761380.528   -15347695.446 9 -11959232.597 6
  23317277.587     2903227.652 7   2262281.426 6
 91 11  5  2 13 30.0050000  0  2 14 15
  22751755.084   -15398274.521 9 -11998644.732 6
  23335841.033     3000745.078 8   2338269.040 6
 91 11  5  2 14  0.0050000  0  2 14 15
  22742182.715   -15448569.788 9 -12037835.711 6
  23354466.244     3098659.078 8   2414565.671 6
 91 11  5  2 14 30.0050000  0  2 14 15
  22732666.404   -15498580.285 9 -12076804.802 6
  23373181.087     3196965.014 8   2491167.719 5
 91 11  5  2 15  0.0050000  0  3 14 18 15
  22723204.949   -15548303.441 9 -12115549.993 6
  26147915.571    -1127422.407 5   -878511.018 2
  23391961.579     3295660.305 8   2568073.143 6
 91 11  5  2 15 30.0050000  0  3 14 18 15
  22713796.864   -15597737.340 9 -12154069.779 7
  26136679.052    -1186464.403 6   -924518.002 1
  23410804.141     3394741.273 7   2645279.114 6
 91 11  5  2 16  0.0050000  0  3 14 18 15
  22704446.942   -15646879.223 9 -12192362.035 6
  26125452.725    -1245437.718 6   -970471.138 2
  23429745.026     3494205.849 8   2722783.990 6
 91 11  5  2 16 30.0050000  0  3 14 18 15
  22695151.577   -15695726.081 9 -12230424.382 7
  26114250.384    -1304342.539 6  -1016371.016 2
  23448729.982     3594051.580 7   2800585.884 5
 91 11  5  2 17  0.0050000  0  3 14 18 15
  22685911.669   -15744274.629 9 -12268254.296 7
  26103049.534    -1363178.158 5  -1062216.972 2
  23467807.877     3694276.094 7   2878682.921 6
 91 11  5  2 17 30.0050000  0  3 14 18 15
  22676730.822   -15792520.921 9 -12305848.688 6
  26091862.775    -1421943.155 5  -1108007.890 1
  23486952.022     3794877.394 7   2957073.542 6
 91 11  5  2 18  0.0050000  0  3 14 18 15
  22667608.738   -15840466.359 9 -12343208.630 6
  26080696.110    -1480640.826 6  -1153746.297 2
  23506160.620     3895849.379 7   3035753.046 6
 91 11  5  2 18 30.0050000  0  3 14 18 15
  22658541.221   -15888106.004 9 -12380330.307 7
  26069539.331    -1539268.930 6  -1199430.593 1
  23525455.867     3997190.780 7   3114720.382 5
 91 11  5  2 19  0.0050000  0  3 14 18 15
  22649534.850   -15935436.698 9 -12417211.222 7
  26058396.652    -1597826.252 6  -1245059.459 3
  23544805.366     4098900.147 7   3193974.438 6
 91 11  5  2 19 30.0050000  0  3 14 18 15
  22640585.453   -15982459.480 9 -12453852.232 7
  26047264.154    -1656315.761 5  -1290635.943 2
  23564230.722     4200970.745 7   3273509.998 5
 91 11  5  2 20  0.0050000  0  3 14 18 15
  22631696.600   -16029170.547 9 -12490250.341 7
  26036151.446    -1714736.553 5  -1336158.797 2
  23583723.828     4303400.328 7   3353325.261 5
 91 11  5  2 20 30.0050000  0  3 14 18 15
  22622869.215   -16075568.230 9 -12526404.259 7
  26025045.638    -1773089.054 6  -1381628.520 1
  23603278.987     4406185.846 7   3433417.881 6
 91 11  5  2 21  0.0050000  0  3 14 18 15
  22614099.687   -16121651.765 9 -12562313.392 7
  26013950.013    -1831375.027 5  -1427046.067 1
  23622912.401     4509322.398 7   3513784.031 6
 91 11  5  2 21 30.0050000  0  3 14 18 15
  22605389.219   -16167415.452 9 -12597973.285 7
  26002875.084    -1889590.905 5  -1472409.185 1
  23642594.973     4612810.159 7   3594423.870 5
 91 11  5  2 22  0.0050000  0  3 14 18 15
  22596742.601   -16212858.428 9 -12633383.279 7
  25991810.041    -1947738.187 5  -1517718.811 2
  23662360.590     4716644.108 7   3675333.446 5
 91 11  5  2 22 30.0050000  0  3 14 18 15
  22588157.146   -16257976.127 9 -12668539.816 6
  25980756.392    -2005815.004 5  -1562973.581 2
  23682181.664     4820823.465 7   3756512.191 5
 91 11  5  2 23  0.0050000  0  3 14 18 15
  22579634.041   -16302768.127 9 -12703442.544 7
  25969718.938    -2063823.102 5  -1608174.878 2
  23702073.796     4925343.802 7   3837956.613 5
 91 11  5  2 23 30.0050000  0  3 14 18 15
  22571171.506   -16347233.040 9 -12738090.405 7
  25958685.680    -2121762.814 5  -1653322.949 2
  23722027.082     5030200.802 7   3919663.377 5
 91 11  5  2 24  0.0050000  0  3 14 18 15
  22562772.821   -16391365.140 9 -12772478.952 7
  25947680.892    -2179631.844 5  -1698415.427 1
  23742047.524     5135394.278 7   4001632.329 5
 91 11  5  2 24 30.0050000  0  3 14 18 15
  22554439.783   -16435162.248 9 -12806606.449 6
  25936676.409    -2237430.094 5  -1743453.153 1
  23762120.423     5240920.713 7   4083860.719 6
 91 11  5  2 25  0.0050000  0  3 14 18 15
  22546169.410   -16478625.010 9 -12840473.425 8
  25925689.316    -2295159.732 5  -1788437.070 2
  23782278.172     5346774.252 7   4166343.989 5
 91 11  5  2 25 30.0050000  0  3 14 18 15
  22537962.293   -16521749.868 9 -12874077.090 6
  25914720.214    -2352819.793 5  -1833367.129 1
  23802473.091     5452953.049 7   4249080.735 5
 91 11  5  2 26  0.0050000  0  3 14 18 15
  22529821.426   -16564535.088 9 -12907416.120 7
  25903764.897    -2410411.249 5  -1878243.799 2
  23822740.856     5559452.693 7   4332067.477 5
 91 11  5  2 26 30.0050000  0  3 14 18 15
  22521742.918   -16606978.180 9 -12940488.557 7
  25892817.076    -2467934.383 5  -1923067.155 2
  23843067.385     5666269.955 7   4415301.695 5
 91 11  5  2 27  0.0050000  0  3 14 18 15
  22513733.966   -16649075.494 9 -12973291.551 7
  25881884.244    -2525387.295 5  -1967835.826 2
  23863452.973     5773403.590 7   4498782.455 4
 91 11  5  2 27 30.0050000  0  3 14 18 15
  22505788.271   -16690826.331 9 -13005824.581 7
  25870960.111    -2582772.089 5  -2012551.026 3
  23883903.922     5880848.975 7   4582506.135 4
 91 11  5  2 28  0.0050000  0  3 14 18 15
  22497910.318   -16732225.837 9 -13038083.832 8
  25860057.852    -2640086.018 5  -2057211.392 1
  23904403.425     5988605.343 7   4666472.132 5
 91 11  5  2 28 30.0050000  0  3 14 18 15
  22490098.632   -16773272.935 9 -13070068.475 7
  25849171.193    -2697330.055 5  -2101817.361 1
  23924973.986     6096667.984 7   4750676.788 5
 91 11  5  2 29  0.0050000  0  3 14 18 15
  22482355.586   -16813963.788 9 -13101775.542 7
  25838280.329    -2754502.910 5  -2146367.840 1
  23945586.812     6205034.928 7   4835118.564 3
 91 11  5  2 29 30.0050000  0  3 14 18 15
  22474678.502   -16854298.560 9 -13133205.144 7
  25827418.851    -2811606.496 5  -2190864.380 2
  23966278.791     6313701.032 7   4919793.431 6
 91 11  5  2 30  0.0050000  0  3 14 18 15
  22467071.569   -16894276.865 9 -13164356.965 7
  25816560.366    -2868643.701 5  -2235309.150 1
  23986997.444     6422660.524 6   5004696.938 5
 91 11  5  2 30 30.0050000  0  3 14 18 15
  22459531.190   -16933895.442 9 -13195228.496 7
  25805721.669    -2925612.988 5  -2279700.995 2
  24007797.649     6531911.043 7   5089827.203 5
 91 11  5  2 31  0.0050000  0  3 14 18 15
  22452062.462   -16973151.542 9 -13225817.578 8
  25794893.469    -2982514.713 5  -2324039.762 4
  24028633.523     6641449.785 7   5175182.078 5
 91 11  5  2 31 30.0050000  0  3 14 18 15
  22444660.586   -17012042.541 9 -13256122.144 7
  25784077.553    -3039347.567 5  -2368325.350 2
  24049534.155     6751273.914 7   5260759.300 5
 91 11  5  2 32  0.0050000  0  3 14 18 15
  22437331.259   -17050568.076 9 -13286141.945 8
  25773274.830    -3096113.955 5  -2412558.651 3
  24070480.350     6861378.532 7   5346555.119 5
 91 11  5  2 32 30.0050000  0  3 14 18 15
  22430067.291   -17088725.682 9 -13315875.049 7
  25762482.900    -3152814.171 5  -2456740.876 1
  24091491.607     6971760.164 7   5432566.755 5
 91 11  5  2 33  0.0050000  0  3 14 18 15
  22422879.163   -17126509.538 9 -13345316.904 8
  25751709.267    -3209444.281 5  -2500868.445 1
  24112555.625     7082418.650 7   5518794.123 4
 91 11  5  2 33 30.0050000  0  3 14 18 15
  22415759.989   -17163921.760 9 -13374469.183 7
  25740947.011    -3266009.047 6  -2544944.675 2
  24133667.309     7193346.783 7   5605231.633 4
 91 11  5  2 34  0.0050000  0  3 14 18 15
  22408712.771   -17200958.390 9 -13403328.799 7
  25730193.759    -3322505.504 6  -2588968.123 2
  24154807.175     7304543.687 6   5691878.568 5
 91 11  5  2 34 30.0050000  0  3 14 18 15
  22401734.804   -17237615.153 9 -13431892.397 8
  25719455.488    -3378932.842 6  -2632937.305 1
  24176014.791     7416007.146 6   5778733.196 5
 91 11  5  2 35  0.0050000  0  3 14 18 15
  22394832.379   -17273890.828 9 -13460159.062 8
  25708737.312    -3435291.583 6  -2676852.993 3
  24197286.266     7527733.274 7   5865792.519 4
 91 11  5  2 35 30.0050000  0  3 14 18 15
  22388001.613   -17309785.929 9 -13488129.177 7
  25698022.127    -3491584.895 5  -2720717.722
  24218597.318     7639715.649 7   5953051.491 4
 91 11  5  2 36  0.0050000  0  3 14 18 15
  22381244.287   -17345293.868 9 -13515797.600 7
  25687321.933    -3547808.529 6  -2764528.104 3
  24239962.326     7751955.110 7   6040510.799 5
 91 11  5  2 36 30.0050000  0  3 14 18 15
  22374562.511   -17380414.382 9 -13543164.134 8
  25676631.642    -3603964.087 6  -2808285.502 1
  24261365.402     7864446.920 7   6128166.764 4
 91 11  5  2 37  0.0050000  0  3 14 18 15
  22367952.090   -17415145.026 9 -13570226.880 7
  25665964.725    -3660051.284 6  -2851989.662 1
  24282819.756     7977188.157 7   6216017.058 4
 91 11  5  2 37 30.0050000  0  3 14 18 15
  22361418.711   -17449484.979 9 -13596985.192 8
  25655299.902    -3716072.232 6  -2895642.159 2
  24304330.159     8090173.477 7   6304057.548 5
 91 11  5  2 38  0.0050000  0  3 14 18 15
  22354958.186   -17483431.335 9 -13623436.801 8
  25644652.181    -3772025.980 6  -2939242.276 2
  24325870.551     8203399.927 7   6392285.933 3
 91 11  5  2 38 30.0050000  0  3 14 18 15
  22348574.103   -17516980.496 9 -13649578.925 8
  25634012.844    -3827911.149 5  -2982788.938 2
  24347467.298     8316865.989 7   6480701.044 3
 91 11  5  2 39  0.0050000  0  3 14 18 15
  22342265.875   -17550132.327 9 -13675411.432 7
  25623392.694    -3883729.507 6  -3026283.606 2
  24369106.022     8430566.268 7   6569298.631 3
 91 11  5  2 39 30.0050000  0  3 14 18 15
  22336032.884   -17582881.235 9 -13700929.975 8
  25612782.141    -3939477.881 6  -3069723.677 3
  24390773.818     8544500.703 7   6658078.702 3
 91 11  5  2 40  0.0050000  0  3 14 18 15
  22329878.149   -17615224.892 9 -13726132.738 7
  25602191.369    -3995156.795 6  -3113109.653 2
  24412497.079     8658666.363 6   6747038.951 4
 91 11  5  2 40 30.0050000  0  3 14 18 15
  22323801.957   -17647160.858 9 -13751017.808 8
  25591609.600    -4050765.416 6  -3156440.785 3
  24434258.111     8773059.980 6   6836176.819 3
 91 11  5  2 41  0.0050000  0  3 14 18 15
  22317803.104   -17678688.243 9 -13775584.508 8
  25581039.515    -4106304.681 5  -3199717.971 2
  24456084.503     8887677.001 7   6925488.761 4
 91 11  5  2 41 30.0050000  0  3 14 18 15
  22311878.310   -17709803.758 9 -13799830.284 8
  25570483.826    -4161774.066 6  -3242941.097 2
  24477938.179     9002514.922 7   7014972.830 3
 91 11  5  2 42  0.0050000  0  3 14 18 15
  22306037.155   -17740505.433 9 -13823753.574 8
  25559937.726    -4217173.326 6  -3286109.093 2
  24499819.426     9117570.437 6   7104626.497 3
 91 11  5  2 42 30.0050000  0  3 14 18 15
  22300274.840   -17770790.811 9 -13847352.482 8
  25549416.806    -4272502.321 6  -3329222.448 3
  24521764.837     9232840.633 7   7194447.400 3
 91 11  5  2 43  0.0050000  0  3 14 18 15
  22294591.078   -17800655.380 9 -13870623.501 8
  25538895.887    -4327759.270 5  -3372279.981 1
  24543741.720     9348324.188 7   7284434.549 4
 91 11  5  2 43 30.0050000  0  3 14 18 15
  22288989.453   -17830097.065 9 -13893564.984 8
  25528397.155    -4382944.322 6  -3415281.100 1
  24565742.893     9464017.250 6   7374585.001 3
 91 11  5  2 44  0.0050000  0  3 14 18 15
  22283467.576   -17859115.918 9 -13916176.997 8
  25517916.118    -4438058.772 6  -3458227.203 2
  24587814.810     9579915.452 7   7464895.235 3
 91 11  5  2 44 30.0050000  0  3 14 18 15
  22278024.242   -17887707.660 9 -13938456.204 9
  25507433.868    -4493101.383 6  -3501117.776 2
  24609904.421     9696016.596 6   7555363.652 2
 91 11  5  2 45  0.0050000  0  3 14 18 15
  22272669.050   -17915870.026 9 -13960400.815 8
  25496978.605    -4548071.917 6  -3543951.803 3
  24632031.498     9812317.552 6   7645987.759 4
 91 11  5  2 45 30.0050000  0  3 14 18 15
  22267390.603   -17943604.678 9 -13982012.153 8
  25486512.855    -4602973.480 5  -3586732.405 2
  24654208.944     9928811.925 7   7736762.574 3
 91 11  5  2 46  0.0050000  0  3 14 18 15
  22262193.405   -17970906.567 9 -14003286.288 8
  25476086.969    -4657803.681 6  -3629457.138 2
  24676407.375    10045498.941 6   7827687.510 4
 91 11  5  2 46 30.0050000  0  3 14 18 15
  22257080.142   -17997773.045 9 -14024221.121 8
  25465673.377    -4712560.833 6  -3672125.247 2
  24698650.478    10162375.984 7   7918760.490 4
 91 11  5  2 47  0.0050000  0  3 14 18 15
  22252052.027   -18024198.499 9 -14044812.313 8
  25455265.186    -4767242.753 6  -3714734.770 2
  24720920.560    10279443.004 6   8009981.547 4
 91 11  5  2 47 30.0050000  0  3 14 18 15
  22247108.450   -18050181.432 9 -14065058.670 8
  25444875.876    -4821849.631 6  -3757285.418 2
  24743242.206    10396695.964 7   8101347.444 4
 91 11  5  2 48  0.0050000  0  3 14 18 15
  22242247.614   -18075722.450 9 -14084960.686 8
  25434501.564    -4876383.991 6  -3799779.895 2
  24765587.542    10514128.839 6   8192853.560 4
 91 11  5  2 48 30.0050000  0  3 14 18 15
  22237471.315   -18100818.187 9 -14104515.724 8
  25424128.440    -4930844.655 5  -3842216.590 2
  24787970.648    10631740.076 6   8284498.668 4
 91 11  5  2 49  0.0050000  0  3 14 18 15
  22232781.961   -18125466.634 9 -14123722.226 8
  25413779.605    -4985231.476 6  -3884596.166 2
  24810376.832    10749525.797 6   8376279.737 5
 91 11  5  2 49 30.0050000  0  3 14 18 15
  22228175.950   -18149664.396 9 -14142577.553 8
  25403450.254    -5039543.946 6  -3926917.766 2
  24832824.391    10867483.581 6   8468194.848 5
 91 11  5  2 50  0.0060000  0  3 14 18 15
  22223656.583   -18173407.711 9 -14161078.755 8
  25393122.704    -5093780.986 6  -3969180.593 2
  24855309.724    10985617.075 6   8560246.883 4
 91 11  5  2 50 30.0060000  0  3 14 18 15
  22219228.049   -18196693.928 9 -14179223.781 8
  25382819.144    -5147939.532 6  -4011381.827
  24877813.045    11103913.620 6   8652426.009 4
 91 11  5  2 51  0.0060000  0  3 14 18 15
  22214885.553   -18219520.618 9 -14197010.746 8
  25372529.667    -5202019.843 6  -4053522.468 2
  24900358.944    11222375.682 6   8744734.079 3
 91 11  5  2 51 30.0060000  0  4 13 14 18 15
  27424806.298       22529.697 5     17555.435 1
  22210627.299   -18241889.507 9 -14214440.971 8
  25362256.078    -5256026.253 6  -4095605.608 2
  24922933.009    11340995.896 6   8837165.372 5
 91 11  5  2 52  0.0060000  0  3 14 18 15
  22206459.585   -18263794.694 9 -14231509.878 8
  25351991.180    -5309954.683 6  -4137627.504 2
  24945536.162    11459775.273 6   8929720.689 4
 91 11  5  2 52 30.0060000  0  3 14 18 15
  22202379.113   -18285237.434 9 -14248218.447 8
  25341744.874    -5363808.790 6  -4179591.942 2
  24968163.004    11578707.181 6   9022394.894 4
 91 11  5  2 53  0.0060000  0  3 14 18 15
  22198387.079   -18306213.063 9 -14264563.025 9
  25331512.956    -5417584.825 6  -4221495.562 2
  24990829.406    11697790.910 6   9115187.382 4
 91 11  5  2 53 30.0060000  0  3 14 18 15
  22194484.678   -18326721.063 9 -14280543.226 8
  25321284.939    -5471284.825 6  -4263339.935
  25013513.503    11817021.550 6   9208094.334 4
 91 11  5  2 54  0.0060000  0  3 14 18 15
  22190669.223   -18346760.264 9 -14296158.124 9
  25311083.001    -5524909.655 6  -4305125.292 3
  25036234.175    11936394.647 6   9301112.301 4
 91 11  5  2 54 30.0060000  0  3 14 18 15
  22186947.894   -18366326.455 9 -14311404.453 8
  25300889.761    -5578457.099 6  -4346850.796 2
  25058964.139    12055909.362 6   9394240.616 2
 91 11  5  2 55  0.0060000  0  3 14 18 15
  22183313.808   -18385419.557 9 -14326282.131 9
  25290721.999    -5631928.535 6  -4388516.657 2
  25081750.468    12175560.731 6   9487475.426 3
 91 11  5  2 55 30.0060000  0  3 14 18 15
  22179772.365   -18404036.094 9 -14340788.468 9
  25280551.838    -5685322.722 6  -4430122.255 2
  25104540.086    12295346.844 6   9580815.203 2
 91 11  5  2 56  0.0060000  0  3 14 18 15
  22176318.757   -18422173.794 9 -14354921.681 9
  25270416.455    -5738639.084 6  -4471667.281 2
  25127360.294    12415264.862 6   9674257.825 3
 91 11  5  2 56 30.0060000  0  3 14 18 15
  22172957.479   -18439830.881 9 -14368680.386 8
  25260275.077    -5791877.604 6  -4513151.618 4
  25150194.881    12535311.789 6   9767800.838 3
 91 11  5  2 57  0.0060000  0  3 14 18 15
  22169690.345   -18457006.277 9 -14382063.753 9
  25250164.875    -5845039.259 6  -4554576.069 2
  25173072.343    12655482.263 6   9861440.116 3
 91 11  5  2 57 30.0060000  0  3 14 18 15
  22166515.243   -18473699.385 9 -14395071.305 9
  25240065.169    -5898124.759 6  -4595941.222 2
  25195960.895    12775772.678 6   9955172.880 2
 91 11  5  2 58  0.0060000  0  3 14 18 15
  22163430.978   -18489906.815 9 -14407700.404 9
  25229969.057    -5951132.997 6  -4637246.162 2
  25218870.143    12896180.851 6  10048997.417 3
 91 11  5  2 58 30.0060000  0  3 14 18 15
  22160438.745   -18505629.916 9 -14419952.097 9
  25219894.532    -6004066.593 6  -4678492.939 2
  25241808.158    13016701.076 6  10142909.225 3
 91 11  5  2 59  0.0060000  0  3 14 18 15
  22157539.156   -18520874.174 9 -14431830.672 9
  25209837.692    -6056933.704 6  -4719687.918 2
  25264768.064    13137321.726 6  10236899.294 4
 91 11  5  2 59 30.0060000  0  3 14 18 15
  22154731.896   -18535622.284 9 -14443322.643 9
  25199788.950    -6109718.460 6  -4760818.720 3
  25287740.263    13258055.089 6  10330977.233 1
 91 11  5  3  0  0.0060000  0  3 14 18 15
  22152014.583   -18549878.435 9 -14454431.259 9
  25189764.192    -6162426.514 6  -4801889.771 2
  25310733.447    13378892.453 6  10425136.177 3
 91 11  5  3  0 30.0060000  0  3 14 18 15
  22149399.188   -18563640.778 9 -14465155.102 9
  25179748.125    -6215057.609 6  -4842900.823 3
  25333745.214    13499830.141 6  10519373.279 3
 91 11  5  3  1  0.0060000  0  3 14 18 15
  22146874.342   -18576905.942 9 -14475491.532 9
  25169752.439    -6267610.288 6  -4883850.789 2
  25356771.972    13620867.167 6  10613687.802 4
 91 11  5  3  1 30.0060000  0  3 14 18 15
  22144443.919   -18589674.719 9 -14485441.171 8
  25159763.656    -6320087.510 6  -4924741.952 2
  25379826.912    13741997.068 6  10708074.719 2
 91 11  5  3  2  0.0060000  0  3 14 18 15
  22142109.438   -18601942.734 9 -14495000.610 9
  25149791.659    -6372486.006 6  -4965571.779 1
  25402896.239    13863219.424 6  10802533.625 3
 91 11  5  3  2 30.0060000  0  3 14 18 15
  22139869.092   -18613707.016 9 -14504167.533 9
  25139838.552    -6424804.851 6  -5006339.496 2
  25425979.963    13984531.772 6  10897062.662 4
 91 11  5  3  3  0.0060000  0  3 14 18 15
  22137727.374   -18624967.106 9 -14512941.588 9
  25129897.433    -6477044.339 6  -5047045.382 2
  25449086.163    14105930.058 6  10991658.659 2
 91 11  5  3  3 30.0060000  0  3 14 18 15
  22135683.386   -18635718.431 9 -14521319.191 9
  25119967.108    -6529202.289 6  -5087687.751 3
  25472200.163    14227413.458 6  11086320.991 3
 91 11  5  3  4  0.0060000  0  3 14 18 15
  22133734.136   -18645960.314 9 -14529299.838 9
  25110061.370    -6581279.221 6  -5128266.996 2
  25495335.444    14348978.022 6  11181046.583 5
 91 11  5  3  4 30.0060000  0  3 14 18 15
  22131882.912   -18655688.609 9 -14536880.279 9
  25100158.319    -6633272.809 6  -5168781.287 3
  25518478.821    14470622.646 6  11275834.529 3
 91 11  5  3  5  0.0060000  0  3 14 18 15
  22130129.732   -18664904.630 9 -14544061.553 9
  25090290.657    -6685185.931 6  -5209232.899 2
  25541644.386    14592341.269 6  11370680.144 3
 91 11  5  3  5 30.0060000  0  3 14 18 15
  22128475.173   -18673607.519 9 -14550842.974 8
  25080423.283    -6737019.732 6  -5249622.662 3
  25564821.347    14714130.100 6  11465580.453 4
 91 11  5  3  6  0.0060000  0  3 14 18 15
  22126912.959   -18681797.630 9 -14557224.839 9
  25070568.203    -6788775.262 6  -5289951.448 2
  25588005.497    14835984.290 6  11560531.691 4
 91 11  5  3  6 30.0060000  0  3 14 18 15
  22125449.366   -18689475.147 9 -14563207.270 9
  25060742.805    -6840454.234 6  -5330220.588 4
  25611205.832    14957898.380 6  11655529.605 3
 91 11  5  3  7  0.0060000  0  3 14 18 15
  22124092.210   -18696623.729 9 -14568777.545 8
  25050928.803    -6892042.284 6  -5370418.891 2
  25634426.252    15079883.846 6  11750583.157 3
 91 11  5  3  7 30.0060000  0  3 14 18 15
  22122829.181   -18703252.318 9 -14573942.639 9
  25041125.593    -6943549.810 6  -5410554.447
  25657643.383    15201926.992 6  11845681.623 3
 91 11  5  3  8  0.0060000  0  3 14 18 15
  22121669.291   -18709361.606 9 -14578703.084 8
  25031333.465    -6994978.582 6  -5450628.616 2
  25680874.901    15324022.414 6  11940820.834 3
 91 11  5  3  8 30.0060000  0  3 14 18 15
  22120604.426   -18714949.257 9 -14583057.050 9
  25021568.925    -7046327.531 6  -5490640.623 2
  25704122.605    15446167.614 6  12035998.807 4
 91 11  5  3  9  0.0060000  0  3 14 18 15
  22119642.387   -18720013.464 9 -14587003.140 8
  25011804.385    -7097596.482 6  -5530590.250 3
  25727370.308    15568359.659 6  12131213.301 4
 91 11  5  3  9 30.0060000  0  3 14 18 15
  22118778.392   -18724551.435 9 -14590539.180 9
  25002060.236    -7148784.093 6  -5570476.537 4
  25750632.408    15690596.595 6  12226462.745 2
 91 11  5  3 10  0.0060000  0  3 14 18 15
  22118012.415   -18728568.202 9 -14593669.082 9
  24992341.258    -7199897.210 7  -5610304.770 3
  25773900.799    15812868.387 5  12321739.382 2
 91 11  5  3 10 30.0060000  0  3 14 18 15
  22117349.280   -18732056.943 9 -14596387.544 9
  24982627.987    -7250929.791 6  -5650070.255 3
  25797179.686    15935177.144 6  12417044.817 3
 91 11  5  3 11  0.0060000  0  3 14 18 15
  22116786.563   -18735016.601 9 -14598693.727 8
  24972930.299    -7301882.325 7  -5689773.337 2
  25820464.864    16057519.809 6  12512376.681 3
 91 11  5  3 11 30.0060000  0  3 14 18 15
  22116327.282   -18737442.718 9 -14600584.170 9
  24963250.899    -7352750.803 7  -5729410.954 3
  25843745.549    16179896.646 6  12607735.139 3
 91 11  5  3 12  0.0060000  0  3 14 18 15
  22115966.036   -18739333.202 9 -14602057.237 9
  24953586.489    -7403535.121 6  -5768983.023 2
  25867039.722    16302304.097 6  12703117.460 2
 91 11  5  3 12 30.0060000  0  3 14 18 15
  22115707.311   -18740687.272 9 -14603112.322 9
  24943932.574    -7454236.219 6  -5808490.174 2
  25890337.490    16424738.484 5  12798520.796 3
 91 11  5  3 13  0.0060000  0  3 14 18 15
  22115551.419   -18741504.825 9 -14603749.337 8
  24934308.936    -7504854.438 7  -5847932.786 2
  25913637.065    16547195.428 5  12893941.630 2
 91 11  5  3 13 30.0060000  0  3 14 18 15
  22115497.463   -18741783.233 9 -14603966.244 9
  24924692.191    -7555388.730 7  -5887309.987 2
  25936946.228    16669673.682 5  12989379.159 2
 91 11  5  3 14  0.0060000  0  3 14 18 15
  22115547.824   -18741520.538 9 -14603761.510 9
  24915091.038    -7605838.448 7  -5926621.308 3
  25960260.190    16792170.408 5  13084831.042 2
 91 11  5  3 14 30.0060000  0  3 14 18 15
  22115703.114   -18740715.490 9 -14603134.168 8
  24905506.977    -7656203.235 7  -5965866.401 3
  25983573.847    16914682.803 5  13180295.132 3
 91 11  5  3 15  0.0060000  0  3 14 18 15
  22115957.643   -18739362.657 9 -14602079.970 8
  24895937.897    -7706478.590 7  -6005041.865 2
  26006893.201    17037211.315 5  13275771.814 2
 91 11  5  3 15 30.0060000  0  3 14 18 15
  22116320.991   -18737461.555 9 -14600598.556 9
  24886385.909    -7756664.962 7  -6044147.936 3
  26030205.366    17159751.726 5  13371257.718 2
 91 11  5  3 16  0.0060000  0  3 14 18 15
  22116785.970   -18735012.810 9 -14598690.415 8
  24876853.414    -7806764.471 7  -6083186.378 4
  26053529.213    17282298.937 5  13466748.934 2
 91 11  5  3 16 30.0060000  0  3 14 18 15
  22117357.072   -18732014.073 9 -14596353.694 8
  24867339.503    -7856776.223 7  -6122156.394 2
  26076849.169    17404850.974 5  13562243.842 1
 91 11  5  3 17  0.0060000  0  3 14 18 15
  22118034.306   -18728460.799 9 -14593584.877 9
  24857839.980    -7906696.312 7  -6161055.007 4
  26100170.626    17527408.585 5  13657743.158 2
 91 11  5  3 17 30.0060000  0  3 14 18 15
  22118816.460   -18724356.275 9 -14590386.507 9
  24848354.844    -7956528.696 7  -6199885.245 3
  26123483.088    17649963.896 5  13753240.686 4
 91 11  5  3 18  0.0060000  0  3 14 18 15
  22119702.948   -18719698.837 9 -14586757.300 8
  24838886.199    -8006273.329 7  -6238647.165 3
  26146812.336    17772514.258 5  13848734.301 2
 91 11  5  3 18 30.0060000  0  3 14 18 15
  22120691.067   -18714489.265 9 -14582697.852 9
  24829436.435    -8055931.825 7  -6277341.923 3
  26170132.894    17895054.627 5  13944220.151 4
 91 11  5  3 19  0.0060000  0  3 14 18 15
  22121788.302   -18708726.482 9 -14578207.334 9
  24820003.772    -8105503.736 7  -6315969.204 3
  26193449.849    18017581.498 5  14039695.471 3
 91 11  5  3 19 30.0060000  0  3 14 18 15
  22122990.770   -18702411.854 9 -14573286.812 9
  24810587.591    -8154991.816 7  -6354531.208 2
  26216759.012    18140089.983 5  14135156.484 5
 91 11  5  3 20  0.0060000  0  3 14 18 15
  22124293.970   -18695543.428 9 -14567934.746 9
  24801184.000    -8204394.173 7  -6393026.371 2
  26240070.880    18262577.662 5  14230601.275 3
 91 11  5  3 20 30.0060000  0  3 14 18 15
  22125709.592   -18688120.685 9 -14562150.758 9
  24791799.596    -8253711.797 7  -6431455.537 1
  26263372.243    18385041.147 5  14326027.206 5
 91 11  5  3 21  0.0060000  0  3 14 18 15
  22127227.735   -18680144.927 9 -14555935.846 9
  24782428.680    -8302946.544 7  -6469820.112 1
  26286665.518    18507474.882 6  14421429.931 3
 91 11  5  3 21 30.0060000  0  3 14 18 15
  22128850.815   -18671611.192 9 -14549286.134 8
  24773075.154    -8352094.541 7  -6508117.136 3
  26309962.990    18629879.766 5  14516810.235 2
 91 11  5  3 22  0.0060000  0  3 14 18 15
  22130579.119   -18662515.956 9 -14542198.907 8
  24763746.818    -8401152.715 7  -6546344.132 2
  26333255.069    18752254.772 6  14612167.196 3
 91 11  5  3 22 30.0060000  0  3 14 18 15
  22132419.847   -18652859.192 9 -14534674.119 9
  24754428.366    -8450122.869 7  -6584502.548 4
  26356533.049    18874595.400 5  14707497.405 3
 91 11  5  3 23  0.0060000  0  3 14 18 15
  22134362.798   -18642641.091 9 -14526711.924 8
  24745123.404    -8499005.032 7  -6622592.426 2
  26379808.935    18996897.948 5  14802797.934 2
 91 11  5  3 23 30.0060000  0  3 14 18 15
  22136415.475   -18631860.580 9 -14518311.495 9
  24735839.731    -8547798.705 7  -6660613.322 4
  26403072.230    19119159.547 5  14898066.561 3
 91 11  5  3 24  0.0060000  0  3 14 18 15
  22138572.785   -18620520.498 9 -14509475.036 9
  24726566.555    -8596507.189 7  -6698567.882 3
  26426330.133    19241373.873 5  14993298.334 3
 91 11  5  3 24 30.0060000  0  3 14 18 15
  22140839.219   -18608617.027 9 -14500199.587 8
  24717313.158    -8645127.745 7  -6736453.880 3
  26449570.045    19363540.167 5  15088492.680 3
 91 11  5  3 25  0.0060000  0  3 14 18 15
  22143211.175   -18596149.579 9 -14490484.656 9
  24708080.152    -8693660.794 7  -6774271.715 4
  26472818.648    19485654.937 5  15183646.860 2
 91 11  5  3 25 30.0060000  0  3 14 18 15
  22145691.959   -18583118.278 9 -14480330.365 9
  24698859.736    -8742106.509 7  -6812021.476 4
  26496038.771    19607715.018 5  15278758.463 3
 91 11  5  3 26  0.0060000  0  3 14 18 15
  22148278.866   -18569523.141 9 -14469736.727 9
  24689658.803    -8790465.433 7  -6849703.582 2
  26519249.908    19729716.686 5  15373824.495 4
 91 11  5  3 26 30.0060000  0  3 14 18 15
  22150973.703   -18555361.488 9 -14458701.641 9
  24680474.361    -8838735.668 7  -6887316.646 3
  26542467.335    19851657.629 5  15468843.235 2
 91 11  5  3 27  0.0060000  0  3 14 18 15
  22153775.257   -18540632.392 9 -14447224.406 9
  24671305.807    -8886917.331 7  -6924860.649 3
  26565655.682    19973534.976 4  15563812.433 4
 91 11  5  3 27 30.0060000  0  3 14 18 15
  22156685.648   -18525336.586 9 -14435305.568 9
  24662152.243    -8935010.857 7  -6962335.965 3
  26588839.230    20095344.765 4  15658728.945 2
 91 11  5  3 28  0.0060000  0  3 14 18 15
  22159706.054   -18509465.174 9 -14422938.214 9
  24653021.469    -8983008.054 7  -6999736.225 2
  26612002.090    20217092.444 5  15753597.083 2
 91 11  5  3 28 30.0060000  0  3 14 18 15
  22162834.992   -18493023.067 9 -14410126.150 9
  24643904.481    -9030914.182 7  -7037065.525 3
  26635158.067    20338769.213 4  15848409.975 3
 91 11  5  3 29  0.0060000  0  3 14 18 15
  22166069.747   -18476006.836 9 -14396866.720 9
  24634804.881    -9078726.238 7  -7074321.509 2
  26658302.945    20460374.613 4  15943167.282 2
 91 11  5  3 29 30.0070000  0  3 14 18 15
  22169421.728   -18458416.165 9 -14383159.679 9
  24625725.667    -9126446.443 7  -7111505.916 4
  26681416.041    20581909.285 4  16037869.425 2
 91 11  5  3 30  0.0070000  0  3 14 18 15
  22172878.040   -18440250.852 9 -14369004.857 9
  24616662.042    -9174070.721 7  -7148615.589 3
  26704538.129    20703362.729 5  16132508.310 2
 91 11  5  3 30 30.0070000  0  3 14 18 15
  22176441.968   -18421511.183 9 -14354402.490 9
  24607616.102    -9221601.986 7  -7185652.760 3
  26727632.646    20824734.414 5  16227083.416 2
 91 11  5  3 31  0.0070000  0  3 14 18 15
  22180119.523   -18402193.029 9 -14339349.360 9
  24598589.052    -9269036.590 7  -7222614.643 2
  26750718.464    20946024.431 5  16321595.060 2
 91 11  5  3 31 30.0070000  0  3 14 18 15
  22183903.201   -18382297.565 9 -14323846.374 9
  24589582.689    -9316375.442 7  -7259501.875 3
  26773782.094    21067228.610 5  16416039.681 1
 91 11  5  3 32  0.0070000  0  3 14 18 15
  22187802.304   -18361823.539 9 -14307892.556 9
  24580589.510    -9363617.542 7  -7296313.755 4
  26796834.634    21188344.628 5  16510415.571 1
 91 11  5  3 32 30.0070000  0  3 14 18 15
  22191808.734   -18340765.999 9 -14291484.056 9
  24571621.223    -9410758.447 7  -7333046.723 3
  26819857.500    21309373.850 5  16604724.272 2
 91 11  5  3 33  0.0070000  0  3 14 18 15
  22195926.384   -18319127.697 9 -14274623.019 8
  24562669.419    -9457800.927 7  -7369703.062 4
  26842869.870    21430310.412 5  16698960.385
 91 11  5  3 33 30.0070000  0  3 14 18 15
  22200154.057   -18296909.824 9 -14257310.353 9
  24553734.105    -9504746.001 7  -7406283.490 3
  26865866.352    21551150.212 5  16793121.090 3
 91 11  5  3 34  0.0070000  0  3 14 18 15
  22204492.652   -18274111.075 9 -14239545.079 9
  24544822.776    -9551592.867 7  -7442787.403 4
  26888843.943    21671890.395 6  16887204.184 2
 91 11  5  3 34 30.0070000  0  3 14 18 15
  22208941.568   -18250732.427 9 -14221327.928 9
  24535925.233    -9598343.067 7  -7479215.974 3
  26911803.247    21792526.643 6  16981206.301 3
 91 11  5  3 35  0.0070000  0  3 14 18 15
  22213501.117   -18226772.778 9 -14202658.040 8
  24527045.384    -9644995.007 7  -7515567.994 4
  26934737.074    21913057.156 6  17075126.429 3
 91 11  5  3 35 30.0070000  0  3 14 18 15
  22218172.183   -18202229.906 9 -14183533.699 9
  24518189.215    -9691546.428 7  -7551841.736 3
  26957657.403    22033480.842 5  17168962.813 1
 91 11  5  3 36  0.0070000  0  3 14 18 15
  22222953.272   -18177103.630 9 -14163954.756 9
  24509348.629    -9737997.475 7  -7588037.221 2
  26980554.051    22153794.168 5  17262713.274 2
 91 11  5  3 36 30.0070000  0  3 14 18 15
  22227844.080   -18151395.463 9 -14143922.388 9
  24500528.138    -9784349.161 7  -7624155.312 4
  27003421.619    22273992.798 5  17356374.389 2
 91 11  5  3 37  0.0070000  0  3 14 18 15
  22232847.624   -18125103.610 9 -14123435.204 9
  24491730.427    -9830599.962 7  -7660194.796 4
  27026268.806    22394075.677 5  17449945.271 3
 91 11  5  3 37 30.0070000  0  3 14 18 15
  22237961.777   -18098227.100 9 -14102492.445 9
  24482943.213    -9876748.954 7  -7696154.933 3
  27049093.202    22514040.482 5  17543424.127 3
 91 11  5  3 38  0.0070000  0  3 14 18 15
  22243188.065   -18070763.177 9 -14081091.957 9
  24474180.281    -9922793.959 7  -7732034.051 3
  27071906.805    22633885.846 5  17636809.921 2
 91 11  5  3 38 30.0070000  0  3 14 18 15
  22248525.563   -18042713.186 9 -14059234.787 9
  24465440.426    -9968735.015 7  -7767832.160 3
  27094690.132    22753608.161 5  17730100.255 2
 91 11  5  3 39  0.0070000  0  3 14 18 15
  22253975.789   -18014079.931 9 -14036923.137 9
  24456717.071   -10014574.336 7  -7803551.016 3
  27117450.076    22873202.075 4  17823290.111 2
 91 11  5  3 39 30.0070000  0  3 14 18 15
  22259535.446   -17984860.314 9 -14014154.584 9
  24448011.097   -10060309.231 7  -7839188.490 3
  27140186.340    22992667.435 5  17916379.784 3
 91 11  5  3 40  0.0070000  0  2 14 18
  22265207.814   -17955054.108 9 -13990928.933 9
  24439327.310   -10105939.320 7  -7874744.271 5
 91 11  5  3 40 30.0070000  0  2 14 18
  22270991.409   -17924661.308 9 -13967246.209 9
  24430667.500   -10151464.357 7  -7910218.201 4
 91 11  5  3 41  0.0070000  0  2 14 18
  22276886.233   -17893680.137 9 -13943105.012 9
  24422026.885   -10196882.729 7  -7945609.056 4
 91 11  5  3 41 30.0070000  0  2 14 18
  22282891.978   -17862112.698 9 -13918506.980 9
  24413403.650   -10242195.496 7  -7980917.571 5
 91 11  5  3 42  0.0070000  0  2 14 18
  22289012.537   -17829955.023 9 -13893449.026 9
  24404797.212   -10287398.439 7  -8016140.517 4
 91 11  5  3 42 30.0070000  0  2 14 18
  22295243.120   -17797207.057 9 -13867931.100 9
  24396218.650   -10332491.175 7  -8051277.586 2
 91 11  5  3 43  0.0070000  0  2 14 18
  22301588.534   -17763867.158 9 -13841951.932 9
  24387659.571   -10377472.316 7  -8086327.694 5
 91 11  5  3 43 30.0070000  0  2 14 18
  22308046.659   -17729934.359 9 -13815510.762 9
  24379122.087   -10422339.285 7  -8121288.851 4
 91 11  5  3 44  0.0070000  0  3 14 18 15
  22314614.816   -17695413.365 9 -13788611.255 9
  24370601.381   -10467096.898 7  -8156164.768 4
  27343593.424       90600.92214     70613.558 2
 91 11  5  3 44 30.0070000  0  3 14 18 15
  22321296.888   -17660298.858 9 -13761249.276 9
  24362109.459   -10511738.886 7  -8190950.607 4
  27366073.362      208653.139 5    162602.061 2
 91 11  5  3 45  0.0070000  0  3 14 18 15
  22328092.884   -17624596.323 9 -13733429.088 9
  24353633.130   -10556270.553 7  -8225650.475 4
  27388514.324      326547.557 5    254467.986 2
 91 11  5  3 45 30.0070000  0  3 14 18 15
  22334996.208   -17588304.154 9 -13705149.445 9
  24345178.979   -10600689.916 7  -8260262.822 5
  27410912.421      444283.393 5    346210.396 2
 91 11  5  3 46  0.0070000  0  3 14 18 15
  22342015.244   -17551423.869 9 -13676411.540 9
  24336748.822   -10644997.671 7  -8294788.224 4
  27433285.929      561856.564 5    437826.069 1
 91 11  5  3 46 30.0070000  0  3 14 18 19
  22349144.906   -17513956.608 9 -13647216.234 9
  24328338.140   -10689194.108 7  -8329226.868 3
  25908842.481     -157445.763 5   -122685.046 2
 91 11  5  3 47  0.0070000  0  3 14 18 19
  22356386.397   -17475904.166 9 -13617564.960 9
  24319949.053   -10733280.501 8  -8363579.777 4
  25896250.901     -223608.107 5   -174239.879 2
 91 11  5  3 47 30.0070000  0  3 14 18 19
  22363740.006   -17437263.599 9 -13587455.408 9
  24311581.543   -10777253.888 8  -8397844.613 4
  25883692.590     -289551.086 5   -225623.779 1
 91 11  5  3 48  0.0070000  0  3 14 18 19
  22371206.038   -17398034.004 9 -13556886.858 8
  24303237.416   -10821112.105 8  -8432019.690 5
  25871199.342     -355272.368 5   -276834.940 3
 91 11  5  3 48 30.0070000  0  3 14 18 19
  22378779.991   -17358217.850 9 -13525861.262 9
  24294912.780   -10864856.632 8  -8466106.247 4
  25858730.377     -420773.409 5   -327874.949 2
 91 11  5  3 49  0.0070000  0  3 14 18 19
  22386470.869   -17317812.586 9 -13494376.623 9
  24286609.731   -10908484.193 8  -8500101.598 5
  25846302.174     -486051.035 4   -378740.427 1
 91 11  5  3 49 30.0070000  0  3 14 18 19
  22394272.669   -17276815.849 9 -13462431.084 9
  24278329.167   -10951991.946 8  -8534003.618 6
  25833935.737     -551102.067 5   -429429.784 3
 91 11  5  3 50  0.0070000  0  3 14 18 19
  22402184.493   -17235230.936 9 -13430027.233 8
  24270074.079   -10995381.393 8  -8567813.446 5
  25821592.387     -615928.630 4   -479943.801 1
 91 11  5  3 50 30.0070000  0  3 14 18 19
  22410212.030   -17193054.611 9 -13397162.542 9
  24261838.781   -11038649.245 8  -8601528.515 2
  25809308.987     -680526.768 5   -530279.763 3
 91 11  5  3 51  0.0070000  0  3 14 18 19
  22418351.099   -17150284.021 9 -13363834.787 9
  24253628.366   -11081790.966 8  -8635145.331 5
  25797051.675     -744892.336 4   -580434.585 2
 91 11  5  3 51 30.0070000  0  3 14 18 19
  22426599.285   -17106923.920 9 -13330047.675 9
  24245444.624   -11124811.037 8  -8668667.339 4
  25784849.819     -809029.639 5   -630411.895 1
 91 11  5  3 52  0.0070000  0  3 14 18 19
  22434964.099   -17062974.363 9 -13295801.240 9
  24237280.976   -11167708.840 8  -8702094.066 5
  25772680.945     -872937.831 5   -680210.292 1
 91 11  5  3 52 30.0070000  0  3 14 18 19
  22443438.928   -17018436.321 9 -13261096.262 9
  24229141.313   -11210483.686 8  -8735424.995 4
  25760575.624     -936617.183 4   -729830.805 1
 91 11  5  3 53  0.0070000  0  3 14 18 19
  22452025.587   -16973310.558 9 -13225933.299 9
  24221023.533   -11253135.766 8  -8768660.254 4
  25748492.788    -1000066.671 5   -779271.770 3
 91 11  5  3 53 30.0070000  0  3 14 18 19
  22460724.966   -16927600.363 9 -13190314.947 9
  24212930.340   -11295666.824 8  -8801801.234 5
  25736465.417    -1063288.689 5   -828535.877 1
 91 11  5  3 54  0.0070000  0  3 14 18 19
  22469534.368   -16881305.044 9 -13154240.654 9
  24204861.420   -11338074.883 8  -8834846.350 5
  25724474.919    -1126281.490 5   -877621.029 1
 91 11  5  3 54 30.0070000  0  3 14 18 19
  22478454.387   -16834424.733 9 -13117710.513 8
  24196814.095   -11380359.230 8  -8867795.079 5
  25712539.275    -1189044.771 5   -926527.650 2
 91 11  5  3 55  0.0070000  0  3 14 18 19
  22487486.236   -16786958.878 9 -13080724.116 9
  24188791.052   -11422517.869 8  -8900645.882 5
  25700629.720    -1251576.574 5   -975253.555 4
 91 11  5  3 55 30.0070000  0  3 14 18 19
  22496632.305   -16738911.133 9 -13043284.295 9
  24180790.189   -11464553.631 8  -8933400.903 4
  25688779.827    -1313879.191 5  -1023801.275 4
 91 11  5  3 56  0.0070000  0  3 14 18 19
  22505885.100   -16690280.798 9 -13005390.507 9
  24172816.608   -11506464.862 8  -8966058.914 4
  25676958.709    -1375951.285 5  -1072168.915 1
 91 11  5  3 56 30.0070000  0  3 14 18 19
  22515247.621   -16641080.127 9 -12967052.305 9
  24164863.113   -11548261.916 8  -8998627.958 4
  25665193.659    -1437803.955 5  -1120365.590 2
 91 11  5  3 57  0.0070000  0  3 14 18 19
  22524722.261   -16591287.590 9 -12928252.907 9
  24156936.299   -11589921.929 8  -9031090.205 5
  25653470.271    -1499414.160 5  -1168373.288 2
 91 11  5  3 57 30.0070000  0  3 14 18 19
  22534309.323   -16540911.932 9 -12888999.132 8
  24149031.970   -11631452.761 8  -9063451.791 5
  25641794.557    -1560789.691 5  -1216198.163 2
 91 11  5  3 58  0.0070000  0  3 14 18 19
  22544005.807   -16489954.135 9 -12849291.737 9
  24141152.525   -11672853.597 8  -9095712.100 4
  25630154.511    -1621930.346 5  -1263840.480 2
 91 11  5  3 58 30.0070000  0  3 14 18 19
  22553814.723   -16438415.133 9 -12809131.457 9
  24133299.465   -11714124.400 8  -9127871.062 5
  25618559.138    -1682835.940 5  -1311299.162 2
 91 11  5  3 59  0.0070000  0  4 14 18 15 19
  22563730.355   -16386297.015 9 -12768519.929 9
  24125472.484   -11755265.607 8  -9159929.059 5
  28002662.863       41218.24114     32134.410 3
  25607025.522    -1743507.764 5  -1358575.695 2
 91 11  5  3 59 30.0070000  0  3 14 18 19
  22573759.013   -16333600.237 9 -12727457.474 9
  24117666.190   -11796276.212 8  -9191885.298 5
  25595519.188    -1803944.178 5  -1405668.781 3
 91 11  5  4  0  0.0070000  0  3 14 18 19
  22583897.092   -16280323.101 9 -12685942.811 8
  24109886.874   -11837153.137 8  -9223737.357 4
  25584069.219    -1864142.965 5  -1452576.687 3
 91 11  5  4  0 30.0070000  0  3 14 18 19
  22594144.602   -16226465.911 9 -12643976.157 9
  24102135.435   -11877894.954 8  -9255484.146 4
  25572648.628    -1924102.913 5  -1499298.463 2
 91 11  5  4  1  0.0070000  0  3 14 18 19
  22604505.127   -16172032.133 9 -12601560.200 9
  24094404.692   -11918503.390 8  -9287126.999 6
  25561299.381    -1983826.053 5  -1545835.793 2
 91 11  5  4  1 30.0070000  0  3 14 18 19
  22614972.981   -16117021.441 9 -12558694.713 8
  24086706.022   -11958976.455 8  -9318664.362 5
  25549969.627    -2043310.738 5  -1592187.268 2
 91 11  5  4  2  0.0070000  0  3 14 18 19
  22625550.256   -16061433.284 9 -12515379.248 9
  24079031.931   -11999312.242 8  -9350094.760 5
  25538692.328    -2102554.938 5  -1638351.332 2
 91 11  5  4  2 30.0070000  0  3 14 18 19
  22636237.258   -16005269.504 9 -12471615.244 8
  24071380.028   -12039511.251 8  -9381418.592 6
  25527465.407    -2161559.602 5  -1684328.806 3
 91 11  5  4  3  0.0070000  0  3 14 18 19
  22647034.580   -15948527.839 9 -12427400.945 9
  24063758.707   -12079569.657 8  -9412632.865 5
  25516284.643    -2220321.504 5  -1730117.032 2
 91 11  5  4  3 30.0070000  0  3 14 18 19
  22657942.231   -15891208.974 9 -12382736.876 9
  24056161.362   -12119486.210 8  -9443736.598 5
  25505150.653    -2278839.914 5  -1775715.615 1
 91 11  5  4  4  0.0070000  0  3 14 18 19
  22668960.508   -15833314.249 9 -12337624.093 8
  24048591.902   -12159260.012 8  -9474729.095 6
  25494054.732    -2337114.007 5  -1821123.750 3
 91 11  5  4  4 30.0070000  0  3 14 18 19
  22680086.400   -15774843.419 9 -12292062.383 8
  24041051.227   -12198889.285 8  -9505608.987 5
  25483012.181    -2395142.265 5  -1866340.405 2
 91 11  5  4  5  0.0070000  0  3 14 18 19
  22691322.325   -15715798.826 9 -12246053.599 9
  24033537.530   -12238374.776 8  -9536376.831 5
  25472018.789    -2452926.549 5  -1911366.895 2
 91 11  5  4  5 30.0070000  0  3 14 18 19
  22702667.968   -15656177.274 9 -12199595.234 9
  24026052.913   -12277711.067 8  -9567028.416 5
  25461071.264    -2510461.676 5  -1956199.247 3
 91 11  5  4  6  0.0070000  0  3 14 18 19
  22714125.441   -15595980.430 9 -12152688.577 8
  24018595.275   -12316898.361 8  -9597563.899 6
  25450167.216    -2567747.964 5  -2000837.716 2
 91 11  5  4  6 30.0070000  0  3 14 18 19
  22725687.231   -15535207.376 9 -12105332.944 9
  24011166.412   -12355933.548 8  -9627980.858 5
  25439316.226    -2624782.806 5  -2045280.254 2
 91 11  5  4  7  0.0070000  0  3 14 18 19
  22737361.453   -15473858.303 9 -12057528.461 9
  24003768.139   -12394815.039 8  -9658278.052 6
  25428510.806    -2681564.812 5  -2089525.805 3
 91 11  5  4  7 30.0070000  0  3 14 18 19
  22749145.096   -15411931.564 9 -12009273.839 8
  23996399.235   -12433539.241 8  -9688452.698 5
  25417756.656    -2738091.451 5  -2133572.304 2
 91 11  5  4  8  0.0080000  0  3 14 18 19
  22761041.759   -15349425.856 9 -11960568.087 9
  23989060.619   -12472106.226 8  -9718504.840 5
  25407046.265    -2794363.643 5  -2177420.619 3
 91 11  5  4  8 30.0080000  0  3 14 18 19
  22773043.050   -15286349.751 9 -11911417.852 9
  23981750.783   -12510515.586 8  -9748434.143 5
  25396382.350    -2850380.102 5  -2221069.610 4
 91 11  5  4  9  0.0080000  0  3 14 18 19
  22785156.468   -15222700.165 9 -11861820.772 9
  23974471.521   -12548765.993 8  -9778239.595 5
  25385775.698    -2906140.488 5  -2264519.104 3
 91 11  5  4  9 30.0080000  0  3 14 18 19
  22797377.807   -15158474.868 9 -11811775.079 8
  23967225.536   -12586853.396 8  -9807918.030 6
  25375213.404    -2961641.600 5  -2307766.532 3
 91 11  5  4 10  0.0080000  0  3 14 18 19
  22809710.067   -15093676.687 9 -11761282.979 8
  23960005.631   -12624777.505 8  -9837469.243 6
  25364696.986    -3016884.263 5  -2350812.591 2
 91 11  5  4 10 30.0080000  0  3 14 18 19
  22822147.859   -15028306.484 9 -11710345.158 8
  23952820.809   -12662537.359 8  -9866892.445 5
  25354239.027    -3071867.933 5  -2393656.840 2
 91 11  5  4 11  0.0080000  0  3 14 18 19
  22834697.165   -14962365.283 9 -11658962.388 8
  23945668.061   -12700131.734 8  -9896186.706 6
  25343819.738    -3126591.397 5  -2436298.330 3
 91 11  5  4 11 30.0080000  0  3 14 18 19
  22847352.307   -14895854.424 9 -11607135.747 8
  23938544.088   -12737559.708 8  -9925351.307 6
  25333462.807    -3181054.996 5  -2478737.354 2
 91 11  5  4 12  0.0080000  0  3 14 18 19
  22860117.168   -14828774.780 9 -11554865.895 9
  23931457.598   -12774820.771 8  -9954385.863 6
  25323141.256    -3235257.915 6  -2520973.208 2
 91 11  5  4 12 30.0080000  0  3 14 18 19
  22872992.061   -14761129.362 9 -11502155.167 8
  23924395.984   -12811915.551 8  -9983290.826 5
  25312880.554    -3289201.411 5  -2563006.982 3
 91 11  5  4 13  0.0080000  0  3 14 18 19
  22885970.372   -14692918.413 9 -11449003.779 8
  23917369.453   -12848841.433 8 -10012064.188 5
  25302663.329    -3342884.312 6  -2604837.619 1
 91 11  5  4 13 30.0080000  0  3 14 18 19
  22899056.317   -14624144.911 9 -11395414.039 8
  23910374.393   -12885599.183 8 -10040706.534 6
  25292505.165    -3396308.048 5  -2646466.399 3
 91 11  5  4 14  0.0080000  0  3 14 18 19
  22912252.276   -14554809.928 9 -11341386.772 8
  23903413.214   -12922187.218 8 -10069216.653 6
  25282378.777    -3449471.708 6  -2687892.437 2
 91 11  5  4 14 30.0080000  0  3 14 18 19
  22925551.671   -14484911.288 9 -11286920.297 8
  23896479.614   -12958601.593 8 -10097591.437 6
  25272318.038    -3502371.806 6  -2729113.146 2
 91 11  5  4 15  0.0080000  0  3 14 18 19
  22938962.888   -14414449.341 9 -11232014.884 7
  23889587.380   -12994839.655 8 -10125828.847 6
  25262302.572    -3555006.814 6  -2770127.292 2
 91 11  5  4 15 30.0080000  0  3 14 18 19
  22952476.031   -14343425.892 9 -11176671.942 8
  23882723.633   -13030901.451 8 -10153928.888 6
  25252329.380    -3607376.687 6  -2810934.858 3
 91 11  5  4 16  0.0080000  0  3 14 18 19
  22966097.697   -14271841.695 9 -11120892.044 8
  23875895.861   -13066785.272 8 -10181890.271 5
  25242418.538    -3659480.572 6  -2851535.171 2
 91 11  5  4 16 30.0080000  0  3 14 18 19
  22979828.192   -14199699.003 9 -11064676.963 8
  23869101.365   -13102489.870 8 -10209711.978 6
  25232551.469    -3711318.728 6  -2891928.387 3
 91 11  5  4 17  0.0080000  0  3 14 18 19
  22993665.420   -14126996.967 9 -11008026.023 8
  23862341.343   -13138012.094 8 -10237391.579 6
  25222740.756    -3762888.596 6  -2932112.606 2
 91 11  5  4 17 30.0080000  0  3 14 18 19
  23007603.372   -14053736.554 9 -10950939.993 8
  23855617.303   -13173350.810 8 -10264928.182 5
  25212976.818    -3814189.834 5  -2972087.461 2
 91 11  5  4 18  0.0080000  0  3 14 18 19
  23021650.439   -13979917.602 9 -10893418.731 8
  23848928.032   -13208503.182 8 -10292319.593 6
  25203268.939    -3865220.084 6  -3011851.169 3
 91 11  5  4 18 30.0080000  0  3 14 18 19
  23035803.046   -13905547.107 9 -10835467.701 8
  23842271.141   -13243473.980 9 -10319569.501 6
  25193609.930    -3915984.948 6  -3051408.121 4
 91 11  5  4 19  0.0080000  0  3 14 18 19
  23050061.174   -13830619.147 9 -10777082.282 8
  23835655.022   -13278253.973 9 -10346670.750 6
  25183996.186    -3966476.442 6  -3090752.025 2
 91 11  5  4 19 30.0080000  0  3 14 18 19
  23064424.230   -13755135.821 9 -10718264.102 8
  23829070.976   -13312843.000 9 -10373623.190 6
  25174439.400    -4016694.667 6  -3129882.995 2
 91 11  5  4 20  0.0080000  0  3 14 18 19
  23078892.816   -13679098.459 9 -10659014.222 8
  23822526.804   -13347240.057 9 -10400426.054 6
  25164934.781    -4066639.372 6  -3168800.865 5
 91 11  5  4 20 30.0080000  0  3 14 18 19
  23093468.128   -13602510.078 9 -10599334.966 7
  23816017.716   -13381445.371 9 -10427079.491 6
  25155483.220    -4116311.955 6  -3207506.673 2
 91 11  5  4 21  0.0080000  0  3 14 18 19
  23108147.766   -13525372.140 9 -10539227.486 7
  23809544.898   -13415456.639 9 -10453581.734 6
  25146087.429    -4165711.677 6  -3245999.834 2
 91 11  5  4 21 30.0080000  0  3 14 18 19
  23122928.729   -13447689.337 9 -10478695.433 8
  23803108.053   -13449276.604 9 -10479934.906 6
  25136731.800    -4214841.281 6  -3284282.589 3
 91 11  5  4 22  0.0080000  0  3 14 18 19
  23137816.722   -13369459.998 9 -10417737.521 8
  23796711.981   -13482900.828 9 -10506135.563 6
  25127434.638    -4263697.369 6  -3322352.178 2
 91 11  5  4 22 30.0080000  0  3 14 18 19
  23152805.150   -13290690.759 9 -10356358.902 8
  23790350.382   -13516332.567 9 -10532186.223 5
  25118194.434    -4312284.285 6  -3360212.003 4
 91 11  5  4 23  0.0080000  0  3 14 18 19
  23167895.497   -13211384.748 9 -10294562.011 7
  23784022.061   -13549572.399 9 -10558087.348 6
  25108999.199    -4360603.838 6  -3397863.524 4
 91 11  5  4 23 30.0080000  0  3 14 18 19
  23183095.273   -13131527.880 9 -10232335.892 7
  23777737.217   -13582603.564 9 -10583825.872 6
  25099862.727    -4408639.896 6  -3435294.138 4
 91 11  5  4 24  0.0080000  0  3 14 18 19
  23198393.085   -13051131.793 9 -10169689.597 8
  23771492.839   -13615434.486 9 -10609408.372 6
  25090764.925    -4456401.907 6  -3472511.205 2
 91 11  5  4 24 30.0080000  0  3 14 18 19
  23213793.722   -12970195.753 9 -10106622.573 7
  23765282.036   -13648061.471 9 -10634831.960 6
  25081728.880    -4503887.177 6  -3509512.634 4
 91 11  5  4 25  0.0080000  0  3 14 18 19
  23229298.093   -12888720.280 9 -10043135.194 7
  23759113.507   -13680482.507 9 -10660095.065 5
  25072747.698    -4551094.496 6  -3546297.493 4
 91 11  5  4 25 30.0080000  0  3 14 18 19
  23244904.686   -12806708.330 9  -9979229.793 8
  23752982.757   -13712697.178 9 -10685197.375 6
  25063819.276    -4598024.381 6  -3582866.166 2
 91 11  5  4 26  0.0080000  0  3 14 18 19
  23260612.613   -12724161.485 9  -9914907.590 7
  23746891.269   -13744704.527 9 -10710138.127 6
  25054940.928    -4644676.940 6  -3619218.726 3
 91 11  5  4 26 30.0080000  0  3 14 18 19
  23276421.271   -12641083.433 9  -9850171.453 8
  23740841.157   -13776505.096 9 -10734917.766 6
  25046117.130    -4691053.373 6  -3655356.155 4
 91 11  5  4 27  0.0080000  0  3 14 18 19
  23292333.654   -12557475.760 9  -9785022.630 8
  23734830.019   -13808097.266 9 -10759535.002 6
  25037341.014    -4737153.655 6  -3691278.383 3
 91 11  5  4 27 30.0080000  0  3 14 18 19
  23308342.867   -12473339.121 9  -9719461.627 8
  23728854.855   -13839478.226 9 -10783987.666 6
  25028620.948    -4782976.840 6  -3726984.673 2
 91 11  5  4 28  0.0080000  0  3 14 18 19
  23324453.118   -12388676.073 9  -9653490.443 8
  23722923.465   -13870647.891 9 -10808275.680 6
  25019950.650    -4828523.118 6  -3762475.215 4
 91 11  5  4 28 30.0080000  0  3 14 18 19
  23340664.990   -12303490.017 9  -9587111.702 7
  23717032.839   -13901606.305 9 -10832399.088 7
  25011335.216    -4873793.422 6  -3797750.738 3
 91 11  5  4 29  0.0080000  0  3 14 18 19
  23356974.303   -12217781.756 9  -9520326.065 8
  23711182.086   -13932351.183 9 -10856356.110 6
  25002778.833    -4918786.502 6  -3832810.215 2
 91 11  5  4 29 30.0080000  0  3 14 18 19
  23373382.246   -12131554.352 9  -9453135.894 7
  23705371.809   -13962882.391 9 -10880146.620 6
  24994270.125    -4963503.822 6  -3867654.811 3
 91 11  5  4 30  0.0080000  0  3 14 18 19
  23389890.317   -12044812.075 9  -9385544.530 7
  23699602.907   -13993200.869 9 -10903771.385 6
  24985813.880    -5007947.704 6  -3902286.347 4
 91 11  5  4 30 30.0080000  0  3 14 18 19
  23406493.118   -11957554.664 9  -9317551.758 7
  23693874.175   -14023302.716 9 -10927227.329 7
  24977405.301    -5052115.215 6  -3936702.547 3
 91 11  5  4 31  0.0080000  0  3 14 18 19
  23423194.259   -11869785.718 9  -9249160.396 8
  23688188.309   -14053188.613 9 -10950515.019 7
  24969049.787    -5096008.155 6  -3970904.784 4
 91 11  5  4 31 30.0080000  0  3 14 18 19
  23439993.130   -11781508.784 9  -9180373.195 7
  23682544.412   -14082858.885 9 -10973634.679 7
  24960754.530    -5139627.537 6  -4004893.839 3
 91 11  5  4 32  0.0080000  0  3 14 18 19
  23456889.137   -11692723.521 9  -9111189.888 7
  23676937.098   -14112310.391 9 -10996583.875 7
  24952504.241    -5182971.417 6  -4038668.243 3
 91 11  5  4 32 30.0080000  0  3 14 18 19
  23473879.271   -11603436.358 9  -9041615.495 8
  23671372.948   -14141546.400 9 -11019365.154 7
  24944301.923    -5226044.369 6  -4072231.544 3
 91 11  5  4 33  0.0080000  0  3 14 18 19
  23490964.142   -11513649.209 9  -8971651.505 8
  23665851.673   -14170564.658 9 -11041976.753 6
  24936163.456    -5268845.537 6  -4105583.053 3
 91 11  5  4 33 30.0080000  0  3 14 18 19
  23508146.752   -11423363.129 9  -8901298.738 7
  23660372.968   -14199362.848 9 -11064416.881 7
  24928071.755    -5311374.141 6  -4138722.158 2
 91 11  5  4 34  0.0080000  0  3 14 18 19
  23525423.785   -11332583.962 9  -8830561.733 7
  23654933.831   -14227943.796 9 -11086687.722 7
  24920026.524    -5353634.030 6  -4171651.896 3
 91 11  5  4 34 30.0080000  0  3 14 18 19
  23542790.164   -11241312.676 9  -8759441.281 7
  23649536.967   -14256305.225 9 -11108787.509 7
  24912037.055    -5395623.720 6  -4204371.101 4
 91 11  5  4 35  0.0080000  0  3 14 18 19
  23560247.981   -11149554.335 8  -8687941.295 7
  23644182.071   -14284448.482 9 -11130717.293 7
  24904100.949    -5437345.902 6  -4236881.840 2
 91 11  5  4 35 30.0080000  0  3 14 18 19
  23577803.528   -11057311.128 8  -8616063.500 8
  23638867.354   -14312372.220 9 -11152476.021 7
  24896208.914    -5478800.825 6  -4269184.322 2
 91 11  5  4 36  0.0080000  0  3 14 18 19
  23595450.209   -10964587.804 8  -8543811.573 7
  23633594.902   -14340077.997 9 -11174064.921 6
  24888370.538    -5519991.283 6  -4301280.750 4
 91 11  5  4 36 30.0080000  0  3 14 18 19
  23613182.632   -10871387.978 8  -8471188.362 7
  23628364.121   -14367565.282 9 -11195483.546 7
  24880587.627    -5560918.208 6  -4333171.824 4
 91 11  5  4 37  0.0080000  0  3 14 18 19
  23631010.088   -10777714.801 8  -8398196.301 7
  23623175.019   -14394834.238 9 -11216732.057 7
  24872846.990    -5601582.751 6  -4364858.450 4
 91 11  5  4 37 30.0080000  0  3 14 18 19
  23648924.787   -10683569.640 8  -8324836.468 7
  23618029.081   -14421882.433 9 -11237808.540 7
  24865156.409    -5641983.738 6  -4396339.692 2
 91 11  5  4 38  0.0080000  0  3 14 18 19
  23666927.025   -10588957.471 8  -8251112.711 6
  23612923.915   -14448711.434 9 -11258714.225 7
  24857517.698    -5682124.188 6  -4427617.914 3
 91 11  5  4 38 30.0080000  0  3 14 18 19
  23685020.999   -10493878.397 8  -8177025.156 7
  23607859.216   -14475317.701 9 -11279446.359 7
  24849938.047    -5722002.128 6  -4458691.611 4
 91 11  5  4 39  0.0080000  0  3 14 18 19
  23703202.817   -10398333.667 8  -8102574.740 7
  23602840.097   -14501698.793 9 -11300003.021 7
  24842384.773    -5761616.211 6  -4489559.707 3
 91 11  5  4 39 30.0080000  0  3 14 18 19
  23721473.666   -10302323.050 8  -8027761.302 7
  23597862.641   -14527851.025 9 -11320381.355 7
  24834907.651    -5800964.308 6  -4520220.508 3
 91 11  5  4 40  0.0080000  0  3 14 18 19
  23739829.655   -10205853.941 8  -7952590.590 7
  23592928.059   -14553778.772 9 -11340584.765 7
  24827464.706    -5840051.611 6  -4550678.109 2
 91 11  5  4 40 30.0080000  0  3 14 18 19
  23758276.490   -10108931.515 8  -7877066.653 7
  23588038.142   -14579482.730 9 -11360613.799 7
  24820076.319    -5878880.867 6  -4580934.632 4
 91 11  5  4 41  0.0080000  0  3 14 18 19
  23776803.360   -10011555.528 8  -7801189.294 7
  23583189.294   -14604959.206 9 -11380465.576 7
  24812735.597    -5917449.604 6  -4610988.160 5
 91 11  5  4 41 30.0080000  0  3 14 18 19
  23795420.473    -9913731.382 8  -7724962.724 6
  23578383.626   -14630210.025 9 -11400141.507 7
  24805447.644    -5955760.595 6  -4640840.856 3
 91 11  5  4 42  0.0080000  0  3 14 18 19
  23814120.929    -9815462.641 8  -7648389.702 7
  23573622.325   -14655234.871 9 -11419641.361 7
  24798207.357    -5993815.003 6  -4670493.597 3
 91 11  5  4 42 30.0080000  0  3 14 18 19
  23832903.820    -9716750.558 8  -7571471.234 6
  23568901.492   -14680030.789 9 -11438962.823 8
  24791015.939    -6031611.977 6  -4699945.736 3
 91 11  5  4 43  0.0080000  0  3 14 18 19
  23851773.657    -9617596.185 8  -7494208.117 7
  23564229.222   -14704595.906 9 -11458104.452 8
  24783867.684    -6069150.593 6  -4729196.560 4
 91 11  5  4 43 30.0080000  0  3 14 18 19
  23870723.241    -9518005.190 8  -7416604.781 7
  23559598.929   -14728931.428 9 -11477067.177 7
  24776774.598    -6106434.033 6  -4758248.562 4
 91 11  5  4 44  0.0080000  0  3 14 18 19
  23889757.363    -9417977.681 8  -7338661.289 7
  23555012.104   -14753034.270 9 -11495848.584 7
  24769729.474    -6143459.860 6  -4787099.817 5
 91 11  5  4 44 30.0090000  0  4 24 14 18 19
  28229830.598       17008.964 5     13253.399 2
  23908877.526    -9317514.690 8  -7260378.484 6
  23550470.252   -14776904.932 9 -11514449.080 7
  24762733.214    -6180231.021 6  -4815752.620 3
 91 11  5  4 45  0.0090000  0  3 14 18 19
  23928075.339    -9216625.164 8  -7181763.301 6
  23545971.263   -14800540.731 9 -11532866.566 8
  24755785.828    -6216745.137 6  -4844205.137 4
 91 11  5  4 45 30.0090000  0  3 14 18 19
  23947356.189    -9115306.317 8  -7102813.588 6
  23541517.243   -14823939.567 9 -11551099.408 8
  24748882.505    -6253002.202 6  -4872457.372 4
 91 11  5  4 46  0.0090000  0  3 14 18 19
  23966720.382    -9013561.244 8  -7023531.734 7
  23537110.295   -14847100.385 9 -11569146.777 7
  24742030.747    -6289002.170 6  -4900509.258 3
 91 11  5  4 46 30.0090000  0  3 14 18 19
  23986160.727    -8911394.330 8  -6943921.198 7
  23532748.614   -14870023.187 9 -11587008.670 7
  24735230.859    -6324747.546 6  -4928362.742 3
 91 11  5  4 47  0.0090000  0  3 14 18 19
  24005682.015    -8808808.835 8  -6863984.485 7
  23528431.910   -14892708.295 9 -11604685.362 8
  24728472.032    -6360239.609 6  -4956018.860 3
 91 11  5  4 47 30.0090000  0  3 14 18 19
  24025282.143    -8705806.438 8  -6783722.910 6
  23524159.861   -14915152.991 9 -11622174.708 8
  24721769.875    -6395476.916 6  -4983476.470 4
 91 11  5  4 48  0.0090000  0  3 14 18 19
  24044959.620    -8602389.241 8  -6703138.113 7
  23519937.885   -14937355.845 9 -11639475.615 7
  24715119.876    -6430459.625 6  -5010735.704 5
 91 11  5  4 48 30.0090000  0  3 14 18 19
  24064721.040    -8498560.658 8  -6622232.768 7
  23515756.377   -14959315.528 9 -11656587.032 7
  24708504.961    -6465188.533 6  -5037797.151 4
 91 11  5  4 49  0.0090000  0  3 14 18 19
  24084550.813    -8394322.172 8  -6541008.008 6
  23511625.544   -14981029.884 9 -11673507.287 7
  24701944.604    -6499662.488 6  -5064659.938 3
 91 11  5  4 49 30.0090000  0  3 14 18 19
  24104470.219    -8289675.016 8  -6459464.809 7
  23507541.172   -15002496.358 9 -11690234.387 7
  24695433.107    -6533880.675 6  -5091323.413 4
 91 11  5  4 50  0.0090000  0  3 14 18 19
  24124460.081    -8184621.341 8  -6377604.828 6
  23503503.261   -15023712.781 9 -11706766.633 8
  24688969.582    -6567842.350 6  -5117787.024 4
 91 11  5  4 50 30.0090000  0  3 14 18 19
  24144526.095    -8079164.623 8  -6295430.805 7
  23499513.321   -15044678.400 9 -11723103.462 8
  24682554.323    -6601548.494 6  -5144051.530 4
 91 11  5  4 51  0.0090000  0  3 14 18 19
  24164672.144    -7973307.745 8  -6212944.963 7
  23495572.853   -15065392.676 9 -11739244.431 7
  24676200.524    -6635000.582 6  -5170118.038 4
 91 11  5  4 51 30.0090000  0  3 14 18 19
  24184890.150    -7867051.367 8  -6130147.824 7
  23491678.846   -15085852.363 9 -11755187.016 8
  24669873.398    -6668196.669 6  -5195985.083 3
 91 11  5  4 52  0.0090000  0  3 14 18 19
  24205187.301    -7760399.192 8  -6047042.258 6
  23487833.411   -15106056.526 9 -11770930.498 8
  24663604.739    -6701137.413 6  -5221653.148 3
 91 11  5  4 52 30.0090000  0  3 14 18 19
  24225555.195    -7653353.523 8  -5963630.090 6
  23484038.041   -15126003.921 9 -11786473.901 9
  24657389.748    -6733822.731 6  -5247122.206 4
 91 11  5  4 53  0.0090000  0  3 14 18 19
  24246000.743    -7545918.877 8  -5879914.815 6
  23480289.437   -15145695.025 9 -11801817.602 9
  24651214.317    -6766254.727 6  -5272393.836 2
 91 11  5  4 53 30.0090000  0  3 14 18 19
  24266517.636    -7438099.074 8  -5795899.431 5
  23476593.289   -15165129.251 9 -11816961.131 7
  24645091.655    -6798434.629 6  -5297469.029 3
 91 11  5  4 54  0.0090000  0  3 14 18 19
  24287105.289    -7329896.704 8  -5711585.921 5
  23472943.323   -15184304.823 9 -11831903.120 8
  24639011.266    -6830362.700 6  -5322348.000 4
 91 11  5  4 54 30.0090000  0  3 14 18 19
  24307770.578    -7221312.078 8  -5626974.569 7
  23469344.015   -15203218.371 9 -11846640.936 8
  24632984.537    -6862036.999 6  -5347029.247 4
 91 11  5  4 55  0.0090000  0  3 14 18 19
  24328508.723    -7112351.210 8  -5542070.042 6
  23465794.772   -15221871.415 9 -11861175.759 8
  24627009.678    -6893461.100 6  -5371515.525 4
 91 11  5  4 55 30.0090000  0  3 14 18 19
  24349315.219    -7003013.342 8  -5456871.747 6
  23462294.389   -15240259.590 9 -11875504.199 8
  24621075.583    -6924631.429 6  -5395804.023 4
 91 11  5  4 56  0.0090000  0  3 14 18 19
  24370189.170    -6893301.473 8  -5371382.005 5
  23458845.580   -15258381.713 9 -11889625.313 8
  24615190.960    -6955549.091 6  -5419895.666 4
 91 11  5  4 56 30.0090000  0  3 14 18 19
  24391136.271    -6783218.884 8  -5285603.404 6
  23455448.634   -15276236.684 9 -11903538.264 9
  24609356.994    -6986214.636 6  -5443790.859 4
 91 11  5  4 57  0.0090000  0  3 14 18 19
  24412153.218    -6672767.086 8  -5199537.106 6
  23452102.048   -15293821.513 9 -11917240.717 8
  24603573.102    -7016626.360 6  -5467488.274 3
 91 11  5  4 57 30.0090000  0  3 14 18 19
  24433243.917    -6561947.676 8  -5113184.367 6
  23448810.327   -15311133.973 9 -11930730.925 8
  24597829.974    -7046784.024 6  -5490987.692 6
 91 11  5  4 58  0.0090000  0  3 14 18 19
  24454401.172    -6450766.277 8  -5026549.536 6
  23445565.973   -15328175.206 9 -11944009.806 8
  24592137.817    -7076690.722 6  -5514291.567 4
 91 11  5  4 58 30.0090000  0  3 14 18 19
  24475627.975    -6339226.368 8  -4939635.365 6
  23442373.779   -15344944.708 9 -11957076.936 7
  24586497.226    -7106347.262 6  -5537400.532 5
 91 11  5  4 59  0.0090000  0  3 14 18 19
  24496918.034    -6227330.183 8  -4852443.576 5
  23439233.760   -15361440.438 9 -11969930.732 9
  24580900.697    -7135753.548 6  -5560314.482 4
 91 11  5  4 59 30.0090000  0  3 14 18 19
  24518277.947    -6115079.471 8  -4764975.530 6
  23436147.096   -15377660.227 9 -11982569.514 8
  24575353.334    -7164908.978 6  -5583032.960 3
 91 11  5  5  0  0.0090000  0  3 14 18 19
  24539706.213    -6002480.779 8  -4677236.319 6
  23433115.889   -15393605.678 9 -11994994.528 8
  24569854.247    -7193817.047 6  -5605558.691 3
 91 11  5  5  0 30.0090000  0  3 14 18 19
  24561203.136    -5889528.976 8  -4589221.974 5
  23430135.357   -15409268.125 9 -12007199.020 8
  24564401.918    -7222470.427 6  -5627885.949 5
 91 11  5  5  1  0.0090000  0  3 14 18 19
  24582761.807    -5776233.793 7  -4500940.065 6
  23427204.287   -15424653.182 9 -12019187.366 8
  24558993.066    -7250876.558 6  -5650020.583 5
 91 11  5  5  1 30.0090000  0  3 14 18 19
  24604387.338    -5662595.010 8  -4412390.404 6
  23424334.075   -15439755.319 9 -12030955.253 8
  24553635.474    -7279032.019 6  -5671959.857 3
 91 11  5  5  2  0.0090000  0  3 14 18 19
  24626072.828    -5548618.824 7  -4323577.825 6
  23421511.825   -15454577.029 9 -12042504.630 8
  24548324.945    -7306940.932 6  -5693707.021 3
 91 11  5  5  2 30.0090000  0  3 14 18 19
  24647825.764    -5434308.300 7  -4234504.731 6
  23418745.338   -15469117.200 9 -12053834.619 8
  24543061.191    -7334603.881 6  -5715262.529 4
 91 11  5  5  3  0.0090000  0  3 14 18 19
  24669641.066    -5319667.812 7  -4145174.532 5
  23416031.916   -15483375.551 9 -12064945.014 8
  24537844.807    -7362022.059 6  -5736627.316 4
 91 11  5  5  3 30.0090000  0  3 14 18 19
  24691518.421    -5204700.089 7  -4055589.341 6
  23413372.459   -15497350.995 9 -12075834.963 8
  24532678.478    -7389196.072 6  -5757801.838 4
 91 11  5  5  4  0.0090000  0  3 14 18 19
  24713457.228    -5089407.911 7  -3965751.318 5
  23410769.358   -15511041.536 9 -12086502.899 8
  24527539.441    -7416126.492 7  -5778786.535 4
 91 11  5  5  4 30.0090000  0  3 14 18 19
  24735461.097    -4973792.234 7  -3875661.213 5
  23408216.627   -15524443.807 9 -12096946.218 8
  24522469.350    -7442811.457 6  -5799579.996 5
 91 11  5  5  5  0.0090000  0  3 14 18 19
  24757522.823    -4857854.511 7  -3785320.192 6
  23405722.057   -15537555.516 9 -12107163.129 8
  24517443.626    -7469250.046 6  -5820181.457 5
 91 11  5  5  5 30.0090000  0  3 14 18 19
  24779642.414    -4741601.966 7  -3694733.841 5
  23403278.747   -15550379.243 9 -12117155.634 8
  24512454.181    -7495446.680 7  -5840594.401 5
 91 11  5  5  6  0.0090000  0  3 14 18 19
  24801818.360    -4625036.174 7  -3603903.410 6
  23400895.999   -15562912.876 9 -12126922.094 8
  24507515.700    -7521401.110 7  -5860818.594 4
 91 11  5  5  6 30.0090000  0  3 14 18 19
  24824063.862    -4508159.752 7  -3512830.899 5
  23398566.909   -15575153.604 9 -12136460.314 8
  24502621.891    -7547112.718 7  -5880853.577 6
 91 11  5  5  7  0.0090000  0  3 14 18 19
  24846364.517    -4390978.257 7  -3421520.700 6
  23396292.081   -15587103.003 9 -12145771.520 8
  24497772.746    -7572584.306 7  -5900701.525 4
 91 11  5  5  7 30.0090000  0  3 14 18 19
  24868721.544    -4273496.530 7  -3329976.534 5
  23394072.422   -15598761.379 9 -12154855.960 8
  24492976.667    -7597818.245 7  -5920364.312 6
 91 11  5  5  8  0.0090000  0  3 14 18 19
  24891136.121    -4155709.917 7  -3238194.821 4
  23391910.916   -15610120.658 9 -12163707.331 9
  24488218.961    -7622807.490 7  -5939836.430 5
 91 11  5  5  8 30.0090000  0  3 14 18 19
  24913612.761    -4037628.018 7  -3146182.971 5
  23389806.970   -15621184.637 9 -12172328.605 9
  24483505.622    -7647558.819 7  -5959123.123 5
 91 11  5  5  9  0.0090000  0  3 14 18 19
  24936137.371    -3919253.632 7  -3053943.250 5
  23387759.387   -15631952.558 9 -12180719.183 9
  24478846.249    -7672072.813 7  -5978224.905 5
 91 11  5  5  9 30.0090000  0  3 14 18 19
  24958714.445    -3800588.910 7  -2961477.287 6
  23385764.871   -15642422.617 9 -12188877.651 9
  24474223.747    -7696349.535 7  -5997141.794 6
 91 11  5  5 10  0.0090000  0  3 14 18 19
  24981349.969    -3681634.985 7  -2868785.960 5
  23383827.914   -15652591.061 9 -12196801.101 9
  24469652.209    -7720386.819 7  -6015872.126 5
 91 11  5  5 10 30.0090000  0  3 14 18 19
  25004040.060    -3562398.161 7  -2775874.199 5
  23381953.011   -15662459.803 9 -12204491.016 8
  24465119.052    -7744188.468 7  -6034418.823 5
 91 11  5  5 11  0.0090000  0  3 14 18 19
  25026785.014    -3442881.193 7  -2682744.137 5
  23380132.970   -15672027.140 9 -12211946.074 9
  24460633.858    -7767754.696 7  -6052782.078 4
 91 11  5  5 11 30.0090000  0  3 14 18 19
  25049580.635    -3323088.388 7  -2589399.144 5
  23378368.989   -15681292.546 9 -12219165.860 8
  24456190.631    -7791087.064 7  -6070963.107 5
 91 11  5  5 12  0.0090000  0  3 14 18 19
  25072433.518    -3203019.829 7  -2495839.291 5
  23376664.373   -15690252.640 9 -12226147.732 8
  24451799.572    -7814183.446 7  -6088960.253 5
 91 11  5  5 12 30.0090000  0  3 14 18 19
  25095327.166    -3082682.182 7  -2402069.746 5
  23375017.308   -15698909.004 9 -12232892.949 9
  24447447.182    -7837047.800 7  -6106776.608 5
 91 11  5  5 13  0.0090000  0  3 14 18 19
  25118277.779    -2962070.146 7  -2308086.375 5
  23373429.016   -15707251.828 9 -12239393.842 9
  24443147.562    -7859672.135 7  -6124405.916 4
 91 11  5  5 13 30.0090000  0  3 14 18 19
  25141284.452    -2841189.696 7  -2213893.876 5
  23371899.774   -15715283.458 9 -12245652.242 9
  24438879.413    -7882060.028 7  -6141850.996 5
 91 11  5  5 14  0.0090000  0  3 14 18 19
  25164335.195    -2720047.298 7  -2119497.259 5
  23370434.689   -15723005.247 9 -12251669.215 9
  24434670.333    -7904214.789 7  -6159114.418 6
 91 11  5  5 14 30.0090000  0  3 14 18 19
  25187437.198    -2598641.883 7  -2024895.694 5
  23369022.364   -15730412.294 9 -12257440.923 9
  24430496.616    -7926133.382 7  -6176193.810 6
 91 11  5  5 15  0.0090000  0  3 14 18 19
  25210591.970    -2476978.318 7  -1930092.947 5
  23367672.695   -15737504.752 9 -12262967.507 9
  24426365.783    -7947818.150 7  -6193090.998 5
 91 11  5  5 15 30.0090000  0  3 14 18 19
  25233789.007    -2355060.021 7  -1835091.736 3
  23366382.993   -15744281.667 9 -12268248.206 9
  24422288.601    -7969270.056 7  -6209806.732 5
 91 11  5  5 16  0.0090000  0  3 14 18 19
  25257039.712    -2232888.825 7  -1739893.466 5
  23365152.944   -15750740.411 9 -12273280.997 9
  24418252.496    -7990488.112 7  -6226340.255 6
 91 11  5  5 16 30.0090000  0  3 14 18 19
  25280334.488    -2110469.141 7  -1644501.558 4
  23363986.450   -15756880.815 9 -12278065.710 9
  24414255.960    -8011474.054 7  -6242692.920 5
 91 11  5  5 17  0.0090000  0  3 14 18 19
  25303674.834    -1987801.220 7  -1548916.214 4
  23362876.014   -15762699.299 9 -12282599.579 9
  24410301.697    -8032226.029 7  -6258863.257 5
 91 11  5  5 17 30.0090000  0  3 14 18 19
  25327069.731    -1864888.314 7  -1453139.975 5
  23361832.744   -15768193.936 9 -12286881.109 9
  24406406.800    -8052743.923 7  -6274851.198 4
 91 11  5  5 18  0.0090000  0  3 14 18 19
  25350500.618    -1741734.681 7  -1357176.163 5
  23360849.424   -15773364.438 9 -12290910.061 9
  24402540.669    -8073029.177 7  -6290657.866 5
 91 11  5  5 18 30.0090000  0  3 14 18 19
  25373982.154    -1618343.364 7  -1261027.138 4
  23359926.360   -15778210.036 9 -12294685.841 9
  24398726.409    -8093082.613 7  -6306283.888 5
 91 11  5  5 19  0.0090000  0  3 14 18 19
  25397511.365    -1494716.173 7  -1164694.326 3
  23359066.553   -15782727.725 9 -12298206.113 9
  24394950.828    -8112903.576 7  -6321728.779 5
 91 11  5  5 19 30.0090000  0  3 14 18 19
  25421080.152    -1370857.346 7  -1068180.991 4
  23358270.901   -15786917.646 9 -12301470.977 9
  24391223.208    -8132493.775 7  -6336993.841 6
 91 11  5  5 20  0.0090000  0  3 14 18 19
  25444691.510    -1246770.844 7   -971490.282 5
  23357535.514   -15790779.315 9 -12304480.058 9
  24387540.261    -8151854.795 7  -6352080.321 4
 91 11  5  5 20 30.0090000  0  3 14 18 19
  25468346.929    -1122456.637 7   -874622.129 5
  23356864.283   -15794308.419 9 -12307230.002 9
  24383901.978    -8170983.980 7  -6366986.147 5
 91 11  5  5 21  0.0100000  0  3 14 18 19
  25492045.227     -997916.464 7   -777577.885 4
  23356253.904   -15797506.330 9 -12309721.868 9
  24380307.167    -8189884.793 7  -6381714.031 6
 91 11  5  5 21 30.0100000  0  3 14 18 19
  25515787.888     -873160.780 7   -680365.704 4
  23355707.677   -15800370.669 9 -12311953.814 9
  24376754.023    -8208555.766 7  -6396262.819 6
 91 11  5  5 22  0.0100000  0  3 14 18 19
  25539567.422     -748192.912 7   -582988.205 4
  23355226.217   -15802904.353 9 -12313928.101 9
  24373238.956    -8227002.896 7  -6410637.168 5
 91 11  5  5 22 30.0100000  0  3 14 18 19
  25563388.636     -623010.552 7   -485443.566 5
  23354808.005   -15805100.893 9 -12315639.676 9
  24369776.659    -8245221.064 7  -6424833.103 6
 91 11  5  5 23  0.0100000  0  3 14 18 19
  25587248.816     -497617.569 7   -387734.809 4
  23354457.543   -15806959.186 9 -12317087.686 9
  24366351.826    -8263211.038 7  -6438851.231 6
 91 11  5  5 23 30.0100000  0  4 14 18 11 19
  25611152.770     -372019.759 7   -289866.446 4
  23354167.050   -15808480.513 9 -12318273.118 9
  28926491.308      -23064.94914    -17992.451 1
  24362974.363    -8280975.916 7  -6452693.972 6
 91 11  5  5 24  0.0100000  0  3 14 18 19
  25635091.798     -246219.838 7   -191840.567 4
  23353941.602   -15809664.066 9 -12319195.362 9
  24359635.875    -8298516.592 7  -6466361.989 6
 91 11  5  5 24 30.0100000  0  3 14 18 19
  25659063.800     -120219.709 6    -93658.715 4
  23353779.419   -15810507.330 9 -12319852.443 9
  24356336.955    -8315832.464 7  -6479854.843 6
 91 11  5  5 25  0.0100000  0  3 14 18 19
  25683078.074        5978.947 6      4677.838 4
  23353685.877   -15811006.920 9 -12320241.714 9
  24353086.607    -8332921.922 7  -6493171.267 6
 91 11  5  5 25 30.0100000  0  3 14 18 19
  25707129.229      132368.905 6    103163.461 4
  23353653.202   -15811166.420 9 -12320366.007 9
  24349876.134    -8349789.917 7  -6506315.139 6
 91 11  5  5 26  0.0100000  0  3 14 18 19
  25731217.248      258948.155 6    201796.606 3
  23353688.582   -15810982.800 9 -12320222.904 9
  24346708.526    -8366435.796 7  -6519285.925 5
 91 11  5  5 26 30.0100000  0  3 14 18 19
  25755341.851      385713.862 6    300575.006 5
  23353791.704   -15810454.669 9 -12319811.364 9
  24343584.990    -8382860.050 7  -6532084.006 5
 91 11  5  5 27  0.0100000  0  3 14 18 19
  25779501.826      512664.216 7    399497.294 4
  23353955.989   -15809579.518 9 -12319129.412 9
  24340497.121    -8399061.794 7  -6544708.714 6
 91 11  5  5 27 30.0100000  0  3 14 18 19
  25803692.975      639795.516 7    498560.584 4
  23354189.229   -15808356.509 9 -12318176.411 9
  24337458.724    -8415041.624 7  -6557160.503 6
 91 11  5  5 28  0.0100000  0  3 14 18 19
  25827915.902      767104.038 6    597761.973 2
  23354488.422   -15806785.348 9 -12316952.117 9
  24334459.006    -8430801.265 7  -6569440.727 6
 91 11  5  5 28 30.0100000  0  3 14 18 19
  25852179.609      894590.674 7    697102.176 3
  23354855.068   -15804859.700 9 -12315451.610 9
  24331509.343    -8446336.859 7  -6581546.351 6
 91 11  5  5 29  0.0100000  0  3 14 18 19
  25876467.896     1022249.642 6    796576.624 3
  23355287.973   -15802582.345 9 -12313677.030 9
  24328582.776    -8461652.586 7  -6593480.661 6
 91 11  5  5 29 30.0100000  0  3 14 18 19
  25900793.054     1150076.733 6    896182.086 3
  23355788.323   -15799952.411 9 -12311627.719 9
  24325717.057    -8476749.221 7  -6605244.248 6
 91 11  5  5 30  0.0100000  0  3 14 18 19
  25925149.693     1278071.852 6    995918.481 3
  23356358.230   -15796965.507 9 -12309300.245 9
  24322888.517    -8491624.224 7  -6616835.139 6
 91 11  5  5 30 30.0100000  0  3 14 18 19
  25949535.709     1406227.512 6   1095780.017 5
  23356993.191   -15793625.276 9 -12306697.464 9
  24320100.443    -8506282.892 7  -6628257.464 6
 91 11  5  5 31  0.0100000  0  3 14 18 19
  25973956.504     1534540.946 6   1195764.442 5
  23357698.598   -15789929.928 9 -12303817.960 9
  24317344.452    -8520725.230 7  -6639511.210 6
 91 11  5  5 31 30.0100000  0  3 14 18 19
  25998405.175     1663008.296 6   1295868.789 3
  23358468.171   -15785879.095 9 -12300661.455 9
  24314638.228    -8534952.479 7  -6650597.358 6
 91 11  5  5 32  0.0100000  0  3 14 18 19
  26022876.339     1791627.710 6   1396091.653 3
  23359306.086   -15781469.989 9 -12297225.781 9
  24311970.675    -8548963.951 7  -6661515.360 6
 91 11  5  5 32 30.0100000  0  3 14 18 19
  26047383.774     1920395.047 6   1496429.806 4
  23360213.262   -15776702.622 9 -12293510.945 9
  24309348.989    -8562761.420 7  -6672266.623 6
 91 11  5  5 33  0.0100000  0  3 14 18 19
  26071917.288     2049305.004 6   1596879.071 3
  23361189.087   -15771577.743 9 -12289517.522 9
  24306763.879    -8576347.075 7  -6682852.834 6
 91 11  5  5 33 30.0100000  0  3 14 18 19
  26096469.387     2178358.535 6   1697440.196 3
  23362233.858   -15766090.237 9 -12285241.538 9
  24304221.940    -8589717.657 7  -6693271.438 6
 91 11  5  5 34  0.0100000  0  3 14 18 19
  26121050.270     2307551.771 6   1798110.177 4
  23363346.388   -15760239.854 9 -12280682.787 9
  24301715.976    -8602874.765 7  -6703523.710 6
 91 11  5  5 34 30.0100000  0  3 14 18 19
  26145668.330     2436881.262 6   1898886.366 2
  23364529.076   -15754025.416 9 -12275840.364 9
  24299251.979    -8615819.150 7  -6713610.218 6
 91 11  5  5 35  0.0100000  0  3 14 18 19
  26170304.678     2566344.468 6   1999766.731 3
  23365779.210   -15747445.692 9 -12270713.288 9
  24296827.856    -8628551.001 7  -6723531.124 6
 91 11  5  5 35 30.0100000  0  3 14 18 19
  26194963.206     2695936.408 6   2100747.403 4
  23367101.596   -15740500.525 9 -12265301.466 9
  24294448.702    -8641072.454 7  -6733288.081 6
 91 11  5  5 36  0.0100000  0  3 14 18 19
  26219650.814     2825654.120 6   2201826.070 3
  23368491.733   -15733189.061 9 -12259604.214 9
  24292102.529    -8653383.618 7  -6742881.166 6
 91 11  5  5 36 30.0100000  0  4 14 18 11 19
  26244356.108     2955494.825 6   2303000.562 1
  23369955.317   -15725509.627 9 -12253620.241 9
  28610254.631      -10767.44714     -8409.718 2
  24289798.620    -8665484.701 7  -6752310.558 6
 91 11  5  5 37  0.0100000  0  3 14 18 19
  26269091.085     3085454.044 6   2404267.461 2
  23371485.754   -15717462.760 9 -12247349.940 9
  24287536.984    -8677378.318 7  -6761578.278 7
 91 11  5  5 37 30.0100000  0  3 14 18 19
  26293839.254     3215531.984 6   2505626.865 3
  23373087.544   -15709043.966 9 -12240789.836 9
  24285312.527    -8689061.519 7  -6770682.055 6
 91 11  5  5 38  0.0100000  0  3 14 18 19
  26318612.901     3345723.503 6   2607074.705 3
  23374760.994   -15700254.064 9 -12233940.549 9
  24283130.037    -8700536.408 7  -6779623.492 6
 91 11  5  5 38 30.0100000  0  3 14 18 19
  26343410.533     3476028.475 6   2708610.982 3
  23376503.084   -15691089.026 9 -12226798.958 9
  24280985.623    -8711800.917 7  -6788401.007 6
 91 11  5  5 39  0.0100000  0  3 14 18 19
  26368230.353     3606441.819 6   2810231.722 3
  23378319.530   -15681549.648 9 -12219365.663 9
  24278886.179    -8722857.899 7  -6797016.812 6
 91 11  5  5 39 30.0100000  0  3 14 18 19
  26393067.859     3736963.185 6   2911936.651 3
  23380208.219   -15671632.367 9 -12211637.903 9
  24276818.808    -8733704.922 7  -6805469.011 6
 91 11  5  5 40  0.0100000  0  3 14 18 19
  26417923.652     3867590.900 6   3013724.405 3
  23382167.660   -15661334.257 9 -12203613.388 9
  24274792.515    -8744341.039 7  -6813756.872 6
 91 11  5  5 40 30.0100000  0  3 14 18 19
  26442798.632     3998319.465 6   3115590.742 2
  23384199.058   -15650656.572 9 -12195293.118 9
  24272810.283    -8754768.984 7  -6821882.504 6
 91 11  5  5 41  0.0100000  0  3 14 18 19
  26467694.299     4129148.422 6   3217535.297 3
  23386301.800   -15639596.275 9 -12186674.694 9
  24270871.224    -8764987.479 7  -6829844.946 6
 91 11  5  5 41 30.0100000  0  3 14 18 19
  26492607.347     4260074.475 6   3319555.596 2
  23388481.289   -15628151.590 9 -12177756.750 9
  24268959.448    -8774996.597 7  -6837644.222 6
 91 11  5  5 42  0.0100000  0  3 14 18 19
  26517544.083     4391094.639 6   3421649.179 3
  23390732.131   -15616321.968 9 -12168538.847 9
  24267096.541    -8784797.054 7  -6845280.922 6
 91 11  5  5 42 30.0100000  0  3 14 18 19
  26542490.714     4522207.550 6   3523814.995 2
  23393057.626   -15604103.875 9 -12159018.256 9
  24265280.095    -8794387.353 7  -6852753.844 6
 91 11  5  5 43  0.0100000  0  3 14 18 19
  26567460.134     4653410.949 6   3626051.331 3
  23395456.865   -15591495.498 9 -12149193.535 9
  24263486.135    -8803766.873 7  -6860062.538 6
 91 11  5  5 43 30.0100000  0  3 14 18 19
  26592441.535     4784700.613 6   3728354.902 2
  23397929.552   -15578497.637 9 -12139065.329 9
  24261740.746    -8812937.829 7  -6867208.701 7
 91 11  5  5 44  0.0100000  0  3 14 18 19
  26617440.027     4916072.951 6   3830722.930 2
  23400478.383   -15565109.402 9 -12128632.924 9
  24260045.719    -8821901.671 7  -6874193.496 7
 91 11  5  5 44 30.0100000  0  3 14 18 19
  26642459.512     5047526.945 6   3933154.560 3
  23403101.570   -15551327.416 9 -12117893.715 9
  24258375.577    -8830656.432 7  -6881015.363 6
 91 11  5  5 45  0.0100000  0  3 14 18 19
  26667489.782     5179061.147 6   4035648.656 3
  23405799.103   -15537149.471 9 -12106845.951 9
  24256743.807    -8839201.104 7  -6887673.523 6
 91 11  5  5 45 30.0100000  0  3 14 18 19
  26692532.345     5310670.266 6   4138201.103 2
  23408570.983   -15522576.979 9 -12095490.755 9
  24255155.209    -8847538.681 7  -6894170.321 6
 91 11  5  5 46  0.0100000  0  3 14 18 19
  26717591.399     5442349.450 6   4240808.225 3
  23411417.209   -15507610.111 9 -12083828.250 9
  24253604.076    -8855671.225 7  -6900507.344 7
 91 11  5  5 46 30.0100000  0  3 14 18 19
  26742663.941     5574097.224 6   4343468.786 1
  23414343.489   -15492246.588 9 -12071856.671 9
  24252101.517    -8863598.262 7  -6906684.246 7
 91 11  5  5 47  0.0100000  0  3 14 18 19
  26767741.580     5705913.250 5   4446182.526 4
  23417344.708   -15476482.963 9 -12059573.312 9
  24250632.234    -8871317.057 7  -6912698.861 6
 91 11  5  5 47 30.0100000  0  3 14 18 19
  26792841.406     5837793.495 6   4548946.271 3
  23420418.782   -15460318.951 9 -12046977.972 9
  24249205.225    -8878829.334 7  -6918552.566 6
 91 11  5  5 48  0.0100000  0  3 14 18 19
  26817952.618     5969735.600 6   4651758.185 3
  23423571.399   -15443753.182 9 -12034069.572 9
  24247815.385    -8886135.096 7  -6924245.348 6
 91 11  5  5 48 30.0100000  0  3 14 18 19
  26843068.027     6101736.147 6   4754615.728 1
  23426799.864   -15426784.399 9 -12020847.143 9
  24246458.230    -8893234.618 7  -6929777.429 7
 91 11  5  5 49  0.0100000  0  3 14 18 19
  26868204.725     6233796.730 6   4857520.039 2
  23430106.872   -15409407.264 9 -12007306.497 9
  24245152.927    -8900124.299 7  -6935146.001 6
 91 11  5  5 49 30.0100000  0  3 14 18 19
  26893341.127     6365913.238 6   4960467.874 3
  23433492.127   -15391621.825 9 -11993447.708 9
  24243880.012    -8906805.585 7  -6940352.178 6
 91 11  5  5 50  0.0100000  0  3 14 18 19
  26918487.118     6498083.766 6   5063457.827 2
  23436952.933   -15373426.422 9 -11979269.461 9
  24242646.369    -8913277.979 7  -6945395.584 6
 91 11  5  5 50 30.0100000  0  3 14 18 19
  26943645.402     6630303.098 5   5166485.834 3
  23440493.783   -15354822.650 9 -11964773.009 9
  24241457.686    -8919544.156 7  -6950278.296 6
 91 11  5  5 51  0.0100000  0  3 14 18 19
  26968816.879     6762568.854 6   5269550.027 2
  23444111.675   -15335808.641 9 -11949956.884 9
  24240301.688    -8925604.311 8  -6955000.483 7
 91 11  5  5 51 30.0100000  0  4 14 18 11 19
  26993996.147     6894878.839 6   5372648.638 3
  23447809.917   -15316382.451 9 -11934819.593 9
  28242472.542      -61627.012 4    -48040.304 2
  24239189.455    -8931458.265 7  -6959561.993 7
 91 11  5  5 52  0.0100000  0  4 14 18 11 19
  27019183.512     7027229.473 6   5475778.924 2
  23451582.803   -15296543.563 9 -11919360.710 9
  28230382.211     -125295.322 5    -97651.868 1
  24238115.001    -8937106.651 7  -6963963.309 6
 91 11  5  5 52 30.0100000  0  4 14 18 11 19
  27044376.871     7159618.363 6   5578939.021 2
  23455438.141   -15276291.303 9 -11903579.727 9
  28218266.403     -188877.604 4   -147196.444 1
  24237081.617    -8942550.017 7  -6968204.877 7
 91 11  5  5 53  0.0100000  0  4 14 18 11 19
  27069575.919     7292041.938 6   5682126.148 2
  23459370.512   -15255624.784 9 -11887475.936 9
  28206198.853     -252370.539 5   -196671.441 2
  24236078.508    -8947788.824 7  -6972287.046 7
 91 11  5  5 53 30.0100000  0  4 14 18 11 19
  27094784.574     7424499.222 6   5785339.612 2
  23463383.539   -15234540.872 9 -11871046.904 9
  28194116.017     -315768.468 5   -246072.227 1
  24235128.170    -8952821.282 7  -6976208.428 6
 91 11  5  5 54  0.0100000  0  4 14 18 11 19
  27119997.119     7556988.038 6   5888577.560 2
  23467474.201   -15213037.913 9 -11854291.352 9
  28182048.171     -379067.590 4   -295396.210 2
  24234209.302    -8957647.608 7  -6979969.183 6
 91 11  5  5 54 30.0100000  0  4 14 18 11 19
  27145211.462     7689506.161 6   5991838.382 3
  23471645.519   -15191114.988 9 -11837208.543 9
  28170046.879     -442264.114 5   -344640.155 1
  24233324.916    -8962267.906 7  -6983569.396 7
 91 11  5  5 55  0.0100000  0  4 14 18 11 19
  27170439.295     7822049.602 6   6095118.898 1
  23475899.577   -15168772.310 9 -11819798.659 9
  28158050.387     -505356.062 5   -393802.584 1
  24232486.399    -8966683.547 7  -6987010.134 7
 91 11  5  5 55 30.0100000  0  4 14 18 11 19
  27195662.031     7954614.435 6   6198416.188 3
  23480229.176   -15146009.332 9 -11802061.263 9
  28146058.990     -568340.822 5   -442881.579 1
  24231682.956    -8970896.043 7  -6990292.580 7
 91 11  5  5 56  0.0100000  0  4 14 18 11 19
  27220890.169     8087198.132 5   6301728.076 1
  23484640.321   -15122825.000 9 -11783995.551 9
  28134078.979     -631214.436 4   -491874.007 1
  24230918.488    -8974905.223 7  -6993416.604 7
 91 11  5  5 56 30.0100000  0  4 14 18 11 19
  27246121.002     8219796.789 5   6405051.576 3
  23489134.511   -15099218.946 9 -11765601.215 9
  28122161.632     -693973.967 5   -540777.382 1
  24230198.378    -8978711.892 7  -6996382.816 6
 91 11  5  5 57  0.0100000  0  5  2 14 18 11 19
  28190317.052     -426401.526 5   -332260.708 2
  27271353.031     8352406.686 5   6508383.931 2
  23493705.744   -15075191.630 9 -11746878.625 9
  28110233.492     -756617.962 5   -589590.832 2
  24229509.758    -8982318.049 7  -6999192.785 6
 91 11  5  5 57 30.0100000  0  5  2 14 18 11 19
  28174649.592     -508697.141 4   -396387.042 1
  27296595.556     8485025.598 5   6611723.243 1
  23498360.624   -15050742.088 9 -11727827.028 9
  28098323.937     -819142.251 4   -638310.901 2
  24228857.111    -8985723.658 7  -7001846.481 6
 91 11  5  5 58  0.0100000  0  5  2 14 18 11 19
  28159007.025     -590911.254 4   -460449.856 2
  27321826.390     8617652.144 5   6715068.590 2
  23503091.047   -15025867.708 9 -11708444.398 9
  28086447.353     -881541.936 4   -686934.001 2
  24228252.731    -8988927.516 7  -7004342.982 7
 91 11  5  5 58 30.0100000  0  5  2 14 18 11 19
  28143380.347     -673043.017 4   -524448.413 3
  27347067.118     8750282.164 5   6818416.602 2
  23507905.719   -15000568.613 9 -11688730.806 9
  28074610.949     -943814.909 4   -735458.238 1
  24227678.925    -8991931.352 7  -7006683.619 7
 91 11  5  5 59  0.0100000  0  5  2 14 18 11 19
  28127774.050     -755088.727 4   -588380.060 1
  27372310.847     8882915.169 6   6921766.881 3
  23512803.123   -14974841.805 9 -11668683.942 9
  28062773.350    -1005955.245 4   -783879.201 2
  24227146.196    -8994733.165 7  -7008866.824 6
 91 11  5  5 59 30.0110000  0  5  2 14 18 11 19
  28112174.946     -837049.075 4   -652245.041 2
  27397547.669     9015553.943 6   7025121.732 4
  23517777.581   -14948684.807 9 -11648301.858 9
  28050978.611    -1067960.924 4   -832195.232 3
  24226650.342    -8997332.466 7  -7010892.245 7
 91 11  5  6  0  0.0110000  0  5  2 14 18 11 19
  28096588.437     -918917.880 4   -716038.815 2
  27422788.703     9148185.006 5   7128470.598 2
  23522839.575   -14922099.553 9 -11627586.079 9
  28039210.856    -1129825.583 4   -880401.326
  24226197.352    -8999730.526 7  -7012760.849 7
 91 11  5  6  0 30.0110000  0  5  2 14 18 11 19
  28081037.606    -1000693.864 4   -779760.155 1
  27448021.630     9280812.526 6   7231816.681 3
  23527979.519   -14895082.562 9 -11606533.871 9
  28027457.192    -1191546.002 4   -928495.121 2
  24225777.945    -9001925.948 7  -7014471.552 6
 91 11  5  6  1  0.0110000  0  5  2 14 18 11 19
  28065492.463    -1082373.848 4   -843406.792
  27473265.351     9413434.994 6   7335158.722 3
  23533204.603   -14867631.286 9 -11585143.264 9
  28015741.901    -1253117.341 4   -976472.694 1
  24225398.403    -9003917.725 7  -7016023.576 6
 91 11  5  6  1 30.0110000  0  5  2 14 18 11 19
  28049967.415    -1163955.212 4   -906976.532 1
  27498500.381     9546050.828 6   7438495.636 3
  23538512.130   -14839744.081 9 -11563412.967 9
  28004089.571    -1314534.900 4  -1024330.428 1
  24225053.045    -9005705.243 7  -7017416.426 7
 91 11  5  6  2  0.0110000  0  5  2 14 18 11 19
  28034455.253    -1245434.595 4   -970466.757 2
  27523730.621     9678658.382 5   7541826.246 2
  23543897.599   -14811418.632 9 -11541341.190 9
  27992399.766    -1375793.906 4  -1072064.621 1
  24224767.638    -9007287.451 7  -7018649.310 7
 91 11  5  6  2 30.0110000  0  5  2 14 18 11 19
  28018968.272    -1326811.239 4  -1033876.996
  27548964.151     9811254.337 5   7645147.714 2
  23549374.804   -14782654.872 9 -11518927.855 9
  27980782.807    -1436891.409 4  -1119673.007 2
  24224489.438    -9008665.018 7  -7019722.725 7
 91 11  5  6  3  0.0110000  0  5  2 14 18 11 19
  28003505.878    -1408081.868 3  -1097204.587 1
  27574195.281     9943837.320 6   7748458.976 4
  23554931.162   -14753450.480 9 -11496171.188 9
  27969169.748    -1497823.072 4  -1167152.069 1
  24224270.586    -9009837.332 7  -7020636.211 8
 91 11  5  6  3 30.0110000  0  5  2 14 18 11 19
  27988070.166    -1489242.966 4  -1160446.884 2
  27599422.215    10076406.562 5   7851759.598 2
  23560570.854   -14723802.906 9 -11473069.176 9
  27957617.843    -1558583.354 4  -1214497.630 2
  24224089.811    -9010802.598 7  -7021388.363 6
 91 11  5  6  4  0.0110000  0  5  2 14 18 11 19
  27972634.445    -1570294.332 4  -1223603.555 2
  27624646.757    10208958.228 5   7955046.518 2
  23566298.094   -14693713.017 9 -11449622.513 9
  27946086.330    -1619170.222 4  -1261708.076 2
  24223948.909    -9011562.253 7  -7021980.284 7
 91 11  5  6  4 30.0110000  0  5  2 14 18 11 19
  27957223.914    -1651240.872 4  -1286678.660 2
  27649862.898    10341482.384 5   8058312.155 1
  23572108.066   -14663186.178 9 -11425835.353 9
  27934599.479    -1679586.729 5  -1308785.749 2
  24223839.487    -9012123.330 7  -7022417.479 7
 91 11  5  6  5  0.0110000  0  5  2 14 18 11 19
  27941854.460    -1732078.544 4  -1349668.910 1
  27675085.338    10473978.882 5   8161556.031 2
  23577999.888   -14632220.090 9 -11401705.936 9
  27923151.604    -1739827.266 5  -1355726.336 2
  24223771.432    -9012484.107 7  -7022698.590 7
 91 11  5  6  5 30.0110000  0  5  2 14 18 11 19
  27926486.795    -1812806.436 4  -1412573.536 2
  27700285.895    10606444.243 5   8264775.708 2
  23583975.950   -14600814.122 9 -11377233.740 9
  27911701.033    -1799889.281 5  -1402527.873 2
  24223735.161    -9012645.470 8  -7022824.328 7
 91 11  5  6  6  0.0110000  0  5  2 14 18 11 19
  27911147.015    -1893426.908 5  -1475394.561 2
  27725492.744    10738871.644 4   8367965.800 2
  23590035.355   -14568972.155 9 -11352421.824 9
  27900307.716    -1859773.470 5  -1449190.727 2
  24223746.548    -9012612.260 7  -7022798.441 7
 91 11  5  6  6 30.0110000  0  5  2 14 18 11 19
  27895830.619    -1973936.073 5  -1538128.824 1
  27750678.006    10871259.770 5   8471125.216 1
  23596178.408   -14536691.549 9 -11327268.097 9
  27888944.684    -1919474.549 5  -1495710.911 3
  24223788.821    -9012382.787 7  -7022619.637 6
 91 11  5  6  7  0.0110000  0  5  2 14 18 11 19
  27880528.915    -2054323.257 4  -1600768.032 3
  27775864.472    11003615.503 4   8574259.471 1
  23602407.795   -14503962.407 9 -11301764.868 9
  27877609.529    -1978980.155 5  -1542078.853 2
  24223867.966    -9011948.386 8  -7022281.114 7
 91 11  5  6  7 30.0110000  0  5  2 14 18 11 19
  27865258.387    -2134593.809 5  -1663316.347 3
  27801046.733    11135929.622 5   8677361.281 2
  23608719.923   -14470790.634 9 -11275916.728 9
  27866334.638    -2038293.298 5  -1588296.749 1
  24223991.479    -9011315.684 7  -7021788.090 7
 91 11  5  6  8  0.0110000  0  5  2 14 18 11 19
  27850010.038    -2214746.747 5  -1725773.036 2
  27826213.115    11268198.204 5   8780427.706 2
  23615115.698   -14437176.908 9 -11249724.219 9
  27855075.033    -2097411.728 5  -1634362.953 2
  24224147.972    -9010486.113 8  -7021141.657 8
 91 11  5  6  8 30.0110000  0  5  2 14 18 11 19
  27834765.894    -2294777.461 4  -1788134.482 1
  27851368.999    11400422.094 5   8883459.290
  23621598.105   -14403117.240 9 -11223184.205 9
  27843867.892    -2156328.710 5  -1680272.195 1
  24224344.933    -9009456.742 7  -7020339.545 8
 91 11  5  6  9  0.0110000  0  5  2 14 18 11 19
  27819574.205    -2374682.480 5  -1850397.922 2
  27876530.878    11532599.973 5   8986454.889 3
  23628162.964   -14368609.137 9 -11196294.774 9
  27832708.417    -2215039.191 5  -1726020.517 1
  24224584.167    -9008226.507 7  -7019380.899 7
 91 11  5  6  9 30.0110000  0  5  2 14 18 11 19
  27804380.728    -2454459.277 5  -1912561.530 2
  27901675.970    11664729.790 5   9089413.115 2
  23634818.058   -14333651.013 9 -11169054.680 9
  27821569.926    -2273538.477 5  -1771604.299 2
  24224853.685    -9006794.438 7  -7018264.982 7
 91 11  5  6 10  0.0110000  0  5  2 14 18 11 19
  27789224.124    -2534108.722 4  -1974625.837 3
  27926805.776    11796806.557 5   9192329.842 1
  23641553.790   -14298245.562 9 -11141466.012 9
  27810474.606    -2331826.235 5  -1817023.243 1
  24225159.771    -9005163.948 7  -7016994.458 8
 91 11  5  6 10 30.0110000  0  5  2 14 18 11 19
  27774104.086    -2613629.184 5  -2036589.696 2
  27951927.179    11928827.836 5   9295203.610 1
  23648376.467   -14262391.574 9 -11113527.836 9
  27799419.762    -2389898.837 5  -1862274.499 2
  24225509.927    -9003334.876 7  -7015569.204 8
 91 11  5  6 11  0.0110000  0  4  2 18 11 19
  27758986.753    -2693021.189 5  -2098453.379 1
  23655283.691   -14226090.801 9 -11085241.518 9
  27788416.484    -2447755.146 5  -1907357.264 1
  24225895.760    -9001309.658 7  -7013991.087 7
 91 11  5  6 11 30.0110000  0  4  2 18 11 19
  27743907.191    -2772283.160 4  -2160215.784 2
  23662279.344   -14189343.076 9 -11056606.929 9
  27777446.178    -2505392.124 5  -1952269.161 1
  24226317.872    -8999089.110 8  -7012260.776 8
 91 11  5  6 12  0.0110000  0  4  2 18 11 19
  27728856.413    -2851412.978 5  -2221875.190 1
  23669355.346   -14152146.969 9 -11027622.950 9
  27766521.739    -2562805.285 5  -1997006.631 1
  24226778.654    -8996672.673 8  -7010377.816 7
 91 11  5  6 12 30.0110000  0  4  2 18 11 19
  27713818.522    -2930410.355 4  -2283431.452 1
  23676516.488   -14114503.617 9 -10998290.465 9
  27755638.370    -2619992.839 5  -2041568.250 2
  24227274.205    -8994061.927 8  -7008343.460 7
 91 11  5  6 13  0.0110000  0  4  2 18 11 19
  27698808.813    -3009275.639 4  -2344884.761 2
  23683768.170   -14076414.187 9 -10968610.389 9
  27744805.074    -2676953.424 5  -2085953.007 1
  24227808.138    -8991258.997 8  -7006159.332 7
 91 11  5  6 13 30.0110000  0  4  2 18 11 19
  27683826.082    -3088007.035 5  -2406233.714 2
  23691100.193   -14037878.072 9 -10938582.251 9
  27734011.940    -2733683.320 5  -2130158.034 3
  24228378.341    -8988264.099 8  -7003825.637 7
 91 11  5  6 14  0.0110000  0  4  2 18 11 19
  27668865.845    -3166598.447 4  -2467473.685 2
  23698518.560   -13998890.645 9 -10908202.436 9
  27723247.293    -2790174.873 5  -2174177.307 2
  24228984.824    -8985073.094 8  -7001339.124 7
 91 11  5  6 14 30.0110000  0  4  2 18 11 19
  27653937.079    -3245048.166 5  -2528603.111 2
  23706024.762   -13959450.935 9 -10877470.198 9
  27712549.498    -2846424.502 5  -2218008.120 1
  24229626.678    -8981686.271 8  -6998700.036 7
 91 11  5  6 15  0.0110000  0  4  2 18 11 19
  27639042.786    -3323350.827 4  -2589618.069 2
  23713616.105   -13919555.067 9 -10846382.504 9
  27701899.377    -2902425.221 5  -2261644.984 1
  24230311.101    -8978100.371 8  -6995905.803 7
 91 11  5  6 15 30.0110000  0  4  2 18 11 19
  27624169.782    -3401507.599 5  -2650519.297 1
  23721294.087   -13879205.729 9 -10814941.467 9
  27691285.823    -2958176.722 5  -2305087.604 2
  24231030.609    -8974318.609 8  -6992958.959 8
 91 11  5  6 16  0.0110000  0  4  2 18 11 19
  27609324.960    -3479517.081 4  -2711305.764 2
  23729057.514   -13838401.995 9 -10783146.342 9
  27680728.634    -3013675.171 5  -2348333.024 2
  24231785.182    -8970340.855 8  -6989859.405 8
 91 11  5  6 16 30.0110000  0  4  2 18 11 19
  27594515.510    -3557378.257 5  -2771976.692 1
  23736911.779   -13797143.755 9 -10750997.070 9
  27670213.412    -3068917.679 5  -2391379.081 2
  24232586.828    -8966167.828 7  -6986607.680 7
 91 11  5  6 17  0.0110000  0  4  2 18 11 19
  27579721.058    -3635088.461 4  -2832530.000 1
  23744845.782   -13755430.454 9 -10718493.200 9
  27659744.956    -3123900.838 5  -2434223.004 2
  24233415.757    -8961799.471 8  -6983203.746 7
 91 11  5  6 17 30.0110000  0  4  2 18 11 19
  27564955.976    -3712647.614 5  -2892965.548 2
  23752874.531   -13713263.274 9 -10685635.663 9
  27649346.354    -3178622.342 5  -2476862.992 2
  24234283.355    -8957237.256 7  -6979648.765 8
 91 11  5  6 18  0.0110000  0  4  2 18 11 19
  27550217.583    -3790055.702 4  -2953283.508 2
  23760983.316   -13670643.222 9 -10652425.224 9
  27638979.834    -3233080.362 5  -2519297.737 2
  24235185.130    -8952482.859 8  -6975944.025 8
 91 11  5  6 18 30.0110000  0  4  2 18 11 19
  27535529.848    -3867311.321 5  -3013482.525 2
  23769179.037   -13627570.355 9 -10618861.953 9
  27628662.175    -3287271.969 5  -2561524.869 2
  24236132.773    -8947537.000 7  -6972090.098 7
 91 11  5  6 19  0.0110000  0  4  2 18 11 19
  27520851.414    -3944413.492 5  -3073562.083 2
  23777460.806   -13584044.304 9 -10584945.546 9
  27618403.279    -3341193.867 5  -2603541.843 1
  24237109.802    -8942400.025 7  -6968087.241 8
 91 11  5  6 19 30.0110000  0  4  2 18 11 19
  27506220.340    -4021363.232 5  -3133522.884 2
  23785830.114   -13540067.353 9 -10550677.789 9
  27608189.047    -3394844.998 5  -2645347.808
  24238117.997    -8937074.379 8  -6963937.363 8
 91 11  5  6 20  0.0110000  0  4  2 18 11 19
  27491597.660    -4098163.196 5  -3193366.902 2
  23794283.959   -13495643.358 9 -10516061.686 9
  27598028.483    -3448226.646 5  -2686943.817 1
  24239170.873    -8931565.031 7  -6959644.360 8
 91 11  5  6 20 30.0110000  0  4  2 18 11 19
  27477011.860    -4174802.437 5  -3253085.691 3
  23802822.045   -13450763.302 9 -10481090.211 9
  27587926.980    -3501326.683 5  -2728320.370 2
  24240248.625    -8925863.096 8  -6955201.275 7
 91 11  5  6 21  0.0110000  0  4  2 18 11 19
  27462460.237    -4251284.377 5  -3312681.913 3
  23811448.874   -13405431.760 9 -10445766.935 9
  27577877.635    -3554146.348 5  -2769478.454 1
  24241373.143    -8919973.389 8  -6950611.888 8
 91 11  5  6 21 30.0110000  0  4  2 18 11 19
  27447941.586    -4327606.615 5  -3372153.779 3
  23820162.344   -13359647.260 9 -10410090.695 9
  27567868.461    -3606681.532 5  -2810414.871 1
  24242536.942    -8913895.293 7  -6945875.690 7
 91 11  5  6 22  0.0110000  0  4  2 18 11 19
  27433443.326    -4403766.107 5  -3431498.718 2
  23828961.852   -13313408.169 9 -10374060.234 9
  27557945.935    -3658927.268 6  -2851125.725 3
  24243725.616    -8907627.806 7  -6940991.928 8
 91 11  5  6 22 30.0110000  0  4  2 18 11 19
  27418975.341    -4479764.714 5  -3490718.346 1
  23837845.601   -13266717.883 9 -10337678.185 9
  27548043.783    -3710883.846 5  -2891611.298 3
  24244949.670    -8901174.671 8  -6935963.496 8
 91 11  5  6 23  0.0110000  0  4  2 18 11 19
  27404548.130    -4555598.921 5  -3549809.849 2
  23846820.187   -13219574.415 9 -10300943.023 9
  27538213.892    -3762546.332 5  -2931867.677 1
  24246213.598    -8894534.192 8  -6930789.082 8
 91 11  5  6 23 30.0110000  0  4  2 18 11 19
  27390153.288    -4631270.685 5  -3608774.770 2
  23855874.223   -13171980.488 9 -10263856.840 9
  27528437.661    -3813914.377 5  -2971894.660 2
  24247511.999    -8887709.673 8  -6925471.258 8
 91 11  5  6 24  0.0110000  0  4  2 18 11 19
  27375780.041    -4706779.109 5  -3667612.418 2
  23865017.291   -13123936.853 9 -10226420.238 9
  27518718.989    -3864985.378 5  -3011690.132 2
  24248843.372    -8880701.729 8  -6920010.516 7
 91 11  5  6 24 30.0110000  0  4  2 18 11 19
  27361440.665    -4782123.068 5  -3726321.889 2
  23874245.507   -13075442.957 9 -10188632.782 9
  27509058.173    -3915756.141 5  -3051251.699
  24250211.626    -8873510.807 8  -6914407.183 7
 91 11  5  6 25  0.0110000  0  4  2 18 11 19
  27347135.474    -4857298.789 5  -3784900.277 3
  23883559.456   -13026497.624 9 -10150493.570 9
  27499461.216    -3966221.487 5  -3090575.253 2
  24251616.456    -8866135.145 8  -6908659.903 6
 91 11  5  6 25 30.0110000  0  4  2 18 11 19
  27332869.545    -4932305.412 5  -3843346.893 2
  23892961.250   -12977101.338 9 -10112002.951 9
  27489913.426    -4016379.090 5  -3129659.014 2
  24253053.656    -8858575.611 8  -6902769.344 7
 91 11  5  6 26  0.0110000  0  4  2 18 11 19
  27318631.503    -5007142.301 5  -3901661.221 3
  23902445.478   -12927254.302 9 -10073161.101 9
  27480439.388    -4066226.558 5  -3168501.153 2
  24254529.238    -8850833.433 8  -6896736.479 6
 91 11  5  6 26 30.0110000  0  5  2 18 11  6 19
  27304415.648    -5081807.264 5  -3959841.617 3
  23912017.550   -12876955.615 9 -10033967.325 9
  27470998.925    -4115759.646 5  -3207098.250 2
  28367726.134      -18606.743 5    -14499.191 2
  24256035.698    -8842907.739 8  -6890560.595 6
 91 11  5  6 27  0.0110000  0  5  2 18 11  6 19
  27290239.964    -5156298.202 5  -4017886.407 3
  23921672.974   -12826205.162 9  -9994421.514 9
  27461635.505    -4164974.703 5  -3245447.539 3
  28358079.706      -69278.733 3    -53983.774 2
  24257579.326    -8834798.677 8  -6884241.826 6
 91 11  5  6 27 30.0110000  0  5  2 18 11  6 19
  27276097.853    -5230612.194 5  -4075793.301 2
  23931419.226   -12775000.247 9  -9954521.577 9
  27452330.246    -4213866.679 5  -3283545.136 2
  28348464.767     -119845.540 5    -93386.411 1
  24259158.632    -8826504.017 8  -6877778.447 6
 91 11  5  6 28  0.0110000  0  5  2 18 11  6 19
  27261996.516    -5304748.179 5  -4133561.502 2
  23941248.218   -12723342.286 9  -9914268.626 9
  27443093.942    -4262433.343 6  -3321389.222 3
  28338852.218     -170308.206 4   -132707.914 2
  24260776.311    -8818024.679 8  -6871171.170 6
 91 11  5  6 28 30.0110000  0  5  2 16 18 11 19
  27247917.060    -5378708.215 5  -4191192.621 2
  28179737.372     -836921.013 5   -652146.138 2
  23951164.453   -12671234.880 9  -9873665.450 9
  27433909.500    -4310675.040 5  -3358980.035 3
  24262421.579    -8809364.339 8  -6864422.843 6
 91 11  5  6 29  0.0110000  0  6  2 16 18 11  6 19
  27233875.376    -5452491.133 5  -4248685.705 2
  28169815.746     -889023.315 5   -692745.318 1
  23961165.827   -12618677.929 9  -9832711.980 9
  27424788.611    -4358588.428 5  -3396315.059 2
  28319707.471      -48586.26815    -37860.147 1
  24264106.711    -8800523.516 8  -6857533.878 7
 91 11  5  6 29 30.0110000  0  6  2 16 18 11  6 19
  27219867.275    -5526092.190 5  -4306037.066 2
  28159995.138     -940730.817 5   -733036.873 1
  23971252.646   -12565667.745 9  -9791405.347 9
  27415742.078    -4406166.779 5  -3433389.011 4
  28310162.682      -98746.593 4    -76946.131 2
  24265823.621    -8791499.035 8  -6850501.806 6
 91 11  5  6 30  0.0110000  0  6  2 16 18 11  6 19
  27205901.744    -5599512.020 5  -4363247.226 2
  28150218.907     -992043.442 5   -773020.584 2
  23981426.708   -12512207.018 9  -9749747.636 9
  27406754.003    -4453409.474 5  -3470201.399 2
  28300639.775     -148806.655 5   -115953.923 2
  24267575.910    -8782292.971 7  -6843328.250 6
 91 11  5  6 30 30.0110000  0  5  2 16 18 11 19
  27191965.590    -5672745.410 5  -4420312.139 2
  28140535.013    -1042955.308 5   -812692.146 1
  23991685.603   -12458291.725 9  -9707735.731 9
  27397824.081    -4500309.539 6  -3506746.838 3
  24269357.272    -8772902.022 8  -6836010.616 6
 91 11  5  6 31  0.0110000  0  6  2 16 18 11  6 19
  27178064.519    -5745795.809 6  -4477234.427 2
  28130910.180    -1093468.838 5   -852053.316 1
  24002030.241   -12403926.867 9  -9665373.497 9
  27388952.922    -4546868.396 5  -3543026.382 2
  28281641.627       -8303.16215     -6470.629 2
  24271181.213    -8763330.708 8  -6828552.433 6
 91 11  5  6 31 30.0110000  0  6  2 16 18 11  6 19
  27164194.615    -5818659.036 6  -4534010.909 3
  28121385.467    -1143579.234 5   -891100.309 1
  24012462.714   -12349109.766 9  -9622658.881 9
  27380157.315    -4593080.258 5  -3579035.537 2
  28272169.387      -58060.137 4    -45242.210 1
  24273038.422    -8753576.797 8  -6820951.968 7
 91 11  5  6 32  0.0110000  0  6  2 16 18 11  6 19
  27150366.696    -5891335.766 6  -4590642.035 1
  28111925.817    -1193286.752 5   -929833.407 2
  24022980.335   -12293842.428 9  -9579593.425 9
  27371441.446    -4638944.256 5  -3614773.632 2
  28262728.619     -107718.816 5    -83937.215 1
  24274925.619    -8743642.715 8  -6813211.128 7
 91 11  5  6 32 30.0110000  0  6  2 16 18 11  6 19
  27136577.438    -5963823.664 5  -4647126.051 1
  28102541.117    -1242588.058 5   -968249.930 2
  24033582.198   -12238123.722 9  -9536176.254 8
  27362786.138    -4684456.025 6  -3650237.272 3
  28253289.656     -157277.921 4   -122554.823 1
  24276855.683    -8733527.239 7  -6805328.912 6
 91 11  5  6 33  0.0110000  0  6  2 16 18 11  6 19
  27122816.066    -6036122.509 6  -4703462.738 2
  28093241.250    -1291482.728 5  -1006349.663 2
  24044269.496   -12181955.494 9  -9492408.807 9
  27354185.990    -4729613.949 5  -3685425.225 3
  28243883.666     -206739.811 4   -161096.360 1
  24278811.233    -8723231.867 8  -6797306.543 7
 91 11  5  6 33 30.0110000  0  6  2 16 18 11  6 19
  27109096.966    -6108229.706 6  -4759650.091 3
  28084005.844    -1339966.980 5  -1044129.541 2
  24055045.538   -12125337.123 9  -9448290.599 9
  27345670.388    -4774413.544 6  -3720333.889 2
  28234485.171     -256103.243 3   -199561.255 2
  24280806.351    -8712755.331 8  -6789142.989 6
 91 11  5  6 34  0.0110000  0  5  2 16 18 11 19
  27095413.535    -6180148.535 6  -4815690.658 2
  28074866.677    -1388043.559 5  -1081591.746 3
  24065901.920   -12068273.026 9  -9403825.077 9
  27337204.843    -4818856.870 6  -3754964.964 3
  24282838.045    -8702102.725 7  -6780842.252 6
 91 11  5  6 34 30.0110000  0  6  2 16 18 11  6 19
  27081758.286    -6251876.423 6  -4871582.430 3
  28065791.359    -1435709.822 5  -1118734.210 1
  24076847.945   -12010762.163 9  -9359011.420 8
  27328817.553    -4862939.441 6  -3789314.961 1
  28215749.945      -10647.73414     -8297.034 2
  24284893.716    -8691273.211 8  -6772403.653 6
 91 11  5  6 35  0.0110000  0  6  2 16 18 11  6 19
  27068145.013    -6323412.102 5  -4927324.468 2
  28056799.978    -1482963.389 5  -1155555.150 2
  24087876.709   -11952804.439 9  -9313849.557 9
  27320505.804    -4906657.942 6  -3823381.243 1
  28206421.303      -59730.068 5    -46543.243 2
  24286986.267    -8680266.444 8  -6763826.940 7
 91 11  5  6 35 30.0110000  0  6  2 16 18 11  6 19
  27054569.215    -6394751.448 5  -4982913.519 2
  28047882.053    -1529799.240 5  -1192050.572 3
  24098989.715   -11894397.863 9  -9268337.943 8
  27312244.130    -4950006.809 6  -3857159.533 2
  28197093.254     -108715.991 4    -84714.034 1
  24289114.199    -8669079.743 8  -6755110.024 6
 91 11  5  6 36  0.0110000  0  6  2 16 18 11  6 19
  27041025.787    -6465895.574 5  -5038350.429 2
  28039059.161    -1576217.845 5  -1228220.847 2
  24110191.463   -11835544.644 9  -9222478.304 9
  27304074.784    -4992985.061 6  -3890649.013 2
  28187785.003     -157608.786 4   -122812.318 3
  24291277.800    -8657715.715 8  -6746254.933 6
 91 11  5  6 36 30.0110000  0  6  2 16 18 11  6 19
  27027530.932    -6536840.809 5  -5093632.343 2
  28030298.332    -1622215.174 5  -1264062.887 1
  24121477.452   -11776242.922 9  -9176269.167 8
  27295962.998    -5035587.501 5  -3923845.612 2
  28178500.431     -206405.926 4   -160836.114 1
  24293474.075    -8646172.271 8  -6737260.012 6
 91 11  5  6 37  0.0110000  0  6  2 16 18 11  6 19
  27014072.050    -6607585.191 6  -5148757.789 4
  28021628.331    -1667788.023 5  -1299574.169 2
  24132844.079   -11716492.364 9  -9129710.294 9
  27287929.162    -5077810.489 6  -3956746.612 2
  28169231.748     -255107.311 5   -198785.003 1
  24295706.037    -8634448.616 8  -6728124.692 7
 91 11  5  6 37 30.0110000  0  6  2 16 18 11  6 19
  27000644.639    -6678126.476 6  -5203724.952 2
  28013029.980    -1712934.787 5  -1334753.436 1
  24144300.348   -11656292.000 9  -9082800.922 9
  27279970.266    -5119650.382 6  -3989349.038 2
  28159987.643     -303712.847 4   -236659.338 2
  24297970.665    -8622543.938 8  -6718848.310 7
 91 11  5  6 38  0.0110000  0  6  2 16 18 11  6 19
  26987264.310    -6748464.250 6  -5258533.516 2
  28004521.874    -1757653.727 5  -1369599.304 3
  24155842.655   -11595643.692 9  -9035542.508 8
  27272068.040    -5161105.086 6  -4021651.308 1
  28150749.838     -352223.527 4   -274459.815 2
  24300273.971    -8610459.435 8  -6709431.806 7
 91 11  5  6 38 30.0110000  0  6  2 16 18 11  6 19
  26973912.747    -6818602.759 6  -5313186.838 4
  27996101.899    -1801947.432 5  -1404113.837 1
  24167469.211   -11534552.818 9  -8987939.225 9
  27264258.744    -5202176.896 6  -4053655.225 2
  28141539.020     -400645.151 4   -312190.715 2
  24302605.460    -8598200.948 8  -6699879.719 5
 91 11  5  6 39  0.0110000  0  6  2 16 18 11  6 19
  26960607.061    -6888540.891 6  -5367684.029 2
  27987750.286    -1845814.688 5  -1438296.058 2
  24179176.405   -11473019.795 9  -8939991.423 8
  27256515.106    -5242863.437 6  -4085358.978 1
  28132338.690     -448978.423 5   -349853.133 1
  24304971.718    -8585768.475 8  -6690192.064 7
 91 11  5  6 39 30.0110000  0  6  2 16 18 11  6 19
  26947338.247    -6958268.574 6  -5422017.225 2
  27979489.501    -1889245.853 5  -1472138.496 1
  24190970.842   -11411036.542 9  -8891692.786 9
  27248867.705    -5283152.819 6  -4116753.244 1
  28123161.437     -497215.428 4   -387440.289 1
  24307371.254    -8573153.299 8  -6680362.045 7
 91 11  5  6 40  0.0120000  0  6  2 16 18 11  6 19
  26934110.199    -7027781.694 6  -5476183.204 3
  27971308.162    -1932234.729 5  -1505636.268 2
  24202853.710   -11348596.226 9  -8843037.999 8
  27241261.969    -5323038.101 6  -4147832.623 2
  28114000.084     -545352.569 4   -424949.648 2
  24309806.470    -8560349.770 8  -6670385.266 6
 91 11  5  6 40 30.0120000  0  6  2 16 18 11  6 19
  26920924.134    -7097082.999 6  -5530184.169 3
  27963208.670    -1974784.790 5  -1538792.079 2
  24214822.326   -11285711.565 9  -8794036.964 9
  27233753.664    -5362522.367 6  -4178599.493 1
  28104860.611     -593395.604 4   -462385.636 2
  24312278.259    -8547367.514 8  -6660269.194 6
 91 11  5  6 41  0.0120000  0  6  2 16 18 11  6 19
  26907775.238    -7166173.469 6  -5584020.820 2
  27955201.218    -2016896.474 5  -1571606.331 3
  24226871.885   -11222381.257 9  -8744688.672 8
  27226307.717    -5401604.328 6  -4209052.906 2
  28095734.025     -641346.490 4   -499749.923 1
  24314782.426    -8534206.335 8  -6650013.721 7
 91 11  5  6 41 30.0120000  0  6  2 16 18 11  6 19
  26894669.505    -7235053.460 6  -5637693.486 3
  27947257.914    -2058569.321 5  -1604078.625 1
  24239007.185   -11158607.059 9  -8694994.503 8
  27218951.412    -5440282.583 6  -4239191.740 1
  28086632.332     -689207.738 4   -537044.231 2
  24317323.771    -8520867.734 8  -6639619.993 6
 91 11  5  6 42  0.0120000  0  6  2 16 18 11  6 19
  26881599.755    -7303724.609 6  -5691203.378 3
  27939426.736    -2099803.804 6  -1636209.324 2
  24251227.328   -11094392.658 9  -8644957.302 9
  27211676.949    -5478557.168 6  -4269016.034 2
  28077538.125     -736981.940 4   -574270.818 1
  24319893.586    -8507354.742 8  -6629090.375 6
 91 11  5  6 42 30.0120000  0  6  2 16 18 11  6 19
  26868571.675    -7372180.646 6  -5744545.679 3
  27931663.309    -2140593.439 5  -1667993.361 2
  24263530.805   -11029733.221 9  -8594573.329 9
  27204457.043    -5516419.919 6  -4298519.408 3
  28068461.612     -784664.921 4   -611426.352 1
  24322501.486    -8493662.212 8  -6618420.859 6
 91 11  5  6 43  0.0120000  0  6  2 16 18 11  6 19
  26855589.167    -7440413.975 6  -5797714.436 3
  27923976.933    -2180929.711 5  -1699424.182 2
  24275920.931   -10964622.484 9  -8543837.694 9
  27197342.075    -5553861.692 6  -4327694.760 1
  28059400.979     -832250.308 4   -648505.801 1
  24325134.261    -8479783.940 8  -6607606.606 6
 91 11  5  6 43 30.0120000  0  6  2 16 18 11  6 19
  26842645.921    -7508431.942 6  -5850715.408 2
  27916381.988    -2220819.986 5  -1730507.462 2
  24288397.391   -10899069.646 9  -8492757.568 8
  27190294.848    -5590888.205 6  -4356546.526 2
  28050367.037     -879747.290 4   -685516.347 1
  24327817.704    -8465728.391 7  -6596654.224 6
 91 11  5  6 44  0.0120000  0  6  2 16 18 11  6 19
  26829739.261    -7576229.295 6  -5903544.416 2
  27908879.083    -2260258.091 6  -1761238.381 2
  24300953.896   -10833071.597 9  -8441330.515 8
  27183327.971    -5627492.997 6  -4385069.665 2
  28041347.778     -927152.368 5   -722455.295 1
  24330521.231    -8451491.684 8  -6585560.663 6
 91 11  5  6 44 30.0120000  0  6  2 16 18 11  6 19
  26816878.764    -7643803.932 6  -5956199.931 4
  27901463.421    -2299241.743 6  -1791615.199 2
  24313598.245   -10766628.343 9  -8389556.553 9
  27176436.042    -5663672.434 6  -4413261.369 2
  28032347.706     -974465.442 5   -759322.594 1
  24333265.827    -8437073.350 8  -6574325.588 6
 91 11  5  6 45  0.0120000  0  6  2 16 18 11  6 19
  26804066.832    -7711148.369 6  -6008676.080 4
  27894139.190    -2337762.902 6  -1821631.617 3
  24326328.930   -10699733.624 9  -8337430.807 8
  27169635.553    -5699417.233 6  -4441114.386 3
  28023359.631    -1021680.496 5   -796113.496 1
  24336049.408    -8422467.091 8  -6562944.088 7
 91 11  5  6 45 30.0120000  0  6  2 16 18 11  6 19
  26791295.672    -7778267.512 6  -6060976.650 2
  27886890.805    -2375825.996 6  -1851291.142 3
  24339140.862   -10632393.852 9  -8284958.252 8
  27162924.400    -5734730.813 6  -4468631.356 1
  28014394.940    -1068803.818 5   -832832.925 3
  24338858.160    -8407678.994 8  -6551420.878 6
 91 11  5  6 46  0.0120000  0  6  2 16 18 11  6 19
  26778564.089    -7845157.499 6  -6113098.644 2
  27879736.260    -2413426.611 6  -1880590.238 2
  24352043.928   -10564607.348 9  -8232137.607 8
  27156284.592    -5769607.442 6  -4495807.910 3
  28005439.837    -1115833.247 5   -869479.144 1
  24341707.091    -8392705.943 8  -6539753.536 7
 91 11  5  6 46 30.0120000  0  6  2 16 18 11  6 19
  26765888.259    -7911816.424 6  -6165040.606 1
  27872672.551    -2450562.363 6  -1909527.152 2
  24365027.641   -10496373.894 9  -8178968.684 8
  27149726.931    -5804044.012 6  -4522641.519 4
  27996510.220    -1162768.619 5   -906052.139 2
  24344598.287    -8377547.498 7  -6527941.746 6
 91 11  5  6 47  0.0120000  0  6  2 16 18 11  6 19
  26753242.418    -7978243.959 6  -6216802.254 2
  27865693.982    -2487232.371 6  -1938101.137 2
  24378095.297   -10427694.748 9  -8125452.475 7
  27143258.615    -5838038.611 6  -4549130.773 3
  27987597.993    -1209610.863 5   -942552.615 2
  24347513.468    -8362204.035 8  -6515985.786 6
 91 11  5  6 47 30.0120000  0  6  2 16 18 11  6 19
  26740641.241    -8044438.166 6  -6268382.137 2
  27858802.656    -2523434.553 6  -1966310.598 2
  24391248.992   -10358569.615 9  -8071588.732 8
  27136877.533    -5871587.935 6  -4575273.008 3
  27978695.651    -1256360.022 5   -978980.400 2
  24350466.123    -8346675.425 8  -6503885.567 6
 91 11  5  6 48  0.0120000  0  6  2 16 18 11  6 19
  26728090.425    -8110398.911 6  -6319780.047 2
  27852004.557    -2559167.432 6  -1994154.343 2
  24404488.123   -10289000.092 9  -8017378.720 8
  27130582.489    -5904689.829 6  -4601066.627 2
  27969825.696    -1303017.246 5  -1015336.618 1
  24353454.752    -8330962.315 8  -6491641.569 7
 91 11  5  6 48 30.0120000  0  6  2 16 18 11  6 19
  26715587.885    -8176120.920 6  -6370991.949 2
  27845291.005    -2594425.713 5  -2021628.275
  24417812.996   -10218982.772 9  -7962819.774 8
  27124361.198    -5937337.461 6  -4626506.286 3
  27960958.132    -1349578.828 5  -1051618.359 1
  24356480.559    -8315060.465 8  -6479250.498 7
 91 11  5  6 49  0.0120000  0  6  2 16 18 11  6 19
  26703130.008    -8241605.368 6  -6422018.727 3
  27838676.988    -2629209.981 5  -2048732.853 1
  24431220.618   -10148520.980 9  -7907914.484 8
  27118240.037    -5969530.762 6  -4651591.918 3
  27952122.049    -1396047.878 5  -1087827.985 2
  24359545.637    -8298972.368 8  -6466714.314 7
 91 11  5  6 49 30.0120000  0  6  2 16 18 11  6 19
  26690708.411    -8306851.552 6  -6472859.872 3
  27832144.508    -2663519.709 5  -2075467.639 2
  24444713.973   -10077615.545 9  -7852663.500 8
  27112200.717    -6001267.601 6  -4676321.835 2
  27943290.162    -1442424.987 5  -1123965.880 2
  24362641.890    -8282698.457 8  -6454033.330 6
 91 11  5  6 50  0.0120000  0  6  2 16 18 11  6 19
  26678341.372    -8371855.984 6  -6523512.611 1
  27825709.164    -2697350.492 6  -2101829.248 2
  24458289.483   -10006264.753 9  -7797065.485 8
  27106245.037    -6032542.662 6  -4700691.959 2
  27934493.350    -1488708.072 5  -1160030.567 2
  24365772.931    -8266236.166 8  -6441205.555 6
 91 11  5  6 50 30.0120000  0  6  2 16 18 11  6 19
  26666012.104    -8436618.413 6  -6573976.801 2
  27819350.567    -2730701.920 5  -2127817.309 2
  24471952.820    -9934470.126 9  -7741121.633 8
  27100385.297    -6063354.734 6  -4724701.325 3
  27925700.735    -1534898.762 5  -1196023.358 2
  24368943.234    -8249586.673 8  -6428231.912 7
 91 11  5  6 51  0.0120000  0  6  2 16 18 11  6 19
  26653736.801    -8501137.199 6  -6624251.092 3
  27813110.988    -2763570.972 6  -2153429.544 1
  24485700.398    -9862231.793 9  -7684832.016 8
  27094620.583    -6093700.260 6  -4748347.114 2
  27916926.417    -1580996.538 5  -1231943.610 2
  24372145.611    -8232748.955 8  -6415111.597 6
 91 11  5  6 51 30.0120000  0  6  2 16 18 11  6 19
  26641501.676    -8565412.709 6  -6674335.869 3
  27806940.059    -2795958.521 6  -2178666.544 2
  24499531.031    -9789552.736 9  -7628198.996 8
  27088921.534    -6123578.675 6  -4771628.944 2
  27908175.473    -1627003.916 5  -1267793.500 1
  24375388.472    -8215724.985 8  -6401846.158 6
 91 11  5  6 52  0.0120000  0  6  2 16 18 11  6 19
  26629319.610    -8629443.301 6  -6724229.790 3
  27800868.064    -2827862.565 6  -2203526.750 2
  24513443.496    -9716432.299 9  -7571222.033 8
  27083329.498    -6152986.227 6  -4794543.887 3
  27899432.321    -1672920.490 4  -1303572.571 2
  24378661.007    -8198513.839 8  -6388434.867 6
 91 11  5  6 52 30.0120000  0  6  2 16 18 11  6 19
  26617185.505    -8693230.075 6  -6773933.698 2
  27794902.192    -2859283.560 6  -2228010.605 2
  24527441.110    -9642873.689 9  -7513903.641 8
  27077819.915    -6181922.513 6  -4817091.582 2
  27890718.860    -1718749.045 5  -1339283.087 1
  24381970.711    -8181117.685 8  -6374879.415 7
 91 11  5  6 53  0.0120000  0  6  2 16 18 11  6 19
  26605087.984    -8756773.015 6  -6823447.618 2
  27789010.972    -2890221.278 5  -2252117.883 2
  24541520.862    -9568878.497 9  -7456245.055 8
  27072405.967    -6210386.438 6  -4839271.213 3
  27882005.992    -1764490.776 5  -1374925.969 2
  24385317.000    -8163537.365 8  -6361180.455 6
 91 11  5  6 53 30.0120000  0  6  2 16 18 11  6 19
  26593040.520    -8820067.867 6  -6872768.229 2
  27783205.486    -2920671.093 5  -2275844.975 2
  24555684.854    -9494444.798 9  -7398244.767 7
  27067082.848    -6238372.109 6  -4861078.169 2
  27873321.001    -1810143.165 5  -1410499.184 2
  24388698.651    -8145769.476 8  -6347335.331 6
 91 11  5  6 54  0.0120000  0  6  2 16 18 11  6 19
  26581052.717    -8883111.928 6  -6921893.422 2
  27777509.735    -2950630.020 5  -2299189.577 2
  24569933.690    -9419572.185 9  -7339902.484 7
  27061847.277    -6265875.889 6  -4882509.649 3
  27864646.803    -1855705.103 4  -1446001.989 3
  24392118.388    -8127812.951 8  -6333343.225 7
 91 11  5  6 54 30.0120000  0  6  2 16 18 11  6 19
  26569097.896    -8945901.764 6  -6970820.502 2
  27771906.007    -2980094.802 5  -2322149.052 1
  24584265.868    -9344258.070 9  -7281216.154 7
  27056711.233    -6292892.874 6  -4903561.796 1
  27855995.396    -1901174.674 4  -1481432.674 2
  24395570.495    -8109665.252 8  -6319202.148 7
 91 11  5  6 55  0.0120000  0  6  2 16 18 11  6 19
  26557202.432    -9008436.001 6  -7019548.423 2
  27766394.024    -3009062.596 5  -2344721.351 2
  24598683.185    -9268503.884 9  -7222186.926 7
  27051659.726    -6319419.831 6  -4924232.088 2
  27847368.872    -1946551.706 5  -1516791.374 2
  24399061.280    -8091325.537 8  -6304911.458 7
 91 11  5  6 55 30.0120000  0  6  2 16 18 11  6 19
  26545350.139    -9070715.114 6  -7068077.544 3
  27760977.974    -3037534.327 5  -2366907.046 2
  24613181.149    -9192311.336 9  -7162816.121 7
  27046705.356    -6345456.115 6  -4944520.072 3
  27838741.737    -1991838.674 5  -1552080.004 1
  24402582.943    -8072795.131 8  -6290472.160 6
 91 11  5  6 56  0.0120000  0  6  2 16 18 11  6 19
  26533543.112    -9132736.155 6  -7116405.604 3
  27755657.254    -3065506.224 5  -2388703.266 1
  24627764.855    -9115679.039 9  -7103102.645 7
  27041838.822    -6370997.328 6  -4964422.270 2
  27830140.394    -2037033.376 5  -1587296.494 1
  24406151.077    -8054072.202 7  -6275882.844 7
 91 11  5  6 56 30.0120000  0  6  2 16 18 11  6 19
  26521794.247    -9194500.893 6  -7164533.899 4
  27750422.878    -3092980.246 5  -2410111.551 1
  24642427.705    -9038611.803 9  -7043050.257 7
  27037074.825    -6396043.724 6  -4983938.883 3
  27821555.838    -2082139.463 5  -1622443.995 1
  24409748.579    -8035159.558 8  -6261145.722 7
 91 11  5  6 57  0.0120000  0  6  2 16 18 11  6 19
  26510087.350    -9256007.611 6  -7212461.158 3
  27745290.438    -3119954.369 5  -2431130.336 1
  24657177.790    -8961108.918 9  -6982658.399 7
  27032406.752    -6420592.337 6  -5003067.624 1
  27812995.860    -2127156.863 4  -1657522.440 2
  24413383.869    -8016056.433 8  -6246260.157 6
 91 11  5  6 57 30.0120000  0  6  2 16 18 11  6 19
  26498437.113    -9317256.064 6  -7260187.166 3
  27740247.325    -3146428.259 5  -2451759.299 1
  24672008.826    -8883172.788 9  -6921928.960 7
  27027828.627    -6444641.944 6  -5021807.557 3
  27804445.481    -2172086.484 4  -1692532.427 2
  24417057.227    -7996763.478 7  -6231226.669 6
 91 11  5  6 58  0.0120000  0  6  2 16 18 11  6 19
  26486827.955    -9378245.686 6  -7307711.526 4
  27735311.243    -3172400.646 5  -2471997.462 2
  24686920.499    -8804804.198 9  -6860862.523 7
  27023347.324    -6468190.053 6  -5040156.692 2
  27795913.685    -2216929.232 5  -1727474.739 1
  24420757.258    -7977280.657 8  -6216045.230 6
 91 11  5  6 58 30.0120000  0  6  2 16 18 11  6 19
  26475270.056    -9438981.669 6  -7355038.194 3
  27730459.698    -3197876.461 5  -2491848.693 3
  24701915.524    -8726010.262 9  -6799464.655 7
  27018958.960    -6491240.860 6  -5058118.283 1
  27787399.584    -2261691.946 5  -1762354.759 2
  24424502.869    -7957614.713 8  -6200721.110 6
 91 11  5  6 59  0.0120000  0  6  2 16 18 11  6 19
  26463761.620    -9499452.016 6  -7402157.905 4
  27725710.988    -3222843.551 5  -2511303.525 3
  24716990.880    -8646780.870 9  -6737727.474 7
  27014670.430    -6513780.969 6  -5075681.973 2
  27778880.379    -2306363.770 4  -1797163.969 3
  24428285.046    -7937753.731 7  -6185245.010 6
 91 11  5  6 59 30.0120000  0  6  2 16 18 11  6 19
  26452303.851    -9559656.811 6  -7449070.680 3
  27721051.911    -3247302.023 5  -2530362.042 2
  24732150.792    -8567118.455 9  -6675652.862 6
  27010476.034    -6535809.173 6  -5092846.754 1
  27770410.044    -2350946.316 4  -1831903.509 1
  24432101.706    -7917699.006 7  -6169617.939 7
 91 11  5  7  0  0.0120000  0  6  2 16 18 11  6 19
  26440900.648    -9619596.590 6  -7495776.959 5
  27716493.870    -3271251.449 5  -2549023.917 2
  24747391.341    -8487025.008 9  -6613242.395 7
  27006383.871    -6557324.536 6  -5109611.934 2
  27761934.909    -2395441.442 5  -1866574.949 1
  24435951.939    -7897451.582 8  -6153840.715 6
 91 11  5  7  0 30.0120000  0  6  2 16 18 11  6 19
  26429548.104    -9679271.127 6  -7542276.566 4
  27712038.053    -3294691.891 5  -2567289.119 2
  24762712.833    -8406502.646 9  -6550497.693 8
  27002387.640    -6578325.807 6  -5125976.514 2
  27753488.855    -2439850.427 5  -1901179.285 4
  24439841.148    -7877012.318 8  -6137914.011 6
 91 11  5  7  1  0.0120000  0  6  2 16 18 11  6 19
  26418239.036    -9738675.817 6  -7588565.877 2
  27707677.872    -3317618.219 6  -2585153.771 2
  24778119.168    -8325548.959 9  -6487416.917 7
  26998492.734    -6598807.342 6  -5141936.100 2
  27745055.401    -2484170.032 5  -1935714.008 2
  24443768.127    -7856377.639 8  -6121835.032 6
 91 11  5  7  1 30.0120000  0  6  2 16 18 11  6 19
  26406987.223    -9797811.824 6  -7634645.845 3
  27703405.832    -3340032.131 5  -2602619.124 2
  24793608.845    -8244166.644 9  -6424002.116 8
  26994693.159    -6618768.692 6  -5157490.364 3
  27736637.529    -2528402.964 5  -1970181.156 1
  24447731.691    -7835549.377 8  -6105605.204 7
 91 11  5  7  2  0.0120000  0  6  2 16 18 11  6 19
  26395785.780    -9856676.466 6  -7680514.330 3
  27699246.511    -3361930.373 6  -2619682.646 2
  24809176.166    -8162354.910 9  -6360252.723 7
  26990993.721    -6638206.095 6  -5172636.339 2
  27728239.437    -2572547.799 5  -2004579.648 2
  24451730.923    -7814525.613 8  -6089223.040 6
 91 11  5  7  2 30.0120000  0  6  2 16 18 11  6 19
  26384636.792    -9915269.868 6  -7726171.498 4
  27695169.931    -3383313.008 5  -2636344.378 2
  24824823.532    -8080116.399 9  -6296170.776 7
  26987397.415    -6657118.512 6  -5187373.243 2
  27719858.743    -2616606.059 5  -2038910.798 1
  24455766.722    -7793307.339 8  -6072689.319 7
 91 11  5  7  3  0.0120000  0  6  2 16 18 11  6 19
  26373534.283    -9973590.412 6  -7771616.038 4
  27691197.084    -3404177.961 6  -2652602.757 1
  24840557.242    -7997450.826 9  -6231756.045 7
  26983898.532    -6675502.731 6  -5201698.558 2
  27711488.834    -2660577.369 5  -2073174.038 1
  24459845.702    -7771892.902 8  -6056002.731 6
 91 11  5  7  3 30.0120000  0  6  2 16 18 11  6 19
  26362493.827   -10031639.671 6  -7816849.166 3
  27687332.462    -3424527.489 6  -2668459.516 3
  24856368.893    -7914362.585 9  -6167011.964 7
  26980498.593    -6693359.503 6  -5215612.883 2
  27703136.017    -2704464.619 5  -2107371.818 2
  24463956.153    -7750285.328 8  -6039165.648 6
 91 11  5  7  4  0.0120000  0  6  2 16 18 11  6 19
  26351496.543   -10089414.003 6  -7861868.077 4
  27683562.570    -3444356.942 6  -2683911.009 2
  24872260.894    -7830849.326 9  -6101936.704 7
  26977197.876    -6710684.087 6  -5229112.542 1
  27694790.991    -2748265.847 5  -2141502.614 2
  24468106.181    -7728481.460 8  -6022175.618 7
 91 11  5  7  4 30.0120000  0  6  2 16 18 11  6 19
  26340550.518   -10146919.042 6  -7906677.157 4
  27679884.718    -3463672.095 6  -2698961.727 1
  24888232.633    -7746918.848 9  -6036536.345 7
  26974002.689    -6727480.772 6  -5242200.815 3
  27686480.752    -2791987.523 5  -2175571.458 1
  24472291.285    -7706487.423 8  -6005037.406 7
 91 11  5  7  5  0.0120000  0  6  2 16 18 11  6 19
  26329664.453   -10204147.376 7  -7951270.622 2
  27676306.691    -3482465.625 6  -2713606.019 1
  24904280.525    -7662566.024 9  -5970806.868 7
  26970908.826    -6743740.877 6  -5254871.006 3
  27678173.803    -2835623.640 5  -2209573.578 1
  24476514.464    -7684297.077 8  -5987746.209 6
 91 11  5  7  5 30.0120000  0  6  2 16 18 11  6 19
  26318825.756   -10261102.190 7  -7995650.951 5
  27672826.698    -3500740.387 6  -2727846.024 1
  24920414.455    -7577795.866 9  -5904752.205 7
  26967918.103    -6759466.793 6  -5267124.919 3
  27669890.830    -2879179.387 5  -2243513.035 2
  24480772.710    -7661914.470 8  -5970305.211 6
 91 11  5  7  6  0.0120000  0  6  2 16 18 11  6 19
  26308036.828   -10317784.076 6  -8039818.609 3
  27669445.640    -3518497.200 6  -2741682.487 3
  24936625.132    -7492611.158 9  -5838374.526 8
  26965027.204    -6774657.658 6  -5278961.935 2
  27661609.664    -2922655.962 5  -2277390.833 2
  24485068.735    -7639340.395 8  -5952715.014 7
 91 11  5  7  6 30.0120000  0  6  2 16 18 11  6 19
  26297309.952   -10374186.492 7  -8083768.485 2
  27666172.512    -3535728.892 6  -2755109.748 2
  24952912.860    -7407007.035 9  -5771670.005 6
  26962243.030    -6789305.641 6  -5290375.914 4
  27653355.484    -2966047.939 5  -2311202.723 2
  24489405.533    -7616568.727 7  -5934970.864 7
 91 11  5  7  7  0.0120000  0  6  2 16 18 11  6 19
  26286627.147   -10430309.639 7  -8127500.771 4
  27662987.812    -3552436.210 6  -2768128.387 2
  24969282.429    -7320986.345 9  -5704640.915 7
  26959559.885    -6803410.092 6  -5301366.351 2
  27645118.082    -3009357.432 5  -2344950.351 2
  24493773.811    -7593600.730 8  -5917073.697 6
 91 11  5  7  7 30.0120000  0  6  2 16 18 11  6 19
  26276000.104   -10486154.709 7  -8171016.362 3
  27659907.447    -3568620.300 6  -2780739.336 2
  24985730.236    -7234551.604 9  -5637289.178 7
  26956975.673    -6816971.346 6  -5311933.523 2
  27636891.779    -3052586.680 5  -2378635.437 2
  24498186.160    -7570437.992 7  -5899024.810 7
 91 11  5  7  8  0.0120000  0  6  2 16 18 11  6 19
  26265427.619   -10541719.899 7  -8214313.871 2
  27656928.407    -3584279.025 6  -2792940.932 2
  25002255.994    -7147703.286 9  -5569615.178 7
  26954498.493    -6829986.457 6  -5322075.159 4
  27628682.263    -3095735.084 5  -2412257.452 2
  24502622.485    -7547079.377 8  -5880823.285 7
 91 11  5  7  8 30.0120000  0  6  2 16 18 11  6 19
  26254907.904   -10596998.429 7  -8257387.992 3
  27654053.100    -3599405.393 6  -2804727.670 2
  25018865.696    -7060436.775 9  -5501615.293 7
  26952130.132    -6842447.245 6  -5331784.820 2
  27620482.039    -3138796.734 5  -2445811.955 2
  24507109.783    -7523518.419 8  -5862464.095 6
 91 11  5  7  9  0.0120000  0  6  2 16 18 11  6 19
  26244441.551   -10651995.274 7  -8300242.648 2
  27651275.522    -3614004.569 6  -2816103.623 2
  25035549.448    -6972758.712 9  -5433294.727 7
  26949859.204    -6854357.593 6  -5341065.597 2
  27612303.402    -3181778.373 5  -2479304.136 1
  24511632.146    -7499760.616 8  -5843951.502 6
 91 11  5  7  9 30.0120000  0  6  2 16 18 11  6 19
  26234028.858   -10706707.443 7  -8342875.465 2
  27648592.674    -3628073.412 6  -2827066.340 2
  25052311.150    -6884668.214 8  -5364652.798 7
  26947699.199    -6865713.453 6  -5349914.260 3
  27604143.348    -3224677.499 5  -2512731.964 1
  24516189.593    -7475803.775 8  -5825283.827 6
 91 11  5  7 10  0.0120000  0  6  2 16 18 11  6 19
  26223674.631   -10761135.149 7  -8385286.609 4
  27646017.763    -3641613.251 6  -2837616.832 2
  25069151.988    -6796168.217 8  -5295691.761 7
  26945642.324    -6876514.718 6  -5358330.808 3
  27595995.894    -3267496.323 5  -2546097.199 2
  24520787.211    -7451648.867 7  -5806461.809 7
 91 11  5  7 10 30.0120000  0  6  2 16 18 11  6 19
  26213370.164   -10815273.962 7  -8427472.665 4
  27643542.677    -3654618.913 6  -2847751.061 2
  25086070.777    -6707256.077 8  -5226409.590 6
  26943694.269    -6886755.580 7  -5366310.675 3
  27587861.318    -3310231.482 5  -2579397.297 2
  24525416.012    -7427292.039 8  -5787482.466 6
 91 11  5  7 11  0.0120000  0  6  2 16 18 11  6 19
  26203124.452   -10869121.613 7  -8469431.831 5
  27641178.809    -3667087.618 6  -2857466.902 2
  25103068.711    -6617930.795 8  -5156805.482 7
  26941852.346    -6896432.260 6  -5373850.907 4
  27579748.040    -3352881.510 5  -2612631.059 1
  24530093.970    -7402730.831 8  -5768343.832 7
 91 11  5  7 11 30.0120000  0  6  2 16 18 11  6 19
  26192933.909   -10922677.884 7  -8511163.955 4
  27638905.185    -3679019.872 6  -2866764.756 1
  25120146.384    -6528194.979 8  -5086881.486 7
  26940127.340    -6905543.946 7  -5380950.884 2
  27571640.450    -3395447.451 5  -2645799.328 2
  24534813.007    -7377965.942 7  -5749046.505 6
 91 11  5  7 12  0.0120000  0  6  2 16 18 11  6 19
  26182797.627   -10975941.501 7  -8552668.041 4
  27636731.691    -3690414.211 6  -2875643.440 2
  25137298.710    -6438049.595 8  -5016638.324 7
  26938496.163    -6914088.471 7  -5387608.941 3
  27563556.244    -3437929.652 5  -2678902.226 1
  24539562.616    -7352996.827 8  -5729590.053 7
 91 11  5  7 12 30.0120000  0  6  2 16 18 11  6 19
  26172714.403   -11028909.002 7  -8593941.367 5
  27634667.016    -3701267.302 6  -2884100.375 2
  25154533.181    -6347492.833 8  -4946074.630 7
  26936979.521    -6922061.518 6  -5393821.666 2
  27555488.232    -3480325.565 5  -2711937.976 2
  24544346.401    -7327820.500 8  -5709972.128 6
 91 11  5  7 13  0.0120000  0  6  2 16 18 11  6 19
  26162694.444   -11081579.438 7  -8634983.226 3
  27632706.074    -3711577.660 6  -2892134.393 2
  25171840.796    -6256525.859 8  -4875191.296 7
  26935568.392    -6929460.960 7  -5399587.449 3
  27547438.508    -3522634.986 5  -2744906.338 1
  24549179.954    -7302436.016 8  -5690191.996 6
 91 11  5  7 13 30.0120000  0  6  2 16 18 11  6 19
  26152731.138   -11133952.028 7  -8675792.997 4
  27630846.762    -3721345.551 6  -2899745.693 4
  25189232.957    -6165150.152 8  -4803989.450 7
  26934269.092    -6936285.359 7  -5404905.135 2
  27539402.569    -3564858.724 5  -2777807.929 2
  24554047.989    -7276843.569 8  -5670249.821 6
 91 11  5  7 14  0.0120000  0  6  2 16 18 11  6 19
  26142814.004   -11186023.962 7  -8716368.492 3
  27629091.479    -3730568.217 6  -2906932.182 2
  25206696.768    -6073365.354 8  -4732468.834 7
  26933083.411    -6942530.923 7  -5409771.770 2
  27531390.014    -3606995.305 5  -2810641.530 1
  24558957.084    -7251040.832 8  -5650143.808 7
 91 11  5  7 14 30.0120000  0  6  2 16 18 11  6 19
  26132971.218   -11237796.756 7  -8756710.880 5
  27627442.024    -3739247.372 6  -2913695.137 2
  25224239.725    -5981174.944 8  -4660632.164 7
  26932003.260    -6948198.179 7  -5414187.802 3
  27523387.056    -3649046.917 5  -2843409.002 1
  24563908.758    -7225029.690 8  -5629875.365 6
 91 11  5  7 15  0.0120000  0  6  2 16 18 11  6 19
  26123168.610   -11289268.475 7  -8796818.671 5
  27625892.392    -3747381.143 6  -2920033.101 3
  25241859.725    -5888578.753 8  -4588479.301 7
  26931035.532    -6953284.643 7  -5418151.240 3
  27515404.183    -3691013.192 5  -2876109.947 2
  24568900.000    -7198808.414 8  -5609443.193 6
 91 11  5  7 15 30.0120000  0  6  2 16 18 11  6 19
  26113433.143   -11340441.082 7  -8836693.398 4
  27624445.595    -3754971.548 6  -2925947.669 2
  25259556.174    -5795580.868 8  -4516013.432 6
  26930179.922    -6957791.348 7  -5421662.925 2
  27507430.900    -3732896.794 5  -2908746.518 2
  24573930.819    -7172379.161 8  -5588848.966 7
 91 11  5  7 16  0.0120000  0  6  2 16 18 11  6 19
  26103753.751   -11391313.945 7  -8876334.539 4
  27623109.117    -3762018.406 6  -2931438.707 2
  25277328.470    -5702182.410 8  -4443235.415 7
  26929432.241    -6961716.414 7  -5424721.399 3
  27499472.309    -3774697.953 5  -2941318.824 1
  24578997.316    -7145741.572 8  -5568092.406 6
 91 11  5  7 16 30.0120000  0  6  2 16 18 11  6 19
  26094128.010   -11441881.872 7  -8915738.088 4
  27621870.379    -3768516.168 6  -2936501.873 3
  25295181.108    -5608381.089 8  -4370143.496 6
  26928804.478    -6965053.913 7  -5427322.021 3
  27491540.705    -3816412.814 5  -2973823.865 2
  24584105.178    -7118890.936 8  -5547169.809 6
 91 11  5  7 17  0.0120000  0  6  2 16 18 11  6 19
  26084564.035   -11492148.899 7  -8954907.152 4
  27620735.966    -3774469.544 5  -2941140.851 3
  25313105.701    -5514182.358 8  -4296741.889 6
  26928273.241    -6967807.174 7  -5429467.411 4
  27483615.087    -3858046.356 5  -3006265.539 2
  24589254.117    -7091831.738 8  -5526084.710 7
 91 11  5  7 17 30.0120000  0  6  2 16 18 11  6 19
  26075054.617   -11542116.027 7  -8993842.540 5
  27619711.272    -3779879.592 6  -2945356.416 1
  25331106.743    -5419589.159 8  -4223032.913 7
  26927863.432    -6969976.438 7  -5431157.704 3
  27475710.461    -3899600.643 5  -3038645.469 2
  24594445.016    -7064565.344 8  -5504838.162 6
 91 11  5  7 18  0.0120000  0  6  2 16 18 11  6 19
  26065603.361   -11591781.799 7  -9032543.097 4
  27618784.613    -3784745.197 5  -2949147.771 2
  25349182.429    -5324603.109 8  -4149017.824 6
  26927557.041    -6971559.726 7  -5432391.406 3
  27467809.133    -3941075.339 5  -3070963.404 2
  24599674.602    -7037090.771 8  -5483429.412 6
 91 11  5  7 18 30.0120000  0  6  2 16 18 11  6 19
  26056212.657   -11641145.884 7  -9071008.595 5
  27617960.186    -3789065.904 6  -2952514.528 2
  25367332.462    -5229225.720 8  -4074697.794 6
  26927370.568    -6972555.886 7  -5433167.603 3
  27459938.980    -3982471.257 5  -3103219.912 1
  24604938.652    -7009408.043 8  -5461858.431 6
 91 11  5  7 19  0.0120000  0  6  2 16 18 11  6 19
  26046876.826   -11690206.261 7  -9109237.405 5
  27617239.187    -3792840.287 6  -2955455.578 3
  25385558.342    -5133457.066 8  -4000072.883 7
  26927289.328    -6972962.350 7  -5433484.311 3
  27452081.121    -4023787.308 6  -3135414.203 2
  24610251.877    -6981515.637 8  -5440124.085 7
 91 11  5  7 19 30.0120000  0  6  2 16 18 11  6 19
  26037599.749   -11738962.826 7  -9147229.486 3
  27616628.202    -3796069.004 6  -2957971.464 2
  25403851.082    -5037299.078 8  -3925144.594 7
  26927326.200    -6972777.888 6  -5433340.557 3
  27444233.453    -4065024.340 6  -3167546.919 1
  24615597.472    -6953413.356 8  -5418226.201 7
 91 11  5  7 20  0.0120000  0  6  2 16 18 11  6 19
  26028377.527   -11787413.743 7  -9184983.396 4
  27616111.964    -3798749.546 6  -2960060.137 2
  25422227.156    -4940751.857 8  -3849913.017 6
  26927476.394    -6971999.917 7  -5432734.329 3
  27436398.680    -4106181.354 6  -3199617.284 2
  24620985.942    -6925099.772 8  -5396163.658 6
 91 11  5  7 20 30.0120000  0  6  2 16 18 11  6 19
  26019216.468   -11835562.041 7  -9222501.525 4
  27615706.648    -3800886.053 6  -2961724.931 2
  25440668.895    -4843820.855 8  -3774382.372 6
  26927734.518    -6970631.070 7  -5431667.660 3
  27428582.484    -4147262.584 5  -3231628.620 2
  24626407.995    -6896578.164 8  -5373939.011 6
 91 11  5  7 21  0.0120000  0  6  2 16 18 11  6 19
  26010110.875   -11883404.136 7  -9259781.051 4
  27615405.649    -3802474.799 6  -2962962.893 3
  25459189.771    -4746504.358 8  -3698551.354 6
  26928112.560    -6968667.092 7  -5430137.280 4
  27420782.489    -4188265.232 6  -3263578.688 2
  24631881.003    -6867845.023 8  -5351549.544 6
 91 11  5  7 21 30.0130000  0  6  2 16 18 11  6 19
  26001063.734   -11930942.021 7  -9296823.528 4
  27615215.584    -3803516.614 6  -2963774.669 1
  25477782.301    -4648801.579 8  -3622419.336 6
  26928596.719    -6966107.685 6  -5428142.931 4
  27412986.686    -4229192.189 6  -3295469.778 2
  24637390.590    -6838900.400 8  -5328995.293 7
 91 11  5  7 22  0.0130000  0  6  2 16 18 11  6 19
  25992075.964   -11978173.660 7  -9333627.364 4
  27615116.354    -3804012.877 6  -2964161.329 2
  25496446.181    -4550722.577 8  -3545994.176 6
  26929193.307    -6962952.908 6  -5425684.623 3
  27405211.270    -4270042.705 5  -3327301.306 2
  24642934.053    -6809747.179 8  -5306278.483 6
 91 11  5  7 22 30.0130000  0  6  2 16 18 11  6 19
  25983148.145   -12025097.179 7  -9370191.106 5
  27615128.944    -3803960.898 6  -2964120.766 2
  25515182.907    -4452262.797 8  -3469272.277 6
  26929908.016    -6959199.308 6  -5422759.684 4
  27397456.839    -4310815.676 5  -3359072.432 2
  24648526.080    -6780381.642 8  -5283396.231 6
 91 11  5  7 23  0.0130000  0  6  2 16 18 11  6 19
  25974273.086   -12071715.212 7  -9406516.817 5
  27615238.366    -3803362.937 6  -2963654.803 3
  25533993.387    -4353426.656 8  -3392257.127 5
  26930739.937    -6954848.308 6  -5419369.306 4
  27389711.699    -4351514.155 6  -3390785.498 2
  24654151.384    -6750805.850 8  -5260350.148 7
 91 11  5  7 23 30.0130000  0  6  2 16 18 11  6 19
  25965463.981   -12118021.813 7  -9442599.861 5
  27615454.818    -3802213.720 5  -2962759.282 2
  25552869.514    -4254210.309 8  -3314945.706 6
  26931682.485    -6949893.544 6  -5415508.407 4
  27381977.353    -4392133.379 5  -3422436.820 2
  24659820.759    -6721014.151 8  -5237135.855 6
 91 11  5  7 24  0.0130000  0  6  2 16 18 11  6 19
  25956713.046   -12164021.574 7  -9478443.799 4
  27615779.793    -3800519.087 5  -2961438.787 2
  25571823.592    -4154620.986 8  -3237343.655 6
  26932739.855    -6944339.456 6  -5411180.517 4
  27374264.889    -4432678.761 5  -3454030.555 2
  24665531.509    -6691011.587 7  -5213757.216 6
 91 11  5  7 24 30.0130000  0  6  2 16 18 11  6 19
  25948014.862   -12209710.237 7  -9514045.330 4
  27616213.597    -3798274.226 6  -2959689.514 1
  25590846.327    -4054656.443 8  -3159449.222 5
  26933910.241    -6938180.905 6  -5406381.645 4
  27366567.118    -4473147.275 6  -3485564.403 2
  24671282.124    -6660794.095 8  -5190211.109 6
 91 11  5  7 25  0.0130000  0  6  2 16 18 11  6 19
  25939385.634   -12255087.695 7  -9549404.362 5
  27616739.730    -3795479.979 5  -2957512.114 2
  25609938.009    -3954318.513 8  -3081263.848 5
  26935194.856    -6931417.249 6  -5401111.246 2
  27358873.544    -4513539.232 5  -3517038.622 2
  24677070.823    -6630361.430 8  -5166497.344 7
 91 11  5  7 25 30.0130000  0  6  2 16 18 11  6 19
  25930807.674   -12300148.888 7  -9584516.943 5
  27617380.389    -3792131.521 6  -2954902.925 2
  25629101.646    -3853604.892 8  -3002785.717 5
  26936602.076    -6924043.354 6  -5395365.332 2
  27351204.557    -4553850.804 6  -3548450.195 2
  24682904.178    -6599709.164 8  -5142612.464 6
 91 11  5  7 26  0.0130000  0  6  2 16 18 11  6 19
  25922295.065   -12344896.300 7  -9619385.046 5
  27618119.676    -3788231.809 6  -2951864.244 1
  25648338.129    -3752519.295 8  -2924017.729 5
  26938116.930    -6916060.816 6  -5389145.150 5
  27343542.157    -4594084.867 5  -3579801.369 2
  24688778.916    -6568839.498 8  -5118558.163 6
 91 11  5  7 26 30.0130000  0  6  2 16 18 11  6 19
  25913839.126   -12389327.121 7  -9654006.451 5
  27618963.289    -3783778.192 6  -2948393.816 2
  25667644.160    -3651061.595 8  -2844959.802 5
  26939754.694    -6907466.138 7  -5382447.983 4
  27335907.041    -4634239.429 5  -3611090.608 1
  24694694.714    -6537749.778 8  -5094332.402 7
 91 11  5  7 27  0.0130000  0  6  2 16 18 11  6 19
  25905443.739   -12433442.122 7  -9688381.736 5
  27619917.231    -3778772.322 6  -2944493.111 2
  25687020.349    -3549234.750 8  -2765614.230 6
  26941505.186    -6898259.960 6  -5375274.316 4
  27328283.923    -4674316.504 6  -3642319.471 3
  24700651.599    -6506440.884 8  -5069935.859 6
 91 11  5  7 27 30.0130000  0  6  2 16 18 11  6 19
  25897108.904   -12477242.289 7  -9722511.715 4
  27620973.694    -3773216.145 6  -2940163.580 1
  25706466.680    -3447042.165 8  -2685983.664 5
  26943373.188    -6888442.819 7  -5367624.583 3
  27320676.090    -4714317.969 6  -3673489.396 3
  24706654.038    -6474914.217 8  -5045369.625 6
 91 11  5  7 28  0.0130000  0  6  2 16 18 11  6 19
  25888831.036   -12520723.120 7  -9756392.868 5
  27622134.491    -3767105.155 6  -2935401.766 2
  25725985.272    -3344480.907 8  -2606065.818 5
  26945359.913    -6878009.881 7  -5359494.995 3
  27313072.158    -4754239.706 5  -3704597.193 2
  24712693.959    -6443165.169 8  -5020630.100 7
 91 11  5  7 28 30.0130000  0  6  2 16 18 11  6 19
  25880617.323   -12563886.453 7  -9790026.610 5
  27623399.920    -3760441.410 6  -2930209.183 2
  25745574.311    -3241555.089 8  -2525863.902 4
  26947461.164    -6866962.731 7  -5350886.823 3
  27305490.099    -4794084.562 6  -3735645.103 3
  24718782.140    -6411195.595 8  -4995718.738 6
 91 11  5  7 29  0.0130000  0  6  2 16 18 11  6 19
  25872466.265   -12606729.830 7  -9823411.042 6
  27624778.967    -3753222.962 5  -2924584.395 4
  25765229.006    -3138264.150 8  -2445377.483 6
  26949679.627    -6855297.734 7  -5341797.187 2
  27297924.243    -4833849.982 6  -3766631.102 2
  24724904.208    -6379002.703 8  -4970633.368 7
 91 11  5  7 29 30.0130000  0  6  2 16 18 11  6 19
  25864373.971   -12649253.671 7  -9856546.481 4
  27626262.035    -3745451.493 6  -2918528.709 1
  25784953.248    -3034611.410 8  -2364609.124 5
  26952018.009    -6843015.376 7  -5332226.491 2
  27290370.969    -4873537.800 6  -3797556.642 2
  24731070.033    -6346587.191 8  -4945374.523 6
 91 11  5  7 30  0.0130000  0  6  2 16 18 11  6 19
  25856341.025   -12691455.368 7  -9889430.903 5
  27627842.841    -3737124.710 6  -2912040.241 3
  25804748.243    -2930595.833 8  -2283558.044 6
  26954474.205    -6830112.836 7  -5322172.567 4
  27282840.179    -4913146.142 6  -3828420.259 2
  24737283.236    -6313946.377 8  -4919940.112 6
 91 11  5  7 30 30.0130000  0  6  2 16 18 11  6 19
  25848370.743   -12733335.766 7  -9922064.948 4
  27629532.170    -3728243.801 6  -2905120.080 2
  25824608.598    -2826220.669 8  -2202226.764 5
  26957048.226    -6816590.488 7  -5311635.659 5
  27275315.095    -4952676.128 6  -3859222.804 1
  24743537.202    -6281081.380 8  -4894331.018 6
 91 11  5  7 31  0.0130000  0  6  2 16 18 11  6 19
  25840466.413   -12774893.079 7  -9954447.256 5
  27631332.728    -3718808.099 6  -2897767.595 3
  25844540.001    -2721486.757 8  -2120615.959 5
  26959738.858    -6802446.376 7  -5300614.262 4
  27267805.892    -4992127.466 6  -3889964.074 1
  24749832.551    -6247990.649 8  -4868546.039 6
 91 11  5  7 31 30.0130000  0  6  2 16 18 11  6 19
  25832620.551   -12816125.214 7  -9986576.172 6
  27633236.110    -3708815.861 6  -2889981.423 1
  25864537.950    -2616393.043 8  -2038724.743 6
  26962550.314    -6787678.164 7  -5289106.544 2
  27260309.880    -5031498.447 6  -3920642.713 2
  24756178.855    -6214671.577 8  -4842583.109 6
 91 11  5  7 32  0.0130000  0  6  2 16 18 11  6 19
  25824835.538   -12857031.340 7 -10018451.060 4
  27635233.628    -3698267.020 5  -2881761.490 1
  25884604.261    -2510941.303 8  -1956554.596 5
  26965479.587    -6772284.430 7  -5277111.417 2
  27252835.454    -5070788.402 6  -3951258.270 2
  24762559.039    -6181123.061 8  -4816441.409 5
 91 11  5  7 32 30.0130000  0  6  2 16 18 11  6 19
  25817114.986   -12897611.405 7 -10050071.863 5
  27637355.557    -3687162.266 6  -2873108.448 2
  25904739.518    -2405133.812 8  -1874107.222 4
  26968526.979    -6756265.215 7  -5264628.904 4
  27245373.322    -5109998.423 6  -3981811.455 2
  24768991.381    -6147345.108 8  -4790120.914 6
 91 11  5  7 33  0.0130000  0  6  2 16 18 11  6 19
  25809454.986   -12937861.695 7 -10081435.709 5
  27639570.120    -3675498.479 5  -2864019.764 2
  25924941.635    -2298969.789 8  -1791382.030 4
  26971693.382    -6739616.859 7  -5251656.131 2
  27237930.674    -5149125.556 6  -4012300.116 3
  24775454.008    -6113334.332 8  -4763619.027 6
 91 11  5  7 33 30.0130000  0  6  2 16 18 11  6 19
  25801854.945   -12977786.306 7 -10112545.769 5
  27641895.615    -3663280.001 6  -2854498.827 2
  25945211.502    -2192454.671 8  -1708383.245 5
  26974984.511    -6722342.791 7  -5238195.805 3
  27230495.520    -5188174.008 6  -4042727.425 3
  24781975.992    -6079094.310 8  -4736938.471 6
 91 11  5  7 34  0.0130000  0  6  2 16 18 11  6 19
  25794319.068   -13017384.387 7 -10143401.398 5
  27644326.334    -3650507.067 6  -2844545.895 1
  25965548.527    -2085589.861 8  -1625111.998 4
  26978385.654    -6704441.896 7  -5224247.061 4
  27223084.055    -5227143.832 6  -4073093.508 2
  24788538.155    -6044624.526 8  -4710078.894 6
 91 11  5  7 34 30.0130000  0  6  2 16 18 11  6 19
  25786849.136   -13056652.991 7 -10174000.297 5
  27646865.873    -3637177.842 6  -2834159.434 3
  25985949.106    -1978374.855 7  -1541567.871 5
  26981912.710    -6685911.521 7  -5209807.794 3
  27215686.375    -5266032.797 6  -4103396.590 2
  24795136.885    -6009921.720 8  -4683037.756 6
 91 11  5  7 35  0.0130000  0  6  2 16 18 11  6 19
  25779441.266   -13095593.828 7 -10204343.772 6
  27649507.941    -3623294.284 6  -2823341.063 1
  26006415.934    -1870812.973 7  -1457753.416 5
  26985561.480    -6666752.585 7  -5194878.736 3
  27208284.499    -5304842.878 6  -4133638.205 6
  24801788.376    -5974987.285 8  -4655816.111 6
 91 11  5  7 35 30.0130000  0  6  2 16 18 11  6 19
  25772091.548   -13134209.767 7 -10234434.089 5
  27652243.254    -3608859.501 5  -2812093.187 2
  26026951.716    -1762909.196 7  -1373672.576 4
  26989325.082    -6646967.669 7  -5179461.909 3
  27200928.490    -5343577.446 6  -4163820.924 1
  24808475.849    -5939823.957 8  -4628416.097 6
 91 11  5  7 36  0.0130000  0  6  2 16 18 11  6 19
  25764803.299   -13172499.560 7 -10264270.269 5
  27655105.971    -3593873.312 5  -2800415.619 2
  26047549.561    -1654665.076 7  -1289326.535 5
  26993207.991    -6626555.987 7  -5163556.695 4
  27193572.779    -5382235.868 6  -4193944.369 3
  24815209.190    -5904430.681 8  -4600836.925 6
 91 11  5  7 36 30.0130000  0  6  2 16 18 11  6 19
  25757580.994   -13210452.333 7 -10293843.829 5
  27658059.525    -3578325.905 6  -2788300.756 2
  26068212.748    -1546071.765 7  -1204708.389 3
  26997215.015    -6605506.250 7  -5147154.294 4
  27186230.565    -5420808.066 6  -4224000.579 3
  24821997.691    -5868796.750 7  -4573070.227 7
 91 11  5  7 37  0.0130000  0  6  2 16 18 11  6 19
  25750423.752   -13248073.765 7 -10323159.220 6
  27661130.894    -3562224.002 5  -2775753.818 2
  26088941.599    -1437136.821 7  -1119824.035 5
  27001340.465    -6583824.161 7  -5130259.152 2
  27178906.036    -5459300.047 6  -4253994.299 1
  24828820.665    -5832927.090 8  -4545119.838 6
 91 11  5  7 37 30.0130000  0  6  2 16 18 11  6 19
  25743327.063   -13285364.878 7 -10352217.188 5
  27664297.908    -3545569.459 6  -2762776.231 1
  26109735.209    -1327863.655 7  -1034676.133 3
  27005587.621    -6561510.931 7  -5112872.194 5
  27171595.599    -5497713.613 6  -4283926.906 2
  24835686.514    -5796822.756 8  -4516986.581 6
 91 11  5  7 38  0.0130000  0  6  2 16 18 11  6 19
  25736293.936   -13322320.177 7 -10381013.504 4
  27667563.847    -3528356.812 5  -2749363.760 2
  26130596.866    -1218248.787 7   -949261.988 5
  27009955.297    -6538560.553 7  -5094988.800 3
  27164296.548    -5536043.363 6  -4313794.236 2
  24842603.920    -5760477.627 8  -4488665.701 6
 91 11  5  7 38 30.0130000  0  6  2 16 18 11  6 19
  25729325.854   -13358939.820 7 -10409548.265 6
  27670961.692    -3510587.527 6  -2735517.578 2
  26151518.778    -1108294.805 7   -863583.555 4
  27014443.789    -6514973.664 7  -5076609.389 4
  27157027.477    -5574290.124 6  -4343596.846 1
  24849566.601    -5723892.313 8  -4460157.667 6
 91 11  5  7 39  0.0130000  0  6  2 16 18 11  6 19
  25722420.742   -13395223.355 7 -10437821.127 5
  27674438.683    -3492261.710 5  -2721237.741 2
  26172509.349     -998003.369 7   -777642.213 5
  27019053.099    -6490749.586 7  -5057733.463 3
  27149760.814    -5612453.911 6  -4373334.851 2
  24856571.554    -5687065.884 8  -4431461.735 6
 91 11  5  7 39 30.0130000  0  6  2 16 18 11  6 19
  25715578.878   -13431171.678 7 -10465832.782 5
  27678031.098    -3473381.103 6  -2706525.614 1
  26193558.979     -887376.981 7   -691439.852 4
  27023784.725    -6465888.998 7  -5038361.583 3
  27142522.324    -5650535.746 6  -4403008.965 3
  24863625.674    -5649998.841 8  -4402578.314 6
 91 11  5  7 40  0.0130000  0  6  2 16 18 11  6 19
  25708804.765   -13466785.331 7 -10493583.660 6
  27681735.631    -3453947.475 6  -2691382.413 2
  26214671.858     -776419.027 7   -604979.136 4
  27028635.668    -6440392.769 7  -5018494.395 4
  27135281.138    -5688537.025 6  -4432620.282 1
  24870729.850    -5612691.803 8  -4373507.903 7
 91 11  5  7 40 30.0130000  0  6  2 16 18 11  6 19
  25702091.212   -13502064.518 7 -10521073.908 5
  27685534.003    -3433962.049 6  -2675809.388 2
  26235850.995     -665131.597 7   -518261.662 4
  27033608.622    -6414261.095 7  -4998132.043 4
  27128066.633    -5726458.271 6  -4462169.306 2
  24877874.204    -5575144.704 8  -4344250.423 6
 91 11  5  7 41  0.0130000  0  6  2 16 18 11  6 19
  25695438.814   -13537007.062 7 -10548301.841 5
  27689444.500    -3413422.963 6  -2659804.944 1
  26257089.795     -553514.897 7   -431287.637 4
  27038700.901    -6387491.967 7  -4977272.986 3
  27120865.618    -5764297.480 6  -4491654.399 2
  24885062.926    -5537354.861 8  -4314803.789 6
 91 11  5  7 41 30.0130000  0  6  2 16 18 11  6 19
  25688853.573   -13571615.542 7 -10575269.469 5
  27693458.714    -3392334.270 6  -2643372.141 2
  26278391.546     -441573.269 7   -344060.433 5
  27043916.387    -6360088.172 7  -4955919.358 3
  27113687.383    -5802058.013 6  -4521078.146 1
  24892300.221    -5499324.837 8  -4285169.991 6
 91 11  5  7 42  0.0130000  0  6  2 16 18 11  6 19
  25682331.293   -13605885.725 7 -10601973.486 6
  27697572.166    -3370692.145 6  -2626508.150
  26299754.155     -329304.656 7   -256578.395 3
  27049252.393    -6332045.207 7  -4934067.713 3
  27106513.354    -5839735.544 6  -4550437.201 2
  24899578.881    -5461049.914 8  -4255345.378 6
 91 11  5  7 42 30.0130000  0  6  2 16 18 11  6 19
  25675877.661   -13639815.371 7 -10628412.155 5
  27701799.542    -3348495.727 6  -2609212.259 2
  26321181.225     -216708.839 7   -168841.431 4
  27054711.013    -6303360.712 7  -4911716.134 4
  27099350.712    -5877328.341 6  -4579730.264 2
  24906912.702    -5422527.583 8  -4225327.986 6
 91 11  5  7 43  0.0130000  0  6  2 16 18 11  6 19
  25669485.786   -13673405.311 7 -10654586.111 5
  27706127.345    -3325746.802 6  -2591485.837 2
  26342673.044     -103789.432 7    -80852.303 4
  27060293.146    -6274036.175 7  -4888865.868 4
  27092213.547    -5914837.755 6  -4608958.357 3
  24914292.390    -5383758.756 8  -4195118.498 6
 91 11  5  7 43 30.0130000  0  6  2 16 18 11  6 19
  25663158.066   -13706654.102 8 -10680494.232 5
  27710564.874    -3302445.154 6  -2573328.699
  26364221.829        9453.349 7      7388.801 4
  27065994.603    -6244070.293 7  -4865515.830 3
  27085088.387    -5952262.678 6  -4638120.604 1
  24921715.259    -5344741.562 8  -4164715.493 5
 91 11  5  7 44  0.0130000  0  6  2 16 18 11  6 19
  25656895.698   -13739561.781 8 -10706136.549 6
  27715104.330    -3278591.553 6  -2554741.394 2
  26385830.268      123016.802 7     95879.789 5
  27071819.870    -6213463.139 7  -4841666.104 5
  27077983.304    -5989603.442 6  -4667217.264 2
  24929188.786    -5305475.563 7  -4134118.613 6
 91 11  5  7 44 30.0130000  0  6  2 16 18 11  6 19
  25650700.792   -13772129.641 8 -10731514.093 5
  27719741.821    -3254187.592 6  -2535725.366 2
  26407500.167      236898.252 7    184618.552 5
  27077762.952    -6182216.079 7  -4817317.734 3
  27070894.110    -6026861.514 6  -4696249.494 1
  24936709.376    -5265961.424 7  -4103328.381 6
 91 11  5  7 45  0.0130000  0  6  2 16 18 11  6 19
  25644563.734   -13804356.244 8 -10756625.711 5
  27724494.432    -3229233.297 6  -2516280.511 3
  26429232.127      351096.571 7    273604.236 5
  27083834.650    -6150327.816 7  -4792469.750 3
  27063823.508    -6064035.254 6  -4725216.019 1
  24944274.935    -5226197.664 7  -4072343.623 6
 91 11  5  7 45 30.0130000  0  6  2 16 18 11  6 19
  25638498.335   -13836241.148 8 -10781471.073 5
  27729343.577    -3203729.214 6  -2496407.140 1
  26451024.639      465610.101 7    362835.536 3
  27090021.764    -6117798.333 7  -4767122.079 5
  27056774.484    -6101125.312 6  -4754117.327 3
  24951884.269    -5186183.643 8  -4041163.864 6
 91 11  5  7 46  0.0130000  0  6  2 16 18 11  6 19
  25632494.692   -13867784.879 8 -10806050.583 6
  27734300.346    -3177676.734 6  -2476106.554 3
  26472876.805      580436.219 7    452310.419 4
  27096335.402    -6084628.418 7  -4741275.429 2
  27049728.767    -6138131.687 6  -4782953.448 2
  24959553.561    -5145919.189 7  -4009788.981 7
 91 11  5  7 46 30.0130000  0  6  2 16 18 11  6 19
  25626556.104   -13898985.585 8 -10830362.805 6
  27739366.537    -3151075.919 6  -2455378.622 2
  26494782.046      695574.119 7    542028.248 4
  27102768.040    -6050817.027 7  -4714928.861 3
  27042704.321    -6175053.906 6  -4811724.004 2
  24967261.828    -5105402.489 7  -3978217.528 6
 91 11  5  7 47  0.0130000  0  6  2 16 18 11  6 19
  25620684.969   -13929842.470 8 -10854407.109 6
  27744530.161    -3123926.406 6  -2434223.171 2
  26516753.232      811023.052 7    631988.416 3
  27109326.303    -6016363.012 7  -4688081.571 3
  27035689.185    -6211890.391 6  -4840427.706 3
  24975017.752    -5064632.329 8  -3946448.559 6
 91 11  5  7 47 30.0130000  0  6  2 16 18 11  6 19
  25614875.591   -13960355.341 8 -10878183.360 5
  27749796.017    -3096229.198 6  -2412640.881 2
  26538782.884      926780.877 7    722189.331 3
  27116002.678    -5981266.697 7  -4660733.808 4
  27028697.119    -6248641.358 6  -4869064.820 2
  24982830.650    -5023607.844 7  -3914481.429 6
 91 11  5  7 48  0.0130000  0  6  2 16 18 11  6 19
  25609138.466   -13990523.720 8 -10901691.167 5
  27755181.791    -3067984.859 6  -2390632.312 2
  26560867.391     1042845.791 7    812629.493 4
  27122805.576    -5945528.044 7  -4632885.505 4
  27021719.754    -6285306.886 6  -4897635.313 2
  24990675.919    -4982328.266 8  -3882315.529 6
 91 11  5  7 48 30.0130000  0  6  2 16 18 11  6 19
  25603462.494   -14020347.643 8 -10924930.567 5
  27760654.197    -3039194.687 6  -2368198.388 2
  26583012.764     1159215.607 7    903307.242 4
  27129731.375    -5909147.496 7  -4604537.021 4
  27014755.276    -6321886.934 6  -4926139.242 2
  24998583.538    -4940793.140 7  -3849950.491 6
 91 11  5  7 49  0.0130000  0  6  2 16 18 11  6 19
  25597849.780   -14049827.441 8 -10947901.824 6
  27766236.932    -3009860.060 5  -2345340.280 1
  26605216.290     1275888.354 7    994221.045 4
  27136771.700    -5872125.274 7  -4575688.532 3
  27007813.579    -6358381.811 6  -4954576.791 3
  25006543.629    -4899001.742 7  -3817385.762 6
 91 11  5  7 49 30.0130000  0  6  2 16 18 11  6 19
  25592309.615   -14078964.309 8 -10970605.862 6
  27771925.799    -2979983.574 6  -2322059.836 2
  26627476.477     1392860.660 7   1085368.278 3
  27143940.643    -5834463.197 7  -4546341.467 4
  27000884.778    -6394792.854 6  -4982948.985 2
  25014539.397    -4856955.436 7  -3784622.412 6
 91 11  5  7 50  0.0130000  0  6  2 16 18 11  6 19
  25586828.807   -14107759.067 8 -10993043.324 6
  27777703.994    -2949566.657 5  -2298358.336 1
  26649791.231     1510129.068 7   1176746.229 4
  27151227.400    -5796162.392 7  -4516496.672 3
  26993972.162    -6431121.066 6  -5011256.682
  25022587.028    -4814654.490 7  -3751660.642 6
 91 11  5  7 50 30.0130000  0  6  2 16 18 11  6 19
  25581412.757   -14136211.845 8 -11015214.302 6
  27783601.809    -2918610.197 5  -2274236.438 2
  26672162.942     1627691.703 7   1268353.438 4
  27158638.568    -5757223.192 7  -4486154.450 3
  26987071.840    -6467366.633 6  -5039499.948 2
  25030686.817    -4772098.657 7  -3718500.243 5
 91 11  5  7 51  0.0130000  0  6  2 16 18 11  6 19
  25576064.161   -14164323.195 8 -11037119.231 6
  27789600.662    -2887115.981 6  -2249695.540 2
  26694587.423     1745545.740 7   1360187.781 2
  27166170.248    -5717647.044 7  -4455315.873 5
  26980191.298    -6503530.298 6  -5067679.410 2
  25038832.177    -4729288.062 7  -3685141.336 6
 91 11  5  7 51 30.0130000  0  6  2 16 18 11  6 19
  25570780.915   -14192092.907 8 -11058757.955 6
  27795686.146    -2855085.633 5  -2224736.769 2
  26717068.260     1863689.223 7   1452247.582 4
  27173822.753    -5677434.434 7  -4423981.363 3
  26973330.553    -6539612.095 6  -5095795.094 3
  25047025.508    -4686222.382 7  -3651583.667 6
 91 11  5  7 52  0.0130000  0  6  2 16 18 11  6 19
  25565562.131   -14219519.397 8 -11080129.228 6
  27801891.252    -2822519.177 6  -2199360.294 2
  26739604.553     1982121.627 7   1544532.560 5
  27181592.471    -5636584.175 7  -4392150.012 4
  26966476.997    -6575610.585 6  -5123845.824 2
  25055272.193    -4642899.529 7  -3617825.606 6
 91 11  5  7 52 30.0130000  0  6  2 16 18 11  6 19
  25560410.199   -14246603.786 8 -11101233.944 6
  27808185.990    -2789418.622 5  -2173567.696 2
  26762200.814     2100840.181 7   1637040.491 4
  27189492.307    -5595097.593 7  -4359822.815 4
  26959642.332    -6611526.304 6  -5151832.074 3
  25063566.857    -4599319.618 7  -3583867.225 6
 91 11  5  7 53  0.0130000  0  6  2 16 18 11  6 19
  25555319.717   -14273345.614 8 -11122071.713 6
  27814589.260    -2755784.577 5  -2147359.265 2
  26784845.342     2219842.853 7   1729769.847 4
  27197505.761    -5552974.648 7  -4326999.739 4
  26952820.850    -6647359.079 6  -5179753.706 3
  25071908.576    -4555481.602 7  -3549707.726 6
 91 11  5  7 53 30.0130000  0  6  2 16 18 11  6 19
  25550292.205   -14299746.953 8 -11142644.167 6
  27821085.767    -2721620.569 5  -2120738.000 2
  26807542.622     2339125.472 7   1822717.305 4
  27205644.822    -5510218.208 7  -4293683.055 4
  26946017.062    -6683111.201 6  -5207612.493 3
  25080297.070    -4511387.238 7  -3515348.491 6
 91 11  5  7 54  0.0130000  0  6  2 16 18 11  6 19
  25545337.835   -14325805.547 8 -11162949.551 6
  27827693.187    -2686925.593 5  -2093702.966 2
  26830291.179     2458688.152 7   1915883.018 2
  27213896.611    -5466826.788 7  -4259871.549 4
  26939231.859    -6718780.473 6  -5235406.706 4
  25088737.130    -4467034.046 7  -3480787.572 5
 91 11  5  7 54 30.0130000  0  6  2 16 18 11  6 19
  25540441.618   -14351520.618 8 -11182987.255 6
  27834389.953    -2651699.654 5  -2066254.223 2
  26853097.584     2578529.517 7   2009265.893 3
  27222277.610    -5422799.964 7  -4225564.948 4
  26932463.146    -6754366.035 6  -5263135.707 2
  25097227.848    -4422420.363 7  -3446023.655 5
 91 11  5  7 55  0.0130000  0  6  2 16 18 11  6 19
  25535614.957   -14376892.983 8 -11202757.914 6
  27841203.338    -2615944.997 5  -2038393.425 2
  26875955.267     2698646.744 7   2102863.681 5
  27230775.229    -5378139.048 7  -4190764.264 5
  26925706.125    -6789868.653 6  -5290800.076 2
  25105766.841    -4377546.368 7  -3411056.912 6
 91 11  5  7 55 30.0130000  0  6  2 16 18 11  6 19
  25530852.156   -14401924.211 8 -11222262.754 7
  27848097.360    -2579664.345 5  -2010122.765 2
  26898865.099     2819035.622 7   2196673.158 4
  27239393.360    -5332846.462 7  -4155471.346 2
  26918966.188    -6825289.932 6  -5318401.051 3
  25114354.093    -4332413.347 7  -3375888.332 6
 91 11  5  7 56  0.0130000  0  6  2 16 18 11  6 19
  25526152.612   -14426613.137 8 -11241500.869 6
  27855109.512    -2542858.195 6  -1981442.633 1
  26921827.108     2939695.878 7   2290694.142 4
  27248134.409    -5286921.552 7  -4119685.708 4
  26912239.443    -6860628.335 6  -5345937.446 1
  25122994.412    -4287019.553 7  -3340516.556 5
 91 11  5  7 56 30.0130000  0  6  2 16 18 11  6 19
  25521520.216   -14450959.822 8 -11260472.288 6
  27862204.099    -2505527.795 5  -1952354.086 1
  26944839.774     3060625.538 7   2384925.029 3
  27256993.274    -5240365.027 7  -4083407.897 4
  26905527.095    -6895884.035 6  -5373409.402 3
  25131683.896    -4241364.285 7  -3304941.002 5
 91 11  5  7 57  0.0130000  0  6  2 16 18 11  6 19
  25516951.984   -14474961.831 8 -11279175.144 5
  27869421.003    -2467672.286 6  -1922856.231 2
  26967904.905     3181824.211 7   2479365.520 5
  27265976.254    -5193174.906 7  -4046636.383 4
  26898840.224    -6931054.237 6  -5400814.759 3
  25140419.248    -4195444.576 7  -3269159.425 6
 91 11  5  7 57 30.0130000  0  6  2 16 18 11  6 19
  25512449.401   -14498621.715 8 -11297611.404 6
  27876714.653    -2429295.007 5  -1892951.825 2
  26991014.412     3303287.913 7   2574012.504 3
  27275071.359    -5145354.647 7  -4009373.855 6
  26892163.840    -6966141.778 6  -5428155.676 2
  25149210.668    -4149262.687 7  -3233173.545 6
 91 11  5  7 58  0.0130000  0  6  2 16 18 11  6 19
  25508012.473   -14521937.267 8 -11315779.355 6
  27884122.227    -2390395.532 6  -1862640.555 3
  27014181.774     3425016.123 6   2668865.686 3
  27284291.775    -5096902.771 7  -3971619.155 5
  26885497.953    -7001144.369 6  -5455430.403 2
  25158043.453    -4102815.614 7  -3196981.041 6
 91 11  5  7 58 30.0130000  0  6  2 16 18 11  6 19
  25503642.092   -14544906.734 8 -11333677.654 6
  27891614.635    -2350973.076 5  -1831921.788 1
  27037397.701     3547009.502 6   2763925.420 4
  27293634.814    -5047818.070 7  -3933371.349 4
  26878858.154    -7036059.623 6  -5482637.098 2
  25166941.886    -4056100.831 7  -3160579.899 5
 91 11  5  7 59  0.0130000  0  6  2 16 18 11  6 19
  25499335.876   -14567531.741 8 -11351307.489 6
  27899218.271    -2311031.277 6  -1800798.289 2
  27060660.098     3669263.775 6   2859188.442 4
  27303093.259    -4998103.081 7  -3894632.412 3
  26872230.640    -7070889.155 6  -5509776.999 1
  25175877.200    -4009119.383 7  -3123970.984 5
 91 11  5  7 59 30.0130000  0  6  2 16 18 11  6 19
  25495098.614   -14589809.003 8 -11368666.389 6
  27906916.042    -2270568.581 5  -1769268.941 2
  27083973.755     3791780.105 6   2954655.675 3
  27312673.726    -4947755.794 7  -3855400.778 4
  26865615.123    -7105630.081 6  -5536847.828 3
  25184866.776    -3961867.710 7  -3087151.511 6
 91 11  5  8  0  0.0130000  0  6  2 16 18 11  6 19
  25490922.201   -14611742.499 8 -11385757.410 6
  27914720.241    -2229589.556 6  -1737337.194 2
  27107335.382     3914552.732 6   3050322.649 3
  27322376.212    -4896780.146 7  -3815679.512 4
  26859020.590    -7140285.477 6  -5563852.030 2
  25193914.217    -3914348.567 7  -3050123.616 5
 91 11  5  8  0 30.0130000  0  6  2 16 18 11  6 19
  25486816.846   -14633331.522 8 -11402580.012 6
  27922612.277    -2188095.111 5  -1705003.877 1
  27130749.177     4037579.539 6   3146187.675 3
  27332192.614    -4845176.495 7  -3775468.874 4
  26852444.641    -7174854.958 6  -5590789.293 2
  25203002.421    -3866561.081 7  -3012886.595 6
 91 11  5  8  1  0.0140000  0  6  2 16 18 11  6 19
  25482771.443   -14654578.295 8 -11419135.936 6
  27930605.640    -2146087.173 5  -1672270.403 1
  27154205.239     4160861.169 6   3242251.243 2
  27342133.736    -4792945.971 7  -3734769.786 4
  26845886.076    -7209340.881 6  -5617661.442 3
  25212147.595    -3818504.903 7  -2975440.234 6
 91 11  5  8  1 30.0140000  0  6  2 16 18 11  6 19
  25478795.001   -14675483.542 8 -11435425.728 6
  27938697.943    -2103572.281 5  -1639141.869 1
  27177714.958     4284385.477 6   3338503.945 3
  27352192.373    -4740094.673 7  -3693586.982 5
  26839336.215    -7243742.835 6  -5644468.139 2
  25221348.527    -3770184.217 7  -2937787.764 6
 91 11  5  8  2  0.0140000  0  6  2 16 18 11  6 19
  25474881.511   -14696043.119 8 -11451446.163 6
  27946883.779    -2060545.683 5  -1605614.747 1
  27201265.754     4408159.524 6   3434951.214 4
  27362368.529    -4686616.998 7  -3651916.081 4
  26832804.040    -7278056.838 6  -5671206.313 2
  25230593.225    -3721592.144 7  -2899923.813 5
 91 11  5  8  2 30.0140000  0  6  2 16 18 11  6 19
  25471034.872   -14716260.671 8 -11467200.086 6
  27955166.438    -2017012.141 5  -1571692.471 2
  27224866.022     4532177.664 6   3531588.692 3
  27372662.203    -4632516.990 7  -3609760.217 5
  26826288.050    -7312286.043 6  -5697878.422 2
  25239890.684    -3672731.595 7  -2861850.655 6
 91 11  5  8  3  0.0140000  0  6  2 16 18 11  6 19
  25467253.890   -14736133.142 8 -11482685.114 6
  27963551.041    -1972969.238 5  -1537373.359 2
  27248513.946     4656441.213 6   3628417.419 3
  27383073.692    -4577792.539 7  -3567117.781 3
  26819799.640    -7346427.123 6  -5724481.846 2
  25249236.122    -3623598.343 7  -2823565.001 6
 91 11  5  8  3 30.0140000  0  6  2 16 18 11  6 19
  25463534.062   -14755665.307 8 -11497904.983 6
  27972023.767    -1928424.042 5  -1502662.801 1
  27272204.144     4780942.600 6   3725431.465 3
  27393608.702    -4522449.945 7  -3523993.721 3
  26813314.232    -7380484.896 6  -5751020.382 2
  25258639.704    -3574197.211 7  -2785070.631 6
 91 11  5  8  4  0.0140000  0  6  2 16 18 11  6 19
  25459884.087   -14774856.182 8 -11512858.898 6
  27980599.031    -1883376.924 5  -1467561.111 1
  27295939.912     4905680.882 6   3822630.116 4
  27404254.330    -4466488.713 7  -3480387.564 4
  26806851.605    -7414457.798 6  -5777492.753 1
  25268094.267    -3524526.592 7  -2746366.250 5
 91 11  5  8  4 30.0140000  0  6  2 16 18 11  6 19
  25456297.971   -14793703.024 8 -11527544.734 6
  27989271.431    -1837826.771 6  -1432067.491 1
  27319726.644     5030657.201 6   3920014.204 3
  27415021.673    -4409906.992 7  -3436297.897 3
  26800403.366    -7448342.644 6  -5803896.519 2
  25277596.181    -3474582.339 7  -2707448.658 6
 91 11  5  8  5  0.0140000  0  6  2 16 18 11  6 19
  25452777.206   -14812207.648 8 -11541963.909 6
  27998026.572    -1791776.948 5  -1396184.521 1
  27343550.851     5155867.057 6   4017580.344 1
  27425908.035    -4352707.708 6  -3391727.057 4
  26793970.421    -7482141.154 6  -5830233.014 2
  25287148.770    -3424365.906 7  -2668318.972 6
 91 11  5  8  5 30.0140000  0  6  2 16 18 11  6 19
  25449320.903   -14830368.544 8 -11556115.250 6
  28006891.134    -1745227.687 5  -1359912.352 2
  27367422.426     5281310.554 6   4115328.474 2
  27436911.322    -4294890.141 6  -3346674.438 4
  26787557.257    -7515851.255 7  -5856500.605 1
  25296761.920    -3373875.079 7  -2628975.487 6
 91 11  5  8  6  0.0140000  0  6  2 16 18 11  6 19
  25445929.950   -14848188.272 8 -11570000.746 6
  28015842.040    -1698182.283 5  -1323253.620 1
  27391338.368     5406983.144 6   4213255.130 2
  27448030.923    -4236457.946 7  -3301142.868 5
  26781158.489    -7549475.221 7  -5882701.107 2
  25306419.133    -3323111.609 7  -2589419.525 5
 91 11  5  8  6 30.0140000  0  6  2 16 18 11  6 19
  25442603.756   -14865662.214 8 -11583616.797 6
  28024889.769    -1650637.916 5  -1286206.084 2
  27415295.083     5532887.491 6   4311362.398 3
  27459265.949    -4177407.502 6  -3255129.537 5
  26774776.508    -7583007.890 7  -5908830.461 3
  25316131.505    -3272070.359 7  -2549647.126 5
 91 11  5  8  7  0.0140000  0  6  2 16 18 11  6 19
  25439345.006   -14882795.362 8 -11596967.282 6
  28034031.641    -1602601.586 6  -1248775.147 1
  27439297.072     5659015.978 6   4409644.332 2
  27470619.087    -4117744.838 6  -3208639.144 5
  26768415.511    -7616454.077 7  -5934892.394 3
  25325893.951    -3220755.364 7  -2509661.421 5
 91 11  5  8  7 30.0140000  0  6  2 16 18 11  6 19
  25436150.421   -14899584.794 8 -11610049.942 6
  28043263.452    -1554072.035 5  -1210959.925 4
  27463340.724     5785369.579 6   4508101.640 2
  27482091.541    -4057468.036 6  -3161670.238 4
  26762062.306    -7649810.256 7  -5960884.222 2
  25335715.448    -3169163.186 7  -2469459.751 6
 91 11  5  8  8  0.0140000  0  6  2 16 18 11  6 19
  25433020.288   -14916038.706 8 -11622871.169 6
  28052598.690    -1505059.276 5  -1172768.249 3
  27487427.250     5911938.196 6   4606726.504 2
  27493676.723    -3996586.516 6  -3114230.108 3
  26755735.494    -7683084.334 7  -5986812.052 3
  25345583.416    -3117301.222 7  -2429047.818 6
 91 11  5  8  8 30.0140000  0  6  2 16 18 11  6 19
  25429951.911   -14932148.468 8 -11635424.219 7
  28062012.472    -1455555.707 5  -1134193.853 1
  27511554.550     6038728.643 6   4705524.262 3
  27505378.822    -3935093.007 6  -3066313.084 3
  26749419.762    -7716267.145 7  -6012668.794 3
  25355501.447    -3065160.322 7  -2388418.550 6
 91 11  5  8  9  0.0140000  0  6  2 16 18 11  6 19
  25426953.083   -14947916.964 8 -11647711.352 7
  28071523.390    -1405565.602 5  -1095240.586 2
  27535722.316     6165736.435 6   4804491.337 4
  27517198.142    -3872990.941 6  -3017921.847 5
  26743124.422    -7749360.999 7  -6038456.202 3
  25365482.143    -3012742.366 7  -2347573.401 6
 91 11  5  8  9 30.0140000  0  6  2 16 18 11  6 19
  25424016.316   -14963349.282 8 -11659736.526 6
  28081124.238    -1355095.692 5  -1055913.446 2
  27559931.160     6292954.089 6   4903621.938 3
  27529128.385    -3810286.605 6  -2969061.356 4
  26736837.475    -7782370.427 7  -6064177.838 2
  25375510.801    -2960051.559 7  -2306515.644 5
 91 11  5  8 10  0.0140000  0  6  2 16 18 11  6 19
  25421141.611   -14978445.662 8 -11671499.925 6
  28090815.330    -1304148.978 5  -1016214.718 1
  27584177.173     6420379.484 6   5002914.414 2
  27541173.441    -3746981.508 6  -2919732.714 4
  26730573.013    -7815295.384 7  -6089833.624 3
  25385588.624    -2907087.383 7  -2265244.837 5
 91 11  5  8 10 30.0140000  0  6  2 16 18 11  6 19
  25418334.350   -14993203.982 8 -11682999.912 7
  28100608.951    -1252724.544 5   -976143.687 1
  27608464.857     6548012.185 6   5102368.469 2
  27553334.821    -3683074.721 6  -2869935.226 3
  26724321.437    -7848133.029 7  -6115421.376 2
  25395713.214    -2853847.252 7  -2223759.034 6
 91 11  5  8 11  0.0140000  0  6  2 16 18 11  6 19
  25415590.356   -15007626.534 8 -11694238.249 7
  28110485.015    -1200825.411 5   -935702.759 2
  27632792.712     6675848.733 6   5201981.330 4
  27565606.224    -3618569.543 6  -2819671.451 5
  26718092.948    -7880885.325 7  -6140942.640 2
  25405905.258    -2800332.648 7  -2182059.350 6
 91 11  5  8 11 30.0140000  0  6  2 16 18 11  6 19
  25412911.704   -15021714.064 8 -11705215.539 6
  28120448.322    -1148455.022 5   -894894.716 2
  27657158.652     6803885.766 6   5301750.377 2
  27577995.154    -3553468.103 6  -2768943.088 4
  26711874.651    -7913552.382 7  -6166397.487 4
  25416138.677    -2746543.168 7  -2140145.487 5
 91 11  5  8 12  0.0140000  0  6  2 16 18 11  6 19
  25410289.722   -15035468.788 8 -11715933.495 6
  28130501.558    -1095617.676 5   -853722.729 2
  27681559.954     6932119.067 6   5401672.454 2
  27590500.094    -3487773.891 6  -2717752.786 4
  26705673.751    -7946135.980 7  -6191787.276 5
  25426422.753    -2692480.339 7  -2098018.591 6
 91 11  5  8 12 30.0140000  0  6  2 16 18 11  6 19
  25407736.694   -15048890.323 8 -11726391.817 6
  28140652.829    -1042313.442 5   -812186.994 2
  27705998.138     7060546.649 6   5501745.854 2
  27603114.464    -3421488.013 7  -2666101.470 4
  26699489.629    -7978635.703 7  -6217111.720 4
  25436769.790    -2638143.738 7  -2055678.396 6
 91 11  5  8 13  0.0140000  0  6  2 16 18 11  6 19
  25405244.811   -15061980.281 8 -11736591.778 6
  28150878.753     -988546.452 5   -770290.629 2
  27730474.389     7189165.670 6   5601968.426 2
  27615843.054    -3354612.655 7  -2613990.794 3
  26693325.296    -8011051.615 7  -6242370.862 3
  25447154.903    -2583533.803 7  -2013125.211 5
 91 11  5  8 13 30.0140000  0  6  2 16 18 11  6 19
  25402817.992   -15074741.533 8 -11746535.598 6
  28161194.615     -934320.951 5   -728037.015 4
  27754982.723     7317971.313 6   5702336.461 2
  27628678.963    -3287152.072 7  -2561424.137 4
  26687169.060    -8043386.228 7  -6267566.627 3
  25457598.475    -2528652.570 7  -1970360.615 6
 91 11  5  8 14  0.0140000  0  6  2 16 18 11  6 19
  25400451.734   -15087176.009 8 -11756224.788 6
  28171601.009     -879641.015 5   -685429.217 1
  27779527.937     7446959.309 6   5802846.572 2
  27641625.497    -3219109.816 7  -2508404.164 3
  26681029.611    -8075640.977 7  -6292700.182 2
  25468099.606    -2473501.269 7  -1927385.586 5
 91 11  5  8 14 30.0140000  0  6  2 16 18 11  6 19
  25398147.232   -15099285.451 8 -11765660.713 6
  28182096.137     -824509.980 5   -642469.974 2
  27804111.516     7576125.832 6   5903495.771 4
  27654684.158    -3150488.707 7  -2454933.171 4
  26674906.949    -8107816.957 7  -6317772.364 4
  25478641.500    -2418080.675 7  -1884200.711 5
 91 11  5  8 15  0.0140000  0  6  2 16 18 11  6 19
  25395903.282   -15111072.720 8 -11774845.579 7
  28192663.229     -768932.114 5   -599162.598 4
  27828729.271     7705466.180 6   6004280.421 2
  27667852.241    -3081292.551 7  -2401014.119 5
  26668798.971    -8139916.224 7  -6342784.775 5
  25489237.368    -2362392.277 7  -1840807.171 5
 91 11  5  8 15 30.0140000  0  6  2 16 18 11  6 19
  25393721.394   -15122535.992 8 -11783777.992 6
  28203337.632     -712907.198 5   -555506.750 2
  27853365.916     7834981.144 6   6105201.192 2
  27681130.356    -3011521.099 7  -2346646.738 3
  26662705.992    -8171936.271 7  -6367735.428 3
  25499884.497    -2306433.829 7  -1797203.169 5
 91 11  5  8 16  0.0140000  0  6  2 16 18 11  6 19
  25391603.959   -15133675.084 8 -11792457.794 6
  28214073.504     -656437.187 5   -511504.181 1
  27878049.327     7964668.491 6   6206256.217 3
  27694513.687    -2941175.464 7  -2291831.966 3
  26656627.697    -8203876.080 7  -6392623.576 2
  25510586.785    -2250204.423 7  -1753388.067 5
 91 11  5  8 16 30.0140000  0  6  2 16 18 11  6 19
  25389544.388   -15144493.892 8 -11800888.025 6
  28224910.403     -599528.039 5   -467159.366 1
  27902757.920     8094521.757 6   6307440.556 2
  27708007.949    -2870260.973 7  -2236573.952 2
  26650563.502    -8235739.292 7  -6417452.035 5
  25521338.545    -2193707.299 7  -1709364.341 5
 91 11  5  8 17  0.0140000  0  6  2 16 18 11  6 19
  25387546.268   -15154994.636 8 -11809070.417 7
  28235827.940     -542183.230 5   -422475.109 2
  27927498.891     8224537.206 6   6408751.344 2
  27721614.024    -2798780.847 7  -2180875.162 2
  26644518.485    -8267526.866 7  -6442221.556 4
  25532141.870    -2136943.656 7  -1665132.947 5
 91 11  5  8 17 30.0140000  0  6  2 16 18 11  6 19
  25385610.507   -15165174.787 8 -11817002.990 6
  28246813.838     -484402.311 5   -377450.991 1
  27952271.045     8354715.548 6   6510188.984 4
  27735320.541    -2726734.271 7  -2124734.963 2
  26638481.565    -8299235.832 7  -6466929.833 5
  25542990.452    -2079910.397 7  -1620691.440 5
 91 11  5  8 18  0.0140000  0  6  2 16 18 11  6 19
  25383732.305   -15175035.997 8 -11824687.036 7
  28257904.664     -426188.278 5   -332089.457 1
  27977073.773     8485053.007 6   6611750.577 4
  27749141.271    -2654124.252 7  -2068155.725 4
  26632462.331    -8330867.064 7  -6491577.519 2
  25553896.603    -2022608.244 7  -1576040.408 5
 91 11  5  8 18 30.0140000  0  6  2 16 18 11  6 19
  25381915.868   -15184579.210 8 -11832123.298 6
  28269047.649     -367544.242 5   -286392.744 1
  28001904.089     8615547.403 6   6713434.512 2
  27763067.827    -2580953.007 7  -2011139.188 3
  26626456.890    -8362420.800 7  -6516164.840 2
  25564854.615    -1965037.262 7  -1531179.918 5
 91 11  5  8 19  0.0140000  0  6  2 16 18 11  6 19
  25380160.280   -15193802.776 8 -11839310.475 6
  28280292.857     -308470.636 5   -240361.411 2
  28026771.269     8746197.488 6   6815239.780 2
  27777093.318    -2507220.516 7  -1953685.292 4
  26620469.136    -8393894.648 7  -6540689.881 2
  25575855.503    -1907194.973 7  -1486108.021 5
 91 11  5  8 19 30.0140000  0  6  2 16 18 11  6 19
  25378465.550   -15202709.210 8 -11846250.545 7
  28291617.525     -248971.701 5   -193998.545 2
  28051662.739     8876999.271 6   6917163.199 2
  27791231.528    -2432930.506 6  -1895797.008 2
  26614494.565    -8425289.946 7  -6565153.742 3
  25586914.849    -1849082.675 7  -1440825.708 5
 91 11  5  8 20  0.0140000  0  6  2 16 18 11  6 19
  25376832.882   -15211297.209 8 -11852942.478 7
  28303004.237     -189048.113 5   -147304.838
  28076579.687     9007951.938 6   7019204.215 2
  27805477.964    -2358083.365 7  -1837474.546 3
  26608538.893    -8456605.234 7  -6589555.259 4
  25598025.158    -1790698.843 7  -1395331.810 6
 91 11  5  8 20 30.0140000  0  6  2 16 18 11  6 19
  25375257.179   -15219568.620 8 -11859387.724 7
  28314504.279     -128703.061 5   -100282.758 2
  28101527.818     9139052.229 6   7121360.285 2
  27819823.334    -2282682.140 6  -1778720.370 2
  26602588.308    -8487840.699 7  -6613894.571 4
  25609193.926    -1732043.802 7  -1349626.605 6
 91 11  5  8 21  0.0140000  0  6  2 16 18 11  6 19
  25373744.123   -15227523.860 8 -11865586.594 6
  28326062.178      -67939.657 5    -52934.618
  28126500.528     9270297.472 6   7223629.248 3
  27834275.430    -2206728.914 6  -1719536.026 3
  26596668.008    -8518996.484 7  -6638171.779 4
  25620400.464    -1673117.725 7  -1303710.204 6
 91 11  5  8 21 30.0140000  0  6  2 16 18 11  6 19
  25372293.731   -15235163.551 8 -11871539.593 6
  28337712.109       -6759.902 5     -5262.136 1
  28151505.015     9401685.016 6   7326009.127 3
  27848834.251    -2130225.753 6  -1659923.201 2
  26590751.005    -8550072.397 7  -6662386.774 4
  25631673.558    -1613920.354 7  -1257582.362 5
 91 11  5  8 22  0.0140000  0  6  2 16 18 11  6 19
  25370894.599   -15242487.243 8 -11877246.357 7
  28349427.103       54835.018 5     42733.957 3
  28176536.192     9533214.095 6   7428499.290 3
  27863494.703    -2053173.447 6  -1599882.427 5
  26584852.291    -8581066.618 7  -6686538.074 3
  25642986.831    -1554449.682 7  -1211241.588 5
 91 11  5  8 22 30.0140000  0  6  2 16 18 11  6 19
  25369564.115   -15249497.370 8 -11882708.785 7
  28361223.931      116840.627 5     91049.982 2
  28201591.049     9664879.572 6   7531095.766 2
  27878261.880    -1975576.359 6  -1539417.177 3
  26578967.964    -8611981.200 7  -6710627.347 4
  25654352.864    -1494707.946 7  -1164689.593 5
 91 11  5  8 23  0.0140000  0  6  2 16 18 11  6 19
  25368289.098   -15256194.964 8 -11887927.669 7
  28373100.810      179253.879 5    139683.606 2
  28226667.483     9796678.816 6   7633796.437 3
  27893129.186    -1897436.787 6  -1478529.210 3
  26573100.729    -8642816.142 7  -6734654.562 4
  25665772.252    -1434695.376 7  -1117926.564 3
 91 11  5  8 23 30.0140000  0  6  2 16 18 11  6 19
  25367073.743   -15262581.541 8 -11892904.215 7
  28385066.425      242071.762 5    188632.685 2
  28251775.406     9928608.220 6   7736598.514 1
  27908102.023    -1818757.768 6  -1417220.895 3
  26567249.078    -8673571.630 7  -6758619.859 4
  25677248.911    -1374412.333 7  -1070952.756 5
 91 11  5  8 24  0.0140000  0  6  2 16 18 11  6 19
  25365919.838   -15268654.888 8 -11897636.679 7
  28397091.998      305294.414 5    237897.082 2
  28276904.007    10060668.506 6   7839502.665 2
  27923177.083    -1739538.448 6  -1355491.570 5
  26561410.017    -8704244.720 7  -6782520.949 5
  25688768.437    -1313855.275 7  -1023765.451 5
 91 11  5  8 24 30.0140000  0  6  2 16 18 11  6 19
  25364821.696   -15274416.713 8 -11902126.405 7
  28409200.320      368917.799 5    287473.711 1
  28302058.391    10192855.755 6   7942505.674 2
  27938359.173    -1659782.516 6  -1293344.079 4
  26555594.348    -8734836.176 7  -6806358.430 4
  25700342.224    -1253025.327 7   -976365.512 5
 91 11  5  8 25  0.0140000  0  6  2 16 18 11  6 19
  25363785.319   -15279864.300 8 -11906371.267 6
  28421381.488      432943.203 5    337363.688 1
  28327236.761    10325171.515 6   8045608.816 3
  27953635.705    -1579488.567 6  -1230777.400 3
  26549785.563    -8765342.502 7  -6830129.577 5
  25711973.274    -1191919.141 7   -928750.284 5
 91 11  5  8 25 30.0140000  0  6  2 16 18 11  6 19
  25362807.697   -15285000.544 8 -11910373.516 7
  28433646.295      497365.190 5    387562.648 2
  28352436.420    10457610.020 6   8148807.700 2
  27969015.053    -1498661.303 6  -1167795.127 4
  26543995.677    -8795765.419 7  -6853835.743 4
  25723652.888    -1130538.973 7   -880921.593 5
 91 11  5  8 26  0.0140000  0  6  2 16 18 11  6 19
  25361890.330   -15289828.781 8 -11914135.771 7
  28445974.063      562178.428 6    438066.412 2
  28377662.751    10590166.563 6   8252098.438 2
  27984499.032    -1417305.808 6  -1104401.270 4
  26538223.171    -8826107.829 7  -6877479.149 3
  25735383.465    -1068887.306 7   -832881.347 5
 91 11  5  8 26 30.0140000  0  6  2 16 18 11  6 19
  25361026.029   -15294350.533 8 -11917659.202 7
  28458382.773      627379.596 6    488872.596 2
  28402911.872    10722837.840 6   8355478.633 2
  28000076.850    -1335425.202 6  -1040598.202 3
  26532464.154    -8856369.868 7  -6901059.946 3
  25747171.305    -1006964.663 7   -784629.956 5
 91 11  5  8 27  0.0140000  0  6  2 16 18 11  6 19
  25360224.078   -15298566.174 8 -11920944.109 7
  28470860.132      692966.285 5    539979.067 2
  28428176.586    10855621.792 6   8458946.663 3
  28015760.190    -1253021.277 6   -976387.350 5
  26526718.932    -8886550.646 7  -6924577.416 5
  25759005.912     -944770.552 7   -736167.011 3
 91 11  5  8 27 30.0140000  0  6  2 16 18 11  6 19
  25359480.900   -15302476.336 8 -11923990.977 7
  28483413.042      758936.470 5    591384.376 2
  28453468.277    10988515.181 6   8562499.933 2
  28031543.066    -1170096.275 6   -911770.511 4
  26520993.498    -8916650.265 7  -6948031.656 4
  25770888.184     -882304.544 7   -687492.192 5
 91 11  5  8 28  0.0140000  0  6  2 16 18 11  6 19
  25358794.068   -15306084.327 8 -11926802.387 7
  28496039.706      825285.021 6    643084.565 3
  28478771.660    11121513.876 6   8666135.233
  28047415.880    -1086655.158 6   -846751.469 5
  26515279.450    -8946670.400 7  -6971423.961 4
  25782827.719     -819568.831 7   -638607.234 5
 91 11  5  8 28 30.0140000  0  6  2 16 18 11  6 19
  25358166.305   -15309388.671 8 -11929377.189 7
  28508735.315      892010.920 6    695078.767 2
  28504108.015    11254617.254 6   8769852.181 2
  28063397.513    -1002697.981 6   -781330.277 5
  26509584.293    -8976608.583 7  -6994752.395 4
  25794818.218     -756561.308 7   -589510.488 3
 91 11  5  8 29  0.0140000  0  6  2 16 18 11  6 19
  25357594.906   -15312387.299 8 -11931713.771 7
  28521508.875      959114.479 5    747367.305 3
  28529456.070    11387825.387 5   8873650.683
  28079468.789     -918224.475 6   -715506.793 3
  26503902.633    -9006461.858 7  -7018014.667 5
  25806857.585     -693279.006 7   -540199.590 5
 91 11  5  8 29 30.0140000  0  6  2 16 18 11  6 19
  25357081.957   -15315080.634 8 -11933812.466 7
  28534347.785     1026592.541 5    799947.590 1
  28554819.709    11521136.034 5   8977529.107 2
  28095644.093     -833237.002 6   -649282.804 3
  26498234.156    -9036229.812 7  -7041210.455 4
  25818953.614     -629721.869 7   -490674.564 5
 91 11  5  8 30  0.0140000  0  6  2 16 18 11  6 19
  25356627.772   -15317470.331 8 -11935674.559 7
  28547258.346     1094441.882 5    852817.208 1
  28580206.730    11654545.673 5   9081484.604 2
  28111909.031     -747738.888 6   -582660.887 4
  26492592.056    -9065912.888 7  -7064340.104 4
  25831099.401     -565890.252 7   -440935.660 5
 91 11  5  8 30 30.0140000  0  6  2 16 18 11  6 19
  25356231.748   -15319556.964 8 -11937300.495 7
  28560246.552     1162659.817 6    905974.023 1
  28605622.240    11788051.540 5   9185515.180 2
  28128281.297     -661732.404 6   -515642.871 2
  26486955.958    -9095510.087 7  -7087402.848 4
  25843300.951     -501783.889 7   -390982.655 4
 91 11  5  8 31  0.0140000  0  6  2 16 18 11  6 19
  25355889.985   -15321342.434 8 -11938691.761 7
  28573294.420     1231242.835 5    959415.370 2
  28631035.044    11921650.289 5   9289618.030 3
  28144742.297     -575220.921 6   -448231.360 5
  26481340.251    -9125022.340 7  -7110399.395 4
  25855550.175     -437403.695 7   -340816.262 4
 91 11  5  8 31 30.0140000  0  6  2 16 18 11  6 19
  25355608.775   -15322824.991 8 -11939846.988 7
  28586410.344     1300190.310 5   1013140.706 1
  28656479.329    12055341.905 5   9393793.338 1
  28161303.731     -488204.466 6   -380426.368 3
  26475740.128    -9154446.773 7  -7133327.507 5
  25867853.355     -372747.053 7   -290434.488 4
 91 11  5  8 32  0.0140000  0  6  2 16 18 11  6 19
  25355385.430   -15324004.756 8 -11940766.279 7
  28599602.106     1369500.146 5   1067148.329 1
  28681936.806    12189124.946 5   9498039.823 1
  28177952.713     -400685.049 6   -312229.432 4
  26470158.588    -9183782.362 7  -7156186.399 4
  25880213.798     -307813.151 7   -239836.655 5
 91 11  5  8 32 30.0140000  0  6  2 16 18 11  6 19
  25355216.651   -15324886.985 8 -11941453.727 7
  28612861.332     1439164.882 5   1121432.530 3
  28707407.475    12322991.698 5   9602351.567 3
  28194705.114     -312669.786 6   -243646.118 3
  26464593.243    -9213033.327 7  -7178979.351 4
  25892618.914     -242606.725 7   -189026.459 4
 91 11  5  8 33  0.0140000  0  6  2 16 18 11  6 19
  25355106.026   -15325467.215 8 -11941905.842 7
  28626180.804     1509187.512 5   1175995.630 2
  28732902.426    12456945.431 5   9706731.021 2
  28211547.454     -224155.514 6   -174673.974 2
  26459040.784    -9242193.796 7  -7201701.771 5
  25905082.488     -177122.087 7   -137999.459 4
 91 11  5  8 33 30.0140000  0  6  2 16 18 11  6 19
  25355054.757   -15325747.076 8 -11942123.907 7
  28639577.030     1579563.920 5   1230834.355 2
  28758411.469    12590982.623 5   9811175.676 1
  28228485.726     -135145.784 6   -105315.756 4
  26453513.515    -9271263.917 7  -7224353.800 4
  25917591.022     -111360.030 7    -86756.324 5
 91 11  5  8 34  0.0140000  0  6  2 16 18 11  6 19
  25355057.758   -15325725.544 8 -11942107.118 6
  28653038.312     1650293.195 5   1285948.119 2
  28783934.000    12725101.849 5   9915684.106 2
  28245519.930      -45641.889 6    -35572.464 2
  26447997.632    -9300242.137 7  -7246934.220 5
  25930166.120      -45318.859 7    -35295.691 4
 91 11  5  8 34 30.0140000  0  6  2 16 18 11  6 19
  25355118.616   -15325406.175 8 -11941858.270 7
  28666557.754     1721368.965 5   1341331.799 2
  28809464.620    12859298.034 6  10020252.506 4
  28262645.277       44350.795 6     34551.680 3
  26442498.536    -9329130.655 7  -7269444.742 5
  25942785.882       20998.419 7     16380.133 5
 91 11  5  8 35  0.0140000  0  6  2 16 18 11  6 19
  25355233.735   -15324787.596 8 -11941376.243 7
  28680155.740     1792791.132 5   1396985.367 3
  28835020.734    12993571.193 6  10124880.963 2
  28279863.861      134832.322 6    105056.741 3
  26437019.229    -9357926.583 7  -7291883.107 4
  25955459.312       87594.544 7     68273.203 4
 91 11  5  8 35 30.0140000  0  6  2 16 18 11  6 19
  25355410.916   -15323869.904 8 -11940661.164 8
  28693807.988     1864557.665 5   1452907.113 1
  28860584.937    13127919.288 6  10229567.782 2
  28297169.975      225800.720 6    175941.192 3
  26431558.209    -9386628.619 7  -7314248.322 5
  25968181.899      154470.139 7    120384.038 5
 91 11  5  8 36  0.0140000  0  6  2 16 18 11  6 19
  25355639.959   -15322655.216 8 -11939714.639 7
  28707532.785     1936664.477 5   1509094.100 2
  28886160.229    13262338.438 6  10334309.958 3
  28314575.625      317251.822 6    247201.767 4
  26426112.485    -9415237.447 7  -7336540.899 5
  25980963.852      221624.488 7    172712.079 5
 91 11  5  8 36 30.0140000  0  6  2 16 18 11  6 19
  25355929.257   -15321144.418 8 -11938537.389 8
  28721310.351     2009108.086 5   1565543.595 2
  28911756.810    13396825.593 6  10439105.094 2
  28332071.815      409182.583 6    318836.111 2
  26420688.041    -9443753.386 7  -7358761.100 5
  25993797.065      289056.701 7    225256.667 4
 91 11  5  8 37  0.0150000  0  6  2 16 18 11  6 19
  25356273.117   -15319339.998 8 -11937131.333 7
  28735167.660     2081886.778 5   1622254.278 2
  28937365.680    13531381.105 6  10543953.573 1
  28349649.850      501591.987 6    390843.406 3
  26415277.081    -9472178.289 7  -7380910.366 5
  26006677.056      356767.599 7    278018.386 4
 91 11  5  8 37 30.0150000  0  6  2 16 18 11  6 19
  25356671.845   -15317241.182 8 -11935495.898 7
  28749076.827     2154994.278 5   1679221.165 2
  28962976.649    13665995.517 5  10648847.879 2
  28367328.604      594473.208 6    463218.379 2
  26409886.813    -9500507.981 7  -7402985.437 5
  26019618.496      424755.187 7    330995.705 5
 91 11  5  8 38  0.0150000  0  6  2 16 18 11  6 19
  25357124.530   -15314850.475 8 -11933633.004 7
  28763055.847     2228428.132 5   1736442.350 2
  28988602.608    13800669.665 5  10753788.718 3
  28385089.209      687825.218 6    535960.192 2
  26404514.537    -9528744.103 7  -7424987.606 5
  26032602.801      493019.764 7    384188.877 4
 91 11  5  8 38 30.0150000  0  6  2 16 18 11  6 19
  25357637.776   -15312164.470 8 -11931540.000 7
  28777090.037     2302190.197 5   1793919.276 1
  29014242.658    13935403.980 5  10858776.538 2
  28402944.848      781648.851 6    609069.527 2
  26399161.142    -9556882.546 7  -7446913.647 5
  26045649.771      561565.011 7    437600.760 4
 91 11  5  8 39  0.0150000  0  6  2 16 18 11  6 19
  25358202.884   -15309185.740 8 -11929218.911 7
  28791177.283     2376275.171 5   1851647.880 2
  29039888.702    14070194.412 5  10963808.007 2
  28420883.235      875939.688 6    682542.869 1
  26393825.738    -9584924.336 7  -7468764.391 5
  26058753.698      630389.567 6    491230.261 5
 91 11  5  8 39 30.0150000  0  6  2 16 18 11  6 19
  25358828.544   -15305917.720 8 -11926672.391 7
  28805345.473     2450677.910 3   1909624.014 2
  29065551.236    14205036.126 5  11068879.459 1
  28438923.541      970692.249 6    756376.040 2
  26388505.018    -9612871.644 7  -7490541.509 3
  26071901.102      699490.701 7    545075.278 4
 91 11  5  8 40  0.0150000  0  6  2 16 18 11  6 19
  25359503.981   -15302356.318 8 -11923897.280 7
  28819556.232     2525399.910 4   1967848.917
  29091220.367    14339931.266 5  11173992.498 2
  28457037.905     1065908.725 6    830570.664 2
  26383210.081    -9640719.252 7  -7512240.933 5
  26085096.764      768873.308 7    599139.646 4
 91 11  5  8 40 30.0150000  0  6  2 16 18 11  6 19
  25360237.274   -15298500.640 8 -11920892.843 7
  28833835.955     2600439.831 4   2026321.515 2
  29116895.195    14474878.933 5  11279146.529
  28475246.693     1161588.287 6    905126.174 2
  26377926.242    -9668464.711 7  -7533860.765 4
  26098352.988      838539.016 7    653424.609 5
 91 11  5  8 41  0.0150000  0  6  2 16 18 11  6 19
  25361026.024   -15294355.903 8 -11917663.174 7
  28848176.221     2675790.709 5   2085036.310 2
  29142590.109    14609872.510 5  11384336.260 2
  28493536.135     1257723.687 6    980036.819 2
  26372665.185    -9696111.590 7  -7555403.779 6
  26111664.974      908483.788 7    707926.999 5
 91 11  5  8 41 30.0150000  0  6  2 16 18 11  6 19
  25361870.239   -15289918.639 8 -11914205.556 7
  28862578.854     2751453.510 5   2143994.500 2
  29168286.819    14744913.549 5  11489563.004 2
  28511917.313     1354316.373 6   1055303.872 3
  26367422.415    -9723654.846 7  -7576866.047 5
  26125030.916      978712.148 7    762650.372 4
 91 11  5  8 42  0.0150000  0  6  2 16 18 11  6 19
  25362769.021   -15285190.627 8 -11910521.392 7
  28877041.141     2827424.729 4   2203192.878
  29193991.322    14879998.433 5  11594823.965 1
  28530383.326     1451362.586 6   1130924.258 2
  26362202.427    -9751095.186 7  -7598248.123 4
  26138444.235     1049222.717 7    817593.669 3
 91 11  5  8 42 30.0150000  0  6  2 16 18 11  6 19
  25363722.964   -15280175.331 8 -11906613.360 7
  28891545.395     2903698.493 3   2262627.071 2
  29219699.122    15015122.019 5  11700115.042 2
  28548940.184     1548856.961 6   1206893.870 3
  26356998.030    -9778434.437 7  -7619551.438 5
  26151919.599     1120013.119 7    872755.016 4
 91 11  5  8 43  0.0150000  0  5  2 18 11  6 19
  25364732.965   -15274874.654 8 -11902482.968 7
  29245428.508    15150280.973 5  11805433.652 2
  28567583.072     1646795.724 6   1283209.755 2
  26351816.720    -9805673.252 7  -7640776.474 5
  26165443.544     1191082.504 7    928133.728 5
 91 11  5  8 43 30.0150000  0  6  2 16 18 11  6 19
  25365797.227   -15269286.532 8 -11898128.574 8
  28920746.686       58954.75215     45943.216 1
  29271151.002    15285475.192 5  11910779.565 1
  28586305.716     1745178.693 6   1359871.813 4
  26346653.087    -9832808.051 7  -7661920.464 5
  26179021.445     1262433.521 7    983731.895 5
 91 11  5  8 44  0.0150000  0  6  2 16 18 11  6 19
  25366915.149   -15263412.890 8 -11893551.715 7
  28935432.318      136120.147 5    106072.199 1
  29296882.194    15420701.096 5  12016150.181 2
  28605102.104     1844002.163 6   1436877.069 3
  26341508.353    -9859838.695 7  -7682983.300 5
  26192649.707     1334065.241 7   1039548.804 4
 91 11  5  8 44 30.0150000  0  6  2 16 18 11  6 19
  25368087.036   -15257254.477 8 -11888752.949 7
  28950174.009      213576.610 5    166427.738 3
  29322622.373    15555956.665 5  12121544.028 1
  28623990.822     1943263.324 6   1514223.378 3
  26336387.299    -9886765.393 7  -7703965.139 5
  26206335.232     1405977.500 7   1095584.340 4
 91 11  5  8 45  0.0150000  0  6  2 16 18 11  6 19
  25369310.794   -15250814.562 8 -11883734.828 7
  28964973.268      291318.797 5    227006.136 2
  29348364.952    15691237.340 5  12226957.509 1
  28642965.883     2042957.183 6   1591906.870 3
  26331280.938    -9913588.874 7  -7724866.546 5
  26220071.721     1478167.983 7   1151836.627 5
 91 11  5  8 45 30.0150000  0  5  2 18 11  6 19
  25370588.508   -15244094.715 8 -11878498.579 7
  29374111.125    15826539.387 5  12332387.652 1
  28662023.092     2143079.770 6   1669924.466 3
  26326194.958    -9940309.731 7  -7745687.999 4
  26233864.870     1550636.178 7   1208305.320 4
 91 11  5  8 46  0.0150000  0  5  2 16 11  6 19
  25371923.484   -15237094.876 8 -11873044.164 7
  28994711.179       13066.23415     10185.729 1
  28681158.547     2243629.601 6   1748274.961 2
  26321133.261    -9966925.986 7  -7766427.924 5
  26247701.793     1623382.942 7   1264991.099 3
 91 11  5  8 46 30.0150000  0  5  2 16 11  6 19
  25373308.220   -15229812.535 8 -11867369.612 7
  29009673.222       91651.377 4     71420.782 1
  28700367.450     2344606.957 6   1826958.607 4
  26316086.256    -9993434.191 7  -7787083.666 5
  26261608.265     1696411.389 7   1321896.381 4
 91 11  5  8 47  0.0150000  0  5  2 16 11  6 19
  25374750.524   -15222250.905 8 -11861477.418 7
  29024675.140      170511.192 6    132869.991 2
  28719663.892     2446006.292 6   1905971.059 3
  26311064.127   -10019835.309 7  -7807655.956 5
  26275556.712     1769719.088 7   1379019.222 4
 91 11  5  8 47 30.0150000  0  5  2 16 11  6 19
  25376241.392   -15214409.986 8 -11855367.616 7
  29039737.609      249643.654 4    194531.824 2
  28739046.372     2547825.780 6   1985310.904 3
  26306055.793   -10046128.270 7  -7828143.973 5
  26289560.320     1843307.038 6   1436360.459 4
 91 11  5  8 48  0.0150000  0  5  2 16 11  6 19
  25377785.928   -15206287.437 8 -11849038.358 8
  29054845.048      329048.994 5    256406.013 2
  28758494.212     2650065.664 6   2064978.294 5
  26301076.242   -10072308.663 7  -7848544.272 5
  26303614.586     1917178.636 7   1493922.727 3
 91 11  5  8 48 30.0150000  0  5  2 16 11  6 19
  25379382.920   -15197885.595 8 -11842491.474 7
  29070014.548      408722.692 5    318489.490 2
  28778024.487     2752721.379 6   2144969.771 3
  26296118.574   -10098377.925 7  -7868857.977 5
  26317733.016     1991331.893 6   1551704.473 3
 91 11  5  8 49  0.0150000  0  5  2 16 11  6 19
  25381034.775   -15189206.252 8 -11835728.338 7
  29085217.623      488661.308 4    380779.285 2
  28797636.909     2855789.432 6   2225282.493 4
  26291176.498   -10124335.775 7  -7889084.868 5
  26331893.405     2065766.208 6   1609705.214 4
 91 11  5  8 49 30.0150000  0  5  2 16 11  6 19
  25382736.398   -15180248.817 8 -11828748.516 7
  29100480.055      568862.306 5    443273.494 2
  28817330.274     2959267.944 6   2305915.106 2
  26286258.704   -10150180.295 7  -7909223.443 5
  26346107.471     2140482.623 7   1667925.762 4
 91 11  5  8 50  0.0150000  0  5  2 16 11  6 19
  25384498.277   -15171013.500 9 -11821552.164 7
  29115790.457      649323.911 4    505970.806 2
  28837103.988     3063155.131 6   2386866.125 4
  26281364.293   -10175909.613 7  -7929272.257 5
  26360383.285     2215481.695 6   1726366.591 4
 91 11  5  8 50 30.0150000  0  5  2 16 11  6 19
  25386306.625   -15161503.802 8 -11814142.018 7
  29131150.627      730040.125 5    568866.408 2
  28856940.357     3167445.215 6   2468131.140 2
  26276487.865   -10201525.471 7  -7949232.654 5
  26374699.575     2290760.914 7   1785025.711 5
 91 11  5  8 51  0.0150000  0  5  2 16 11  6 19
  25388169.837   -15151721.839 9 -11806519.705 8
  29146557.258      811006.068 5    631956.529 2
  28876869.361     3272133.594 6   2549706.472 2
  26271635.421   -10227028.753 7  -7969105.340 5
  26389082.123     2366318.574 7   1843901.785 5
 91 11  5  8 51 30.0150000  0  5  2 16 11  6 19
  25390084.606   -15141666.873 9 -11798684.669 8
  29162013.955      892220.651 4    695240.531 2
  28896862.817     3377219.163 6   2631591.353 4
  26266803.674   -10252416.934 7  -7988888.335 5
  26403521.619     2442156.560 6   1902996.292 4
 91 11  5  8 52  0.0150000  0  5  2 16 11  6 19
  25392045.548   -15131342.733 9 -11790639.872 8
  29177521.326      973677.807 6    758713.825 1
  28916936.919     3482696.079 5   2713781.132 3
  26261994.403   -10277692.044 7  -8008583.221 5
  26418001.601     2518271.826 6   1962306.888 5
 91 11  5  8 52 30.0150000  0  5  2 16 11  6 19
  25394064.355   -15120748.412 9 -11782384.565 8
  29193060.763     1055375.948 5    822374.645 3
  28937086.276     3588563.319 5   2796275.095 2
  26257207.014   -10302851.417 7  -8028187.919 5
  26432535.538     2594666.364 6   2021835.082 2
 91 11  5  8 53  0.0150000  0  6  2 15 16 11  6 19
  25396130.225   -15109882.575 9 -11773917.674 7
  29269616.962       -5214.81414     -4047.492 2
  29208655.664     1137314.693 4    886222.832 2
  28957307.571     3694819.864 5   2879072.363 4
  26252442.712   -10327892.205 7  -8047700.221 6
  26447125.534     2671342.124 6   2081582.411 2
 91 11  5  8 53 30.0150000  0  6  2 15 16 11  6 19
  25398250.654   -15098749.011 9 -11765242.168 7
  29263700.858      -36286.818 5    -28259.380 3
  29224295.841     1219487.670 5    950253.704 1
  28977598.727     3801459.664 5   2962168.320 2
  26247694.901   -10352816.629 7  -8067121.839 6
  26461770.996     2748295.783 6   2141546.241 4
 91 11  5  8 54  0.0150000  0  6  2 15 16 11  6 19
  25400419.655   -15087349.067 9 -11756359.096 8
  29257828.825      -67056.334 4    -52235.558 2
  29239967.192     1301891.382 5   1014464.414 1
  28997968.724     3908479.513 5   3045560.445 3
  26242978.561   -10377623.636 8  -8086451.971 5
  26476465.920     2825526.943 6   2201726.359 4
 91 11  5  8 54 30.0150000  0  6  2 15 16 11  6 19
  25402639.017   -15075685.513 9 -11747270.611 7
  29252052.122      -97521.821 5    -75974.878 2
  29255690.711     1384521.027 5   1078851.132 2
  29018399.579     4015874.449 5   3129244.761 3
  26238280.517   -10402314.722 8  -8105691.775 6
  26491214.809     2903033.774 6   2262121.266 2
 91 11  5  8 55  0.0150000  0  6  2 15 16 11  6 19
  25404909.351   -15063751.505 9 -11737971.388 7
  29246312.903     -127673.447 5    -99469.608 2
  29271459.792     1467380.470 5   1143416.973 2
  29038906.586     4123648.796 5   3213224.788 2
  26233602.855   -10426881.331 8  -8124834.581 6
  26506024.260     2980823.477 6   2322736.605 4
 91 11  5  8 55 30.0150000  0  6  2 15 16 11  6 19
  25407229.445   -15051547.280 9 -11728461.601 8
  29240636.329     -157508.529 5   -122717.717 2
  29287277.141     1550468.068 4   1208160.746 2
  29059484.337     4231799.996 5   3297498.397 1
  26228955.775   -10451322.092 8  -8143879.324 6
  26520878.679     3058896.362 6   2383572.575 2
 91 11  5  8 56  0.0150000  0  6  2 15 16 11  6 19
  25409605.598   -15039075.193 9 -11718743.088 7
  29234996.332     -187025.690 4   -145718.012 2
  29303127.165     1633778.961 5   1273078.193 2
  29080128.947     4340324.171 5   3382062.718 2
  26224329.373   -10475637.307 8  -8162826.250 5
  26535787.054     3137251.254 6   2444628.301 3
 91 11  5  8 56 30.0150000  0  5  2 15 11  6 19
  25412029.416   -15026334.969 9 -11708815.637 8
  29229446.875     -216221.080 5   -168467.609 2
  29100849.100     4449219.262 5   3466916.008 1
  26219725.159   -10499824.823 8  -8181673.657 6
  26550748.199     3215889.032 6   2505904.510 4
 91 11  5  8 57  0.0150000  0  5  2 15 11  6 19
  25414504.205   -15013325.427 9 -11698678.339 8
  29223984.957     -245089.804 5   -190962.705 3
  29121649.001     4558484.447 5   3552057.764 2
  26215147.330   -10523881.620 8  -8200419.213 6
  26565764.504     3294812.034 6   2567402.922 4
 91 11  5  8 57 30.0150000  0  5  2 15 11  6 19
  25417032.053   -15000047.229 9 -11688331.686 8
  29218517.341     -273629.316 5   -213201.251 1
  29142531.642     4668116.451 5   3637485.298 2
  26210590.485   -10547806.697 8  -8219062.124 6
  26580843.761     3374019.670 6   2629123.120 4
 91 11  5  8 58  0.0150000  0  5  2 15 11  6 19
  25419609.668   -14986500.931 9 -11677776.134 8
  29213172.941     -301837.152 5   -235181.298 1
  29163442.770     4778112.781 5   3723196.692 2
  26206063.018   -10571599.001 8  -8237601.573 5
  26595966.791     3453512.231 6   2691065.361 2
 91 11  5  8 58 30.0150000  0  5  2 15 11  6 19
  25422238.849   -14972686.461 9 -11667011.617 9
  29207855.520     -329709.653 5   -256900.072 1
  29184455.519     4888471.467 6   3809190.541 2
  26201562.833   -10595256.621 8  -8256036.070 6
  26611150.086     3533290.553 6   2753230.273 4
 91 11  5  8 59  0.0150000  0  5  2 15 11  6 19
  25424917.195   -14958604.921 9 -11656038.996 8
  29202630.436     -357243.951 5   -278355.372 2
  29205518.342     4999188.699 6   3895463.697 3
  26197086.634   -10618778.410 8  -8274364.737 5
  26626393.933     3613354.292 6   2815617.563 2
 91 11  5  8 59 30.0150000  0  5  2 15 11  6 19
  25427650.100   -14944260.790 9 -11644861.746 7
  29197450.923     -384441.096 5   -299547.915 2
  29226649.509     5110258.301 6   3982011.408 2
  26192636.218   -10642167.184 8  -8292589.745 5
  26641673.457     3693700.117 6   2878224.667 4
 91 11  5  9  0  0.0150000  0  5  2 15 11  6 19
  25430428.279   -14929654.009 9 -11633479.838 7
  29192343.960     -411298.309 5   -320475.535 2
  29247850.834     5221678.150 6   4068832.140 2
  26188210.677   -10665421.092 8  -8310709.669 6
  26657016.832     3774328.150 6   2941051.671 2
 91 11  5  9  0 30.0150000  0  5  2 15 11  6 19
  25433257.719   -14914785.124 8 -11621893.699 7
  29187296.057     -437812.100 5   -341135.592 2
  29269123.810     5333445.417 6   4155923.547 4
  26183813.327   -10688538.947 8  -8328723.587 6
  26672414.468     3855238.416 6   3004098.633 4
 91 11  5  9  1  0.0150000  0  5  2 15 11  6 19
  25436135.731   -14899656.419 8 -11610105.104 8
  29182321.899     -463981.697 5   -361527.451 2
  29290468.131     5445555.766 6   4243282.260 3
  26179440.852   -10711520.736 8  -8346631.460 5
  26687863.974     3936429.554 6   3067364.414 3
 91 11  5  9  1 30.0150000  0  5  2 15 11  6 19
  25439065.003   -14884269.750 9 -11598115.488 8
  29177401.103     -489805.294 5   -381649.704 2
  29311868.816     5558005.093 6   4330905.110 3
  26175091.464   -10734366.498 8  -8364433.349 5
  26703374.941     4017900.531 6   3130848.251 3
 91 11  5  9  2  0.0150000  0  5  2 15 11  6 19
  25442039.846   -14868623.428 9 -11585923.556 8
  29172560.953     -515277.881 5   -401498.376 1
  29333314.767     5670792.612 6   4418791.471 4
  26170767.553   -10757072.917 8  -8382126.652 6
  26718922.770     4099653.238 6   3194551.613 4
 91 11  5  9  2 30.0150000  0  5  2 15 11  6 19
  25445067.747   -14852715.787 8 -11573527.992 8
  29167776.566     -540395.029 5   -421070.131 1
  29354855.159     5783917.600 6   4506940.838 4
  26166475.724   -10779636.652 8  -8399708.778 6
  26734541.658     4181689.980 6   3258476.350 3
 91 11  5  9  3  0.0150000  0  5  2 15 11  6 19
  25448144.220   -14836551.312 8 -11560932.301 8
  29163052.443     -565157.834 5   -440365.793 1
  29376439.613     5897373.516 6   4595348.035 3
  26162213.578   -10802059.980 8  -8417181.498 6
  26750198.325     4264007.079 6   3322619.527 4
 91 11  5  9  3 30.0150000  0  5  2 15 11  6 19
  25451270.453   -14820130.636 9 -11548136.977 8
  29158410.755     -589562.764 5   -459382.599 3
  29398075.335     6011158.072 5   4684011.321 4
  26157970.915   -10824341.169 8  -8434543.457 6
  26765915.238     4346605.129 6   3386981.599 4
 91 11  5  9  4  0.0150000  0  5  2 15 11  6 19
  25454441.358   -14803453.511 8 -11535141.810 7
  29153851.807     -613606.601 6   -478117.968 1
  29419813.289     6125268.900 5   4772928.813 4
  26153757.028   -10846478.274 8  -8451793.139 6
  26781696.613     4429484.380 6   3451562.779 2
 91 11  5  9  4 30.0150000  0  5  2 15 11  6 19
  25457663.524   -14786521.428 8 -11521947.984 7
  29149336.031     -637287.772 5   -496570.765 1
  29441595.305     6239702.213 5   4862097.645 4
  26149572.230   -10868471.137 8  -8468930.429 6
  26797519.066     4512643.927 6   3516362.447 3
 91 11  5  9  5  0.0150000  0  5  2 15 11  6 19
  25460936.958   -14769335.340 9 -11508556.232 8
  29144900.605     -660604.320 5   -514739.492 2
  29463413.906     6354454.613 4   4951515.082 4
  26145415.309   -10890319.060 8  -8485954.780 7
  26813389.175     4596083.501 6   3581380.255 5
 91 11  5  9  5 30.0150000  0  5  2 15 11  6 19
  25464252.961   -14751897.288 8 -11494968.151 8
  29140526.629     -683554.407 5   -532622.636 1
  29485317.035     6469522.093 5   5041178.037 3
  26141286.265   -10912021.819 8  -8502866.010 6
  26829324.348     4679801.747 6   3646615.217 3
 91 11  5  9  6  0.0150000  0  5  2 15 11  6 19
  25467621.735   -14734208.123 8 -11481184.378 8
  29136238.098     -706135.934 5   -550218.553 2
  29507279.836     6584901.343 4   5131083.912 3
  26137182.707   -10933577.995 8  -8519663.027 6
  26845307.482     4763798.404 6   3712067.112 3
 91 11  5  9  6 30.0150000  0  5  2 15 11  6 19
  25471031.874   -14716271.391 8 -11467207.711 8
  29132004.737     -728349.457 5   -567527.743 3
  29529275.608     6700586.467 4   5221228.158 3
  26133110.026   -10954989.765 8  -8536347.521 6
  26861343.080     4848070.338 6   3777733.561 4
 91 11  5  9  7  0.0150000  0  6  2 15 11  6 13 19
  25474493.578   -14698086.195 8 -11453037.432 7
  29127857.404     -750190.090 5   -584546.391 3
  29551352.027     6816576.508 4   5311609.980 3
  26129061.925   -10976253.377 8  -8552916.565 6
  29312287.927     -703691.495 5   -548331.103 1
  26877429.040     4932619.522 6   3843616.014 3
 91 11  5  9  7 30.0150000  0  6  2 15 11  6 13 19
  25478002.948   -14679655.567 8 -11438675.913 8
  29123764.037     -771657.438 5   -601274.190 2
  29573489.304     6932866.018 4   5402225.129 2
  26125043.210   -10997369.896 8  -8569370.990 6
  29293627.947     -801770.313 5   -624756.041 1
  26893576.765     5017443.259 6   3909712.377 5
 91 11  5  9  8  0.0150000  0  6  2 15 11  6 13 19
  25481553.386   -14660982.499 9 -11424125.467 8
  29119771.401     -792751.914 5   -617711.330 6
  29595670.947     7049449.189 4   5493069.159 1
  26121051.769   -11018341.028 8  -8585712.122 6
  29274970.959     -899817.617 5   -701156.522 2
  26909769.450     5102538.981 6   3976020.701 4
 91 11  5  9  8 30.0150000  0  6  2 15 11  6 13 19
  25485151.194   -14642065.778 9 -11409385.166 7
  29115808.745     -813468.701 5   -633854.256 2
  29617908.048     7166325.726 5   5584141.820 3
  26117091.512   -11039163.070 8  -8601937.083 6
  29256320.271     -997828.637 5   -777528.666 2
  26926009.216     5187908.898 6   4042542.684 1
 91 11  5  9  9  0.0150000  0  6  2 15 11  6 13 19
  25488799.973   -14622908.865 9 -11394457.704 8
  29111932.432     -833808.248 5   -649703.247 3
  29640206.014     7283489.739 5   5675438.446 2
  26113158.538   -11059837.558 8  -8618047.076 6
  29237672.584    -1095802.881 4   -853872.184 2
  26942307.431     5273549.701 6   4109275.762 3
 91 11  5  9  9 30.0150000  0  6  2 15 11  6 13 19
  25492489.516   -14603511.199 9 -11379342.646 8
  29108138.554     -853766.876 5   -665255.427 2
  29662550.146     7400939.319 5   5766957.523 1
  26109252.237   -11080362.238 8  -8634040.335 6
  29219040.481    -1193737.029 5   -930184.364 2
  26958657.806     5359462.111 6   4176220.460 5
 91 11  5  9 10  0.0150000  0  6  2 15 11  6 13 19
  25496227.929   -14583873.778 9 -11364040.762 7
  29104413.334     -873342.779 5   -680509.294 1
  29684956.330     7518671.377 5   5858696.901 1
  26105375.026   -11100735.790 8  -8649915.822 6
  29200417.068    -1291627.448 3  -1006462.577 2
  26975055.557     5445645.961 6   4243376.680 2
 91 11  5  9 10 30.0150000  0  6  2 15 11  6 13 19
  25500008.615   -14563996.441 8 -11348551.921 8
  29100763.664     -892531.998 5   -695461.898 2
  29707412.588     7636684.146 5   5950654.910 1
  26101527.488   -11120955.681 8  -8665671.576 6
  29181787.067    -1389469.803 4  -1082703.319 2
  26991512.063     5532102.236 6   4310745.191 2
 91 11  5  9 11  0.0160000  0  5  2 15 11  6 19
  25503837.257   -14543879.200 8 -11332876.148 8
  29097174.542     -911333.205 5   -710112.147 2
  29729925.797     7754977.868 6   6042831.944 2
  26097710.230   -11141021.782 8  -8681307.494 6
  27008012.940     5618832.940 6   4378327.530 2
 91 11  5  9 11 30.0160000  0  5  2 15 11  6 19
  25507709.381   -14523522.240 9 -11317013.591 8
  29093681.959     -929740.581 5   -724455.572 3
  29752485.779     7873543.738 5   6135220.933 2
  26093919.057   -11160929.462 8  -8696819.956 6
  27024576.172     5705834.451 6   4446120.887 3
 91 11  5  9 12  0.0160000  0  5  2 15 11  6 19
  25511630.663   -14502927.748 9 -11300965.935 8
  29090262.231     -947754.910 5   -738492.664 1
  29775104.525     7992380.382 6   6227820.926 1
  26090162.653   -11180680.242 8  -8712210.173 6
  27041179.880     5793106.989 6   4514125.405 3
 91 11  5  9 12 30.0160000  0  6  2 15 11  6 13 19
  25515593.625   -14482097.461 9 -11284734.543 8
  29086895.561     -965374.710 5   -752222.264 1
  29797775.429     8111483.952 6   6320628.919 2
  26086434.737   -11200273.551 8  -8727477.682 6
  29107424.154      -16266.22215    -12674.561 2
  27057845.047     5880649.195 6   4582340.092 2
 91 11  5  9 13  0.0160000  0  6  2 15 11  6 13 19
  25519603.345   -14461030.206 9 -11268318.498 8
  29083615.836     -982595.205 5   -765640.859 2
  29820482.908     8230853.753 5   6413644.383 2
  26082733.799   -11219705.791 8  -8742619.677 6
  29088855.604     -113826.599 5    -88695.427 1
  27074547.680     5968463.448 6   4650766.775 2
 91 11  5  9 13 30.0160000  0  6  2 15 11  6 13 19
  25523658.043   -14439726.874 9 -11251718.507 9
  29080410.152     -999414.428 5   -778746.727 2
  29843251.551     8350486.428 5   6506864.664 2
  26079070.632   -11238976.083 8  -8757635.490 6
  29070292.158     -211321.188 4   -164665.231 2
  27091315.071     6056549.161 6   4719404.965 2
 91 11  5  9 14  0.0160000  0  6  2 15 11  6 13 19
  25527755.005   -14418190.188 9 -11234936.679 7
  29077284.513    -1015831.679 5   -791539.347 2
  29866061.560     8470376.934 5   6600285.862 1
  26075431.459   -11258084.923 8  -8772525.477 6
  29051752.986     -308749.376 5   -240583.266 2
  27108122.335     6144904.242 6   4788253.004 3
 91 11  5  9 14 30.0160000  0  5  2 15  6 13 19
  25531898.437   -14396420.820 9 -11217973.527 7
  29074246.421    -1031845.240 5   -804017.302 2
  26071826.148   -11277031.124 8  -8787288.753 7
  29033237.205     -406108.325 5   -316447.338
  27124985.667     6233527.853 6   4857310.341 2
 91 11  5  9 15  0.0160000  0  5  2 15  6 13 19
  25536086.533   -14374416.059 8 -11200826.973 8
  29071280.870    -1047449.246 5   -816176.296 1
  26068252.928   -11295810.020 8  -8801921.657 6
  29014719.026     -503391.296 6   -392252.171 2
  27141905.049     6322423.229 6   4926579.467 2
 91 11  5  9 15 30.0160000  0  5  2 15  6 13 19
  25540316.911   -14352180.294 9 -11183500.400 8
  29068393.871    -1062645.483 5   -828017.502 3
  26064709.678   -11314424.169 8  -8816426.174 6
  28996223.034     -600599.563 6   -467998.816 2
  27158871.503     6411586.234 6   4996057.084 3
 91 11  5  9 16  0.0160000  0  5  2 15  6 13 19
  25544593.444   -14329712.509 9 -11165993.047 8
  29065580.320    -1077429.345 5   -839537.420 3
  26061200.003   -11332869.660 8  -8830799.282 7
  28977737.826     -697728.518 6   -543683.666 1
  27175894.016     6501018.454 6   5065744.480 3
 91 11  5  9 16 30.0160000  0  5  2 15  6 13 19
  25548908.962   -14307016.442 9 -11148307.794 8
  29062843.515    -1091801.586 5   -850736.550 1
  26057722.410   -11351148.455 8  -8845042.495 6
  28959273.009     -794777.192 5   -619305.969 2
  27192966.297     6590716.572 6   5135639.098 1
 91 11  5  9 17  0.0160000  0  5  2 15  6 13 19
  25553274.238   -14284093.543 9 -11130445.801 8
  29060184.949    -1105760.761 5   -861613.714 2
  26054276.001   -11369259.757 8  -8859155.188 6
  28940819.587     -891743.901 5   -694864.446 2
  27210084.455     6680679.846 6   5205740.348 2
 91 11  5  9 17 30.0160000  0  5  2 15  6 13 19
  25557678.185   -14260942.639 9 -11112406.137 8
  29057599.542    -1119303.280 5   -872166.309 1
  26050861.665   -11387200.127 8  -8873134.695 7
  28922383.249     -988623.660 5   -770355.094 2
  27227246.971     6770909.787 6   5276049.338 3
 91 11  5  9 18  0.0160000  0  5  2 15  6 13 19
  25562126.507   -14237562.650 9 -11094187.966 8
  29055115.163    -1132424.896 5   -882390.951 2
  26047481.200   -11404966.812 8  -8886978.866 6
  28903960.408    -1085412.046 5   -845774.603
  27244471.549     6861407.706 6   5346567.155 3
 91 11  5  9 18 30.0160000  0  5  2 15  6 13 19
  25566619.798   -14213955.669 9 -11075792.922 7
  29052697.933    -1145124.242 5   -892286.468 2
  26044133.725   -11422559.485 8  -8900687.435 6
  28885563.045    -1182107.183 5   -921121.398 1
  27261742.291     6952171.794 6   5417292.386 4
 91 11  5  9 19  0.0160000  0  5  2 15  6 13 19
  25571154.761   -14190121.269 9 -11057220.657 7
  29050362.553    -1157398.465 5   -901850.769 2
  26040818.620   -11439975.370 8  -8914258.254 6
  28867182.766    -1278705.238 5   -996392.593 1
  27279064.598     7043202.690 6   5488225.543 3
 91 11  5  9 19 30.0160000  0  5  2 15  6 13 19
  25575733.785   -14166057.990 9 -11038470.054 8
  29048110.515    -1169243.139 5   -911080.366 1
  26037538.887   -11457210.976 8  -8927688.587 6
  28848821.376    -1375200.846 5  -1071583.977 2
  27296439.370     7134502.109 6   5559367.930 2
 91 11  5  9 20  0.0160000  0  5  2 15  6 13 19
  25580355.990   -14141765.665 8 -11019540.977 8
  29045934.315    -1180655.385 5   -919973.010 2
  26034293.635   -11474263.711 8  -8940976.428 7
  28830486.371    -1471590.257 5  -1146692.579 1
  27313866.606     7226070.545 6   5630719.903 2
 91 11  5  9 20 30.0160000  0  5  2 15  6 13 19
  25585022.554   -14117243.780 9 -11000433.010 8
  29043845.664    -1191632.008 5   -928526.211 2
  26031084.958   -11491131.253 8  -8954119.965 7
  28812163.058    -1567869.526 5  -1221715.338 1
  27331340.006     7317909.213 6   5702282.414 1
 91 11  5  9 21  0.0160000  0  5  2 15  6 13 19
  25589732.900   -14092495.777 9 -10981148.858 8
  29041833.453    -1202173.645 5   -936740.423 2
  26027910.450   -11507815.155 8  -8967120.403 7
  28793857.125    -1664037.917 5  -1296651.725 2
  27348865.277     7410014.568 6   5774052.863 2
 91 11  5  9 21 30.0160000  0  5  2 15  6 13 19
  25594483.407   -14067521.528 9 -10961688.404 8
  29039914.784    -1212276.807 5   -944612.970 2
  26024770.728   -11524312.864 8  -8979975.754 6
  28775574.585    -1760092.077 5  -1371499.088 2
  27366441.503     7502387.156 6   5846031.443 2
 91 11  5  9 22  0.0160000  0  5  2 15  6 13 19
  25599279.486   -14042320.682 9 -10942051.386 8
  29038087.851    -1221938.749 5   -952141.717 1
  26021669.676   -11540621.563 8  -8992683.831 7
  28757313.926    -1856027.995 5  -1446254.325 2
  27384077.095     7595027.928 6   5918219.036 3
 91 11  5  9 22 30.0160000  0  5  2 15  6 13 19
  25604119.339   -14016895.981 9 -10922239.935 7
  29036317.579    -1231159.307 5   -959326.597 1
  26018598.900   -11556741.623 8  -9005244.906 6
  28739083.850    -1951844.700 6  -1520916.669 1
  27401754.959     7687934.610 6   5990613.807 3
 91 11  5  9 23  0.0160000  0  5  2 15  6 13 19
  25608999.362   -13991245.641 8 -10902252.659 7
  29034654.931    -1239933.794 5   -966163.774
  26015568.295   -11572669.420 8  -9017656.165 6
  28720879.250    -2047536.226 6  -1595481.498 2
  27419484.389     7781108.646 6   6063216.966 2
 91 11  5  9 23 30.0160000  0  5  2 15  6 13 19
  25613924.651   -13965366.329 9 -10882086.959 7
  29033071.123    -1248256.664 5   -972649.091 2
  26012577.572   -11588399.494 8  -9029913.367 7
  28702691.141    -2143096.451 5  -1669943.951 2
  27437266.876     7874553.800 6   6136031.338 2
 91 11  5  9 24  0.0160000  0  5  2 15  6 13 19
  25618892.510   -13939258.402 9 -10861743.131 8
  29031572.158    -1256125.336 5   -978780.528 1
  26009619.515   -11603929.872 8  -9042014.953 7
  28684528.518    -2238521.382 5  -1744301.031 3
  27455098.233     7968270.167 6   6209057.014 3
 91 11  5  9 24 30.0160000  0  5  2 15  6 13 19
  25623904.736   -13912925.095 8 -10841223.670 7
  29030165.531    -1263540.874 5   -984558.841 2
  26006702.537   -11619261.734 8  -9053961.848 6
  28666406.363    -2333810.739 6  -1818552.440 2
  27472985.945     8062254.612 6   6282291.587 2
 91 11  5  9 25  0.0160000  0  5  2 15  6 13 19
  25628959.837   -13886360.674 8 -10820524.127 8
  29028837.456    -1270494.281 5   -989977.049 2
  26003825.127   -11634386.936 8  -9065747.722 6
  28648294.694    -2428955.745 6  -1892691.380 2
  27490916.838     8156512.941 6   6355739.663 2
 91 11  5  9 25 30.0160000  0  5  2 15  6 13 19
  25634056.610   -13859569.196 8 -10799647.654 8
  29027599.311    -1276986.779 5   -995036.092 2
  26000984.293   -11649307.442 8  -9077374.086 7
  28630217.813    -2523956.502 5  -1966717.939 2
  27508913.972     8251041.350 6   6429398.128 3
 91 11  5  9 26  0.0160000  0  5  2 15  6 13 19
  25639199.555   -13832552.025 8 -10778595.321 8
  29026449.908    -1283017.257 5   -999735.147 3
  25998183.332   -11664022.205 8  -9088840.128 6
  28612176.600    -2618810.373 6  -2040630.009 2
  27526946.791     8345838.886 6   6503266.280 5
 91 11  5  9 26 30.0160000  0  5  2 15  6 13 19
  25644385.359   -13805309.489 8 -10757367.375 8
  29025397.634    -1288583.593 5  -1004072.567 2
  25995423.746   -11678528.885 8  -9100144.039 7
  28594146.189    -2713514.010 5  -2114425.047 2
  27545040.468     8440905.491 6   6577344.110 3
 91 11  5  9 27  0.0160000  0  5  2 15  6 13 19
  25649611.943   -13777841.580 8 -10735963.809 8
  29024423.013    -1293683.434 5  -1008046.468 3
  25992701.023   -11692825.940 8  -9111284.593 7
  28576155.337    -2808064.378 6  -2188100.633 2
  27563180.903     8536241.116 6   6651631.590 4
 91 11  5  9 27 30.0160000  0  5  2 15  6 13 19
  25654879.300   -13750151.101 8 -10714386.824 7
  29023540.119    -1298316.529 5  -1011656.625 2
  25990022.083   -11706913.483 8  -9122261.894 7
  28558190.574    -2902459.588 6  -2261655.334 2
  27581382.510     8631843.268 6   6726126.781 2
 91 11  5  9 28  0.0160000  0  5  2 15  6 13 19
  25660190.719   -13722237.420 8 -10692635.905 8
  29022748.072    -1302479.955 5  -1014900.816 2
  25987382.712   -11720789.178 8  -9133074.121 7
  28540257.587    -2996695.990 5  -2335086.250 1
  27599613.485     8727712.503 6   6800830.014 3
 91 11  5  9 28 30.0160000  0  5  2 15  6 13 19
  25665544.716   -13694101.174 8 -10670711.568 8
  29022057.348    -1306172.274 5  -1017777.922 2
  25984783.510   -11734451.089 8  -9143719.756 7
  28522362.677    -3090770.804 6  -2408391.316 3
  27617912.516     8823848.176 6   6875740.883 1
 91 11  5  9 29  0.0160000  0  5  2 15  6 13 19
  25670938.579   -13665746.632 9 -10648617.112 7
  29021424.490    -1309395.221 5  -1020289.322 2
  25982224.183   -11747901.625 8  -9154200.691 7
  28504486.656    -3184684.816 5  -2481571.014 2
  27636264.910     8920246.417 5   6950856.340 2
 91 11  5  9 29 30.0160000  0  5  2 15  6 13 19
  25676376.215   -13637173.547 9 -10626352.377 8
  29020912.440    -1312145.883 5  -1022432.693 1
  25979703.822   -11761137.829 8  -9164514.613 7
  28486649.000    -3278433.690 6  -2554622.057 2
  27654649.980     9016907.582 6   7026176.759 2
 91 11  5  9 30  0.0160000  0  5  2 15  6 13 19
  25681859.422   -13608380.769 9 -10603916.446 8
  29020482.536    -1314420.750 5  -1024205.265 2
  25977225.141   -11774156.572 8  -9174659.081 7
  28468842.230    -3372013.177 6  -2627541.097 2
  27673090.820     9113833.005 6   7101703.009 3
 91 11  5  9 30 30.0160000  0  5  2 15  6 13 19
  25687378.001   -13579368.263 9 -10581309.308 8
  29020131.778    -1316216.933 5  -1025604.852 1
  25974788.427   -11786955.280 8  -9184632.096 7
  28451063.338    -3465418.867 5  -2700324.726 2
  27691589.814     9211022.693 6   7177435.175 2
 91 11  5  9 31  0.0160000  0  5  2 15  6 13 19
  25692941.244   -13550138.232 8 -10558532.656 8
  29019881.454    -1317534.423 5  -1026631.467 2
  25972398.480   -11799534.146 8  -9194433.811 7
  28433324.022    -3558649.588 6  -2772972.011 1
  27710137.074     9308474.646 6   7253371.743 2
 91 11  5  9 31 30.0160000  0  5  2 15  6 13 19
  25698544.064   -13520689.150 8 -10535585.329 7
  29019725.266    -1318369.660 5  -1027282.335 4
  25970046.610   -11811889.090 8  -9204061.029 7
  28415612.880    -3651700.285 5  -2845479.023 2
  27728725.107     9406190.193 6   7329513.732 3
 91 11  5  9 32  0.0160000  0  5  2 15  6 13 19
  25704189.157   -13491023.411 8 -10512469.165 9
  29019657.812    -1318722.223 5  -1027557.050 2
  25967737.911   -11824020.279 8  -9213513.905 7
  28397939.518    -3744569.921 6  -2917844.967 2
  27747367.995     9504167.075 5   7405859.292 4
 91 11  5  9 32 30.0160000  0  5  2 15  6 13 19
  25709875.023   -13461142.899 9 -10489185.660 8
  29019681.196    -1318591.867 5  -1027455.469 3
  25965472.375   -11835927.263 8  -9222792.067 7
  28380307.225    -3837257.010 6  -2990068.652 1
  27766066.654     9602403.952 6   7482407.477 1
 91 11  5  9 33  0.0160000  0  5  2 15  6 13 19
  25715602.559   -13431049.326 9 -10465736.127 8
  29019799.910    -1317977.893 5  -1026976.959 2
  25963248.520   -11847609.669 8  -9231895.232 7
  28362705.504    -3929759.277 6  -3062148.318
  27784807.577     9700898.692 5   7559156.599 2
 91 11  5  9 33 30.0160000  0  5  2 15  6 13 19
  25721368.163   -13400742.340 9 -10442120.294 8
  29020015.463    -1316877.856 5  -1026119.817 2
  25961069.328   -11859064.857 8  -9240821.350 7
  28345129.575    -4022072.447 6  -3134080.662 2
  27803603.067     9799651.876 6   7636107.141 2
 91 11  5  9 34  0.0160000  0  5  2 15  6 13 19
  25727176.643   -13370225.343 8 -10418340.820 8
  29020322.448    -1315292.802 5  -1024884.694 2
  25958931.205   -11870294.209 8  -9249571.492 7
  28327604.609    -4114197.313 6  -3205866.248 1
  27822446.519     9898659.845 6   7713256.137 3
 91 11  5  9 34 30.0160000  0  5  2 15  6 13 19
  25733026.200   -13339496.818 9 -10394396.530 8
  29020709.781    -1313219.047 5  -1023268.826 1
  25956835.957   -11881293.707 8  -9258142.527 7
  28310117.414    -4206128.192 6  -3277500.644 2
  27841328.047     9997924.259 6   7790604.976 3
 91 11  5  9 35  0.0160000  0  5  2 15  6 13 19
  25738913.223   -13308560.966 9 -10370290.667 8
  29021201.145    -1310658.372 5  -1021273.389 2
  25954789.876   -11892065.241 8  -9266535.935 7
  28292656.002    -4297865.193 6  -3348984.009 1
  27860274.333    10097440.978 6   7868150.397 2
 91 11  5  9 35 30.0160000  0  5  2 15  6 13 19
  25744835.923   -13277419.137 9 -10346024.307 8
  29021771.941    -1307610.238 5  -1018898.222 3
  25952785.160   -11902608.066 8  -9274751.117 7
  28275236.863    -4389406.583 6  -3420314.932 2
  27879259.288    10197208.362 6   7945891.293 2
 91 11  5  9 36  0.0160000  0  5  2 15  6 13 19
  25750803.592   -13246071.989 9 -10321597.962 8
  29022459.672    -1304072.860 5  -1016141.846 1
  25950817.325   -11912920.276 8  -9282786.600 7
  28257851.595    -4480749.588 6  -3491491.287 2
  27898285.915    10297225.811 6   8023826.870 2
 91 11  5  9 36 30.0160000  0  5  2 15  6 13 19
  25756805.132   -13214519.470 9 -10297011.597 8
  29023215.449    -1300044.156 5  -1013002.537 2
  25948903.446   -11922999.633 8  -9290640.640 7
  28240505.905    -4571890.829 6  -3562510.413 1
  27917367.405    10397493.217 5   8101957.261 1
 91 11  5  9 37  0.0160000  0  5  2 15  6 13 19
  25762849.547   -13182760.688 9 -10272264.490 8
  29024072.255    -1295521.387 5  -1009478.256 2
  25947028.246   -11932843.180 8  -9298310.934 7
  28223205.479    -4662825.565 6  -3633368.656 1
  27936499.266    10498011.587 5   8180283.249 1
 91 11  5  9 37 30.0160000  0  5  2 15  6 13 19
  25768932.937   -13150799.117 9 -10247359.375 8
  29025025.892    -1290505.240 5  -1005569.590 3
  25945200.710   -11942451.912 8  -9305798.255 7
  28205943.427    -4753553.861 6  -3704065.937 3
  27955666.192    10598777.401 5   8258802.089 3
 91 11  5  9 38  0.0160000  0  5  2 15  6 13 19
  25775052.607   -13118635.347 9 -10222296.692 8
  29026075.470    -1284994.604 5  -1001275.590 2
  25943419.942   -11951824.191 8  -9313101.328 7
  28188719.757    -4844072.211 6  -3774599.723 3
  27974892.188    10699790.140 5   8337513.261 3
 91 11  5  9 38 30.0160000  0  5  2 15  6 13 19
  25781212.141   -13086272.073 9 -10197078.572 8
  29027221.269    -1278990.220 5   -996596.703 2
  25941678.750   -11960960.419 8  -9320220.462 7
  28171527.262    -4934380.684 6  -3844969.932 3
  27994165.840    10801046.808 5   8416414.502 3
 91 11  5  9 39  0.0160000  0  5  2 15  6 13 19
  25787408.251   -13053708.846 9 -10171704.631 8
  29028461.517    -1272489.344 5   -991531.130 2
  25939986.123   -11969857.602 8  -9327153.331 7
  28154386.323    -5024474.774 6  -3915173.093 2
  28013479.069    10902548.062 5   8495506.345 1
 91 11  5  9 39 30.0160000  0  5  2 15  6 13 19
  25793643.030   -13020946.645 9 -10146175.646 8
  29029782.996    -1265491.015 5   -986077.941 2
  25938337.261   -11978514.267 8  -9333898.787 7
  28137280.162    -5114351.889 6  -3985207.180 2
  28032832.172    11004293.083 5   8574788.194 1
 91 11  5  9 40  0.0160000  0  5  2 15  6 13 19
  25799914.988   -12987983.873 9 -10120490.371 8
  29031220.501    -1257992.356 5   -980234.856 2
  25936737.870   -11986927.062 8  -9340454.207 8
  28120218.378    -5204007.110 6  -4055068.360 2
  28052254.831    11106282.730 5   8654260.599 2
 91 11  5  9 40 30.0160000  0  5  2 15  6 13 19
  25806223.826   -12954820.944 9 -10094649.137 8
  29032728.156    -1249991.547 5   -974000.357 1
  25935184.346   -11995093.814 8  -9346817.907 8
  28103205.454    -5293437.255 6  -4124754.167 1
  28071701.764    11208516.412 5   8733923.151 2
 91 11  5  9 41  0.0160000  0  5  2 15  6 13 19
  25812573.131   -12921459.595 9 -10068653.281 8
  29034354.238    -1241487.905 5   -967374.157 2
  25933678.785   -12003014.455 8  -9352989.827 7
  28086233.607    -5382640.671 6  -4194263.275 1
  28091203.560    11310992.068 5   8813774.245 2
 91 11  5  9 41 30.0160000  0  5  2 15  6 13 19
  25818959.606   -12887898.521 9 -10042501.798 8
  29036068.748    -1232478.279 5   -960353.694 2
  25932216.396   -12010684.975 8  -9358966.862 7
  28069301.330    -5471612.192 6  -4263591.695 2
  28110752.734    11413710.947 5   8893814.990 2
 91 11  5  9 42  0.0160000  0  5  2 15  6 13 19
  25825384.758   -12854142.169 9 -10016198.154 8
  29037868.703    -1222965.708 5   -952941.309 4
  25930805.581   -12018107.846 8  -9364750.919 8
  28052416.115    -5560353.130 7  -4332740.459 3
  28130342.069    11516668.586 5   8974041.666 2
 91 11  5  9 42 30.0160000  0  5  2 15  6 13 19
  25831845.588   -12820189.579 9  -9989741.596 9
  29039789.474    -1212947.082 5   -945134.536 2
  25929437.623   -12025279.525 8  -9370339.243 7
  28035573.776    -5648859.105 7  -4401706.130 1
  28149977.272    11619866.093 5   9054455.231 3
 91 11  5  9 43  0.0160000  0  5  2 15  6 13 19
  25838344.485   -12786043.525 9  -9963134.286 8
  29041787.585    -1202423.789 5   -936934.549 2
  25928123.037   -12032200.378 8  -9375732.106 8
  28018767.707    -5737129.492 6  -4470488.217 2
  28169652.951    11723299.943 5   9135053.013 1
 91 11  5  9 43 30.0160000  0  5  2 15  6 13 19
  25844878.161   -12751706.901 9  -9936378.480 9
  29043884.639    -1191396.848 5   -928342.137 3
  25926852.810   -12038871.072 8  -9380930.054 7
  28002009.311    -5825163.475 6  -4539086.125 1
  28189388.589    11826967.470 5   9215832.936 3
 91 11  5  9 44  0.0160000  0  5  2 15  6 13 19
  25851446.318   -12717180.673 9  -9909474.927 8
  29046086.316    -1179865.489 5   -919356.660 1
  25925633.258   -12045290.724 8  -9385932.376 8
  27985309.977    -5912959.035 6  -4607498.205
  28209159.005    11930867.047 5   9296793.560 2
 91 11  5  9 44 30.0170000  0  5  2 15  6 13 19
  25858053.445   -12682464.391 9  -9882423.289 8
  29048367.132    -1167828.507 5   -909977.234 1
  25924459.568   -12051457.777 8  -9390737.870 8
  27968660.997    -6000515.932 7  -4675724.330 3
  28228973.486    12035001.009 5   9377936.850 2
 91 11  5  9 45  0.0170000  0  5  2 15  6 13 19
  25864695.041   -12647561.601 9  -9855226.316 8
  29050757.681    -1155285.701 5   -900203.549 2
  25923332.650   -12057370.848 8  -9395345.460 7
  27952047.099    -6087826.480 7  -4743758.504 2
  28248836.537    12139360.871 5   9459256.176 2
 91 11  5  9 45 30.0170000  0  5  2 15  6 13 19
  25871375.020   -12612473.100 9  -9827884.624 8
  29053236.964    -1142236.688 5   -890035.498 2
  25922253.398   -12063029.426 8  -9399754.735 7
  27935466.774    -6174892.172 6  -4811601.887 3
  28268739.156    12243948.559 5   9540753.071 1
 91 11  5  9 46  0.0170000  0  5  2 15  6 13 19
  25878083.773   -12577199.944 9  -9800399.054 8
  29055830.765    -1128681.027 5   -879472.699 2
  25921230.501   -12068432.340 8  -9403964.794 7
  27918911.343    -6261710.853 5  -4879252.813 2
  28288675.358    12348762.703 5   9622426.398 2
 91 11  5  9 46 30.0170000  0  5  2 15  6 13 19
  25884833.902   -12541741.109 9  -9772768.801 8
  29058505.813    -1114616.881 5   -868513.570 3
  25920248.988   -12073576.923 8  -9407973.566 8
  27902478.516    -6348277.846 6  -4946707.574 3
  28308668.221    12453803.308 5   9704276.171 3
